     2.10           OBSERVATION DATA    G (GPS)             RINEX VERSION / TYPE
teqc 2002Apr3 20050812 22:29:21UTC                          PGM / RUN BY / DATE
                                                            COMMENT
L2: 1 -> 1; 5 -> 5; 40 -> 9                                 COMMENT
L2: 1 -> 1; 5 -> 5; 40 -> 9                                 COMMENT
L2: 1 -> 1; 5 -> 5; 40 -> 9                                 COMMENT
L2: 1 -> 1; 5 -> 5; 40 -> 9                                 COMMENT
Original Marker Name: COCH                                  COMMENT
Campaign Name: USGS Coachella Subsidence 1996-2000          COMMENT
4-Character Station Name: COCH                              COMMENT
6-Character Antenna Code: DMRCHT                            COMMENT
Vertical Measurement Point: BPA                             COMMENT
Vertical Offset to Rinex Ref. Point: 0.0000                 COMMENT
Radial Measurement Point: RRP                               COMMENT
Radial Offset to Rinex Ref. Point: 0.0000                   COMMENT
Antenna Height from Field Measurement: 2.2000 m             COMMENT
Additional Antenna Identification Info.:                    COMMENT
Turborogue and Ashtech Choke Ring                           COMMENT
Original XYZ: -2340612.0800 -4765933.3100 3522742.8300      COMMENT
New XYZ position is based on association with SCEC monument COMMENT
E1D0T7Q5+0011. Position of that monument is believed to be  COMMENT
valid to within 1 m horizontally; vertical accuracy         COMMENT
should be no worse than 3-times this value.                 COMMENT
                                                            COMMENT
Revised Rinex header created by UCSD GPS archive for        COMMENT
GSAC on 20-Apr-2005 (2005:110) 16:26:53 GMT                 COMMENT
For assistance contact dagnew@ucsd.edu                      COMMENT
or anderson@python.ucsd.edu                                 COMMENT
                                                            COMMENT
COCH                                                        MARKER NAME
DAC US GEOLOGICAL SURVEY WATER RESOURC.                     OBSERVER / AGENCY
619 ASHTECH L-XII 7C                                        REC # / TYPE / VERS
617 DORNE-MARGOL. TYPE T                                    ANT # / TYPE
 -2340633.0000 -4765554.0000  3522551.0000                  APPROX POSITION XYZ
        2.2000        0.0000        0.0000                  ANTENNA: DELTA H/E/N
     1     1     0                                          WAVELENGTH FACT L1/2
     4    C1    L1    L2    S1                              # / TYPES OF OBSERV
     0                                                      INTERVAL
  1996     6     6    15    10   15.000000                  TIME OF FIRST OBS
  1996     6     6    21     2   15.000000                  TIME OF LAST OBS
                                                            END OF HEADER
 96  6  6 15 10 15.0000000  0  4G 2G 7G15G19
  21362023.169     5681240.539 9    -36290.22521       120.000
  21123925.091    -1436028.076 9   -190095.99626       104.000
  23743224.658    -5144036.955 7    -96977.60723        52.000
  22513557.179      288788.410 8    122424.53521        66.000
 96  6  6 15 10 30.0000000  0  4G 2G 7G15G19
  21360921.462     5675460.037 9    -40792.96321       118.000
  21117784.202    -1468297.642 9   -215241.09927       106.000
  23740504.461    -5158324.581 7   -108110.82624        56.000
  22520000.558      322648.987 8    148809.41822        70.000
 96  6  6 15 10 45.0000000  0  5G26G 2G 7G15G19
  23678284.964     -281849.217 7    -81367.56921        56.000
  21359846.136     5669805.153 9    -45195.71121       120.000
  21111683.156    -1500366.969 9   -240230.18527       102.000
  23737831.961    -5172397.171 7   -119076.43725        56.000
  22526475.506      356673.713 8    175322.14123        72.000
 96  6  6 15 11  0.0000000  0  5G26G 2G 7G15G19
  23672803.019     -310658.218 7   -103816.50521        56.000
  21358800.250     5664300.866 9    -49482.51421       118.000
  21105621.502    -1532212.318 9   -265044.74728       102.000
  23735201.912    -5186230.856 7   -129855.92225        56.000
  22532987.897      390885.893 8    201980.96024        72.000
 96  6  6 15 11 15.0000000  0  6G26G 2G 7G27G15G19
  23667377.945     -339220.430 7   -126072.69821        54.000
  21357786.112     5658970.469 9    -53636.23423       120.000
  21099608.055    -1563812.362 9   -289668.15228       104.000
  20514239.657     -438128.067 9     32552.25921       114.000
  23732611.135    -5199804.001 7   -140432.38625        52.000
  22539534.195      425306.409 8    228802.11825        68.000
 96  6  6 15 11 30.0000000  0  6G26G 2G 7G27G15G19
  23661990.255     -367522.525 7   -148126.30022        50.000
  21356807.800     5653824.775 9    -57645.87426       120.000
  21093645.513    -1595153.396 9   -314089.71829       106.000
  20515946.706     -429163.919 9     39537.74321       114.000
  23730083.435    -5213102.284 7   -150794.71825        54.000
  22546124.383      459946.122 8    255794.08425        68.000
 96  6  6 15 11 45.0000000  0  6G26G 2G 7G27G15G19
  23656656.587     -395541.677 7   -169959.41623        56.000
  21355866.391     5648886.247 9    -61494.07826       118.000
  21087734.055    -1626214.333 9   -338293.04329       106.000
  20517705.618     -419915.445 9     46749.73921       114.000
  23727607.719    -5226103.527 7   -160925.55125        54.000
  22552764.546      494823.778 8    282971.49625        70.000
 96  6  6 15 12  0.0000000  0  6G26G 2G 7G27G15G19
  23651382.399     -423254.271 7   -191553.63324        56.000
  21354967.793     5644177.247 9    -65163.44627       118.000
  21081881.147    -1656976.282 9   -362263.39829       106.000
  20519527.547     -410361.386 9     54194.09321       116.000
  23725192.441    -5238787.337 7   -170809.04225        54.000
  22559448.749      529957.664 8    310348.52625        68.000
 96  6  6 15 12 15.0000000  0  6G26G 2G 7G27G15G19
  23646166.669     -450652.511 7   -212902.90425        56.000
  21354119.441     5639704.166 9    -68648.95927       120.000
  21076083.971    -1687431.589 9   -385994.79529       104.000
  20521403.738     -400493.885 9     61880.79421       112.000
  23722843.957    -5251146.823 7   -180439.78025        54.000
  22566187.873      565352.146 8    337928.56625        70.000
 96  6  6 15 12 30.0000000  0  6G26G 2G 7G27G15G19
  23641014.916     -477733.080 7   -234004.64225        56.000
  21353314.978     5635470.546 9    -71947.88328       118.000
  21070349.720    -1717574.601 9   -409482.86029       104.000
  20523341.237     -390305.935 9     69819.54725       116.000
  23720556.121    -5263177.022 7   -189813.99025        54.000
  22572965.971      601010.604 8    365714.36725        64.000
 96  6  6 15 12 45.0000000  0  6G26G 2G 7G27G15G19
  23635912.868     -504503.300 7   -254864.57525        54.000
  21352552.995     5631471.933 9    -75063.69128       118.000
  21064668.384    -1747409.569 9   -432730.87529       104.000
  20525343.071     -379800.959 9     78005.24126       114.000
  23718327.074    -5274881.317 7   -198934.23525        54.000
  22579806.395      636931.830 8    393704.92325        66.000
 96  6  6 15 13  0.0000000  0  6G26G 2G 7G27G15G19
  23630882.351     -530964.178 7   -275483.42125        54.000
  21351837.720     5627708.794 9    -77995.99928       122.000
  21059049.853    -1776938.312 9   -455740.27029       106.000
  20527397.608     -368978.497 9     86438.32727       112.000
  23716162.033    -5286258.735 7   -207799.74225        50.000
  22586687.921      673116.219 8    421900.56426        64.000
 96  6  6 15 13 15.0000000  0  6G26G 2G 7G27G15G19
  23625909.243     -557115.984 7   -295861.45625        56.000
  21351163.097     5624176.254 9    -80748.63429       118.000
  21053491.131    -1806165.415 9   -478514.64629       106.000
  20529522.777     -357843.615 9     95114.85127       116.000
  23714059.588    -5297313.023 7   -216413.45526        50.000
  22593624.939      709559.936 8    450298.22926        68.000
 96  6  6 15 13 30.0000000  0  6G26G 2G 7G27G15G19
  23620989.229     -582958.730 7   -315998.66925        54.000
  21350537.820     5620867.853 9    -83326.61729       120.000
  21047984.544    -1835090.205 9   -501053.43729       106.000
  20531698.311     -346398.036 9    104033.48028       116.000
  23712015.753    -5308045.423 7   -224776.34126        50.000
  22600609.204      746260.227 8    478895.82426        66.000
 96  6  6 15 13 45.0000000  0  6G26G 2G 7G27G15G19
  23616129.294     -608494.172 7   -335896.39225        54.000
  21349946.210     5617781.257 9    -85731.75029       122.000
  21042538.903    -1863713.092 9   -523356.97129       106.000
  20533935.482     -334644.040 9    113192.43328       116.000
  23710035.384    -5318456.959 7   -232889.19726        52.000
  22607639.937      783216.281 7    507692.73025        60.000
 96  6  6 15 14  0.0000000  0  6G26G 2G 7G27G15G19
  23611328.477     -633727.051 7   -355558.40725        52.000
  21349400.318     5614911.768 9    -87967.72729       120.000
  21037150.674    -1892038.578 9   -545428.79829       106.000
  20536229.134     -322585.906 9    122588.36329       116.000
  23708110.866    -5328552.363 7   -240755.73926        52.000
  22614717.857      820427.235 7    536688.20826        62.000
 96  6  6 15 14 15.0000000  0  6G26G 2G 7G27G15G19
  23606590.138     -658664.954 7   -374990.53325        54.000
  21348897.626     5612251.207 9    -90040.88029       116.000
  21031813.229    -1920072.452 9   -567273.35029       106.000
  20538577.858     -310231.195 9    132215.42229       114.000
  23706248.975    -5338338.394 7   -248381.22826        52.000
  22621851.388      857888.110 8    565878.53026        64.000
 96  6  6 15 14 30.0000000  0  6G26G 2G 7G27G15G19
  23601895.058     -683304.478 7   -394190.16825        54.000
  21348431.808     5609803.181 9    -91948.44229       118.000
  21026538.290    -1947810.091 9   -588887.08929       108.000
  20540985.971     -297577.430 9    142075.48229       114.000
  23704447.852    -5347809.209 7   -255761.11325        54.000
  22629029.619      895604.680 7    595268.04226        60.000
 96  6  6 15 14 45.0000000  0  6G26G 2G 7G27G15G19
  23597267.821     -707653.932 7   -413163.76125        52.000
  21348004.424     5607559.046 9    -93697.12129       120.000
  21021313.897    -1975260.428 9   -610276.96429       106.000
  20543450.175     -284635.057 9    152160.43629       114.000
  23702700.962    -5356972.782 7   -262901.54626        52.000
  22636253.688      933572.832 7    624853.62126        60.000
 96  6  6 15 15  0.0000000  0  6G26G 2G 7G27G15G19
  23592679.348     -731717.377 7   -431914.49725        52.000
  21347613.285     5605512.198 9    -95292.06729       118.000
  21016142.237    -2002433.957 9   -631451.13529       104.000
  20545967.563     -271409.682 9    162465.91729       114.000
  23701023.143    -5365835.445 7   -269807.51626        50.000
  22643522.815      971786.220 8    654630.25426        64.000
 96  6  6 15 15 15.0000000  0  6G26G 2G 7G27G15G19
  23588182.701     -755384.011 7   -450356.03125        54.000
  21347281.175     5603770.596 9    -96649.17629       120.000
  21011042.858    -2029222.824 9   -652325.58429       106.000
  20548558.609     -257793.621 9    173075.82129       114.000
  23699406.512    -5374290.198 7   -276395.63926        52.000
  22650862.454     1010351.240 7    684680.85426        62.000
 96  6  6 15 15 30.0000000  0  6G26G 2G 7G27G15G19
  23583759.473     -778613.974 7   -468457.28825        52.000
  21347012.950     5602372.500 9    -97738.59229       120.000
  21006028.379    -2055585.867 9   -672868.21429       106.000
  20551232.848     -243747.257 9    184021.03829       116.000
  23697885.845    -5382298.273 7   -282635.64626        52.000
  22658273.204     1049306.934 7    715035.90326        60.000
 96  6  6 15 15 45.0000000  0  6G26G 2G 7G27G15G19
  23579410.144     -801496.555 7   -486287.87225        54.000
  21346797.550     5601233.909 9    -98625.80929       118.000
  21001073.949    -2081611.319 9   -693147.76829       106.000
  20553968.364     -229357.029 9    195234.20129       114.000
  23696427.774    -5389945.546 7   -288594.55626        50.000
  22665745.771     1088567.727 7    745628.72826        62.000
 96  6  6 15 16  0.0000000  0  6G26G 2G 7G27G15G19
  23575118.465     -824048.306 7   -503860.64725        54.000
  21346631.345     5600341.164 9    -99321.45829       118.000
  20996182.655    -2107318.243 9   -713179.14229       104.000
  20556769.325     -214640.572 9    206701.56429       114.000
  23695039.615    -5397250.041 7   -294286.40226        54.000
  22673274.099     1128117.544 7    776446.78126        58.000
 96  6  6 15 16 15.0000000  0  6G26G 2G 7G27G15G19
  23570881.468     -846295.305 7   -521195.97425        54.000
  21346500.245     5599669.131 9    -99845.12429       118.000
  20991347.992    -2132733.972 9   -732983.59129       104.000
  20559627.486     -199623.363 9    218403.28529       114.000
  23693710.216    -5404238.291 7   -299731.79526        54.000
  22680852.253     1167929.351 8    807468.94326        66.000
 96  6  6 15 16 30.0000000  0  6G26G 2G 7G27G15G19
  23566698.944     -868266.090 7   -538316.10425        52.000
  21346409.648     5599190.746 9   -100217.90229       118.000
  20986558.988    -2157886.217 9   -752582.76129       106.000
  20562538.261     -184333.870 9    230317.14129       110.000
  23692439.815    -5410938.128 7   -304952.44226        56.000
  22688472.437     1207971.852 8    838670.81926        66.000
 96  6  6 15 16 45.0000000  0  6G26G 2G 7G27G15G19
  23562569.842     -889961.108 7   -555221.28626        52.000
  21346357.364     5598905.850 9   -100439.90329       120.000
  20981821.157    -2182777.560 9   -771978.60229       104.000
  20565501.679     -168769.062 9    242445.56829       114.000
  23691211.206    -5417349.914 7   -309948.61126        52.000
  22696131.655     1248243.757 7    870051.49026        58.000
 96  6  6 15 17  0.0000000  0  6G26G 2G 7G27G15G19
  23558491.016     -911381.573 7   -571912.53826        50.000
  21346340.096     5598811.745 9   -100513.22629       122.000
  20977135.072    -2207410.847 9   -791173.36129       102.000
  20568513.844     -152928.511 9    254788.86129       114.000
  23690044.144    -5423476.722 7   -314722.70726        50.000
  22703841.987     1288738.950 8    901606.16126        66.000
 96  6  6 15 17 15.0000000  0  6G26G 2G 7G27G15G19
  23554464.234     -932535.513 7   -588396.12026        50.000
  21346356.045     5598902.094 9   -100442.81929       122.000
  20972497.492    -2231792.211 9   -810171.82429       106.000
  20571580.601     -136818.967 9    267341.74029       112.000
  23688936.501    -5429325.901 7   -319280.49126        48.000
  22711586.676     1329446.453 8    933326.30826        64.000
 96  6  6 15 17 30.0000000  0  6G26G 2G 7G27G15G19
  23550493.333     -953418.520 7   -604668.59826        50.000
  21346411.147     5599183.112 9   -100223.85229       124.000
  20967907.370    -2255909.324 9   -828964.36729       102.000
  20574695.804     -120436.328 9    280107.42629       112.000
  23687877.154    -5434889.202 7   -323615.51926        50.000
  22719373.305     1370373.527 7    965217.51326        60.000
 96  6  6 15 17 45.0000000  0  6G26G 2G 7G27G15G19
  23546569.829     -974057.037 7   -620750.57026        52.000
  21346493.380     5599630.334 9    -99875.36329       122.000
  20963363.925    -2279786.115 9   -847569.66529       102.000
  20577861.943     -103803.794 9    293067.83029       108.000
  23686874.858    -5440188.697 7   -327745.04726        50.000
  22727206.792     1411496.012 8    997261.00426        66.000
 96  6  6 15 18  0.0000000  0  6G26G 2G 7G27G15G19
  23542687.966     -994446.328 7   -636638.33326        52.000
  21346614.376     5600248.760 9    -99393.48029       124.000
  20958864.970    -2303417.743 9   -865983.92229       104.000
  20581073.859      -86916.136 9    306227.03229       112.000
  23685907.368    -5445220.056 7   -331665.56526        52.000
  22735059.136     1452816.388 7   1029458.66626        58.000
 96  6  6 15 18 15.0000000  0  6G26G 2G 7G27G15G19
  23538857.878    -1014587.032 7   -652332.35626        52.000
  21346761.664     5601034.108 9    -98781.50429       124.000
  20954416.319    -2326804.805 9   -884207.58729       102.000
  20584338.929      -69774.793 9    319583.93229       112.000
  23685001.155    -5449985.176 7   -335378.57826        48.000
  22742960.346     1494330.911 7   1061807.64126        58.000
 96  6  6 15 18 30.0000000  0  6G26G 2G 7G27G15G19
  23535065.533    -1034479.968 7   -667833.35326        50.000
  21346941.270     5601981.644 9    -98043.16929       124.000
  20950011.139    -2349947.654 9   -902240.97629       102.000
  20587649.507      -52379.200 9    333138.93629       110.000
  23684145.457    -5454485.281 7   -338885.14026        48.000
  22750897.771     1536038.138 7   1094306.70226        62.000
 96  6  6 15 18 45.0000000  0  6G26G 2G 7G27G15G19
  23531330.059    -1054123.950 7   -683140.38126        52.000
  21347152.684     5603091.268 9    -97178.52129       124.000
  20945654.405    -2372844.807 9   -920082.89629       102.000
  20591005.084      -34729.794 9    346891.71029       110.000
  23683332.390    -5458719.883 7   -342184.80126        46.000
  22758872.550     1577939.057 7   1126956.75126        60.000
 96  6  6 15 19  0.0000000  0  6G26G 2G 7G27G15G19
  23527642.882    -1073525.950 7   -698258.80926        50.000
  21347392.518     5604354.532 9    -96194.16529       124.000
  20941342.820    -2395503.320 9   -937738.88129       104.000
  20594409.437      -16836.569 9    360834.47429       110.000
  23682580.481    -5462697.907 7   -345284.54226        46.000
  22766884.534     1620026.786 7   1159752.39326        58.000
 96  6  6 15 19 15.0000000  0  6G26G 2G 7G27G15G19
  23523987.962    -1092686.137 7   -713188.82726        52.000
  21347660.862     5605772.409 9    -95089.32329       122.000
  20937075.694    -2417921.410 9   -955207.52829       102.000
  20597861.787        1296.454 9    374964.09529       110.000
  23681876.328    -5466419.875 7   -348184.82226        52.000
  22774929.195     1662302.283 7   1192694.32426        60.000
 96  6  6 15 19 30.0000000  0  6G26G 2G 7G27G15G19
  23520390.273    -1111603.374 7   -727929.53326        52.000
  21347960.864     5607347.403 9    -93862.06229       124.000
  20932857.944    -2440097.389 9   -972487.50729       102.000
  20601360.275       19670.573 9    389281.58929       112.000
  23681219.273    -5469883.340 7   -350883.65126        54.000
  22783003.925     1704770.319 7   1225786.28426        58.000
 96  6  6 15 19 45.0000000  0  6G26G 2G 7G27G15G19
  23516839.591    -1130283.803 7   -742485.67926        54.000
  21348288.657     5609070.750 9    -92519.19029       124.000
  20928682.255    -2462042.023 9   -989587.21129       102.000
  20604900.104       38278.705 9    403781.42729       112.000
  23680603.919    -5473097.382 7   -353388.09426        50.000
  22791125.272     1747422.378 7   1259021.58726        58.000
 96  6  6 15 20  0.0000000  0  6G26G 2G 7G27G15G19
  23513333.068    -1148713.469 7   -756846.48326        52.000
  21348649.487     5610954.730 9    -91051.15129       120.000
  20924549.436    -2483745.941 9  -1006499.35129       102.000
  20608488.380       57134.332 9    418474.11829       112.000
  23680043.127    -5476051.555 7   -355690.00326        52.000
  22799274.501     1790271.604 7   1292410.54826        56.000
 96  6  6 15 20 15.0000000  0  6G26G 2G 7G27G15G19
  23509871.335    -1166887.088 7   -771007.76926        50.000
  21349038.408     5613005.074 9    -89453.49429       122.000
  20920467.612    -2505204.160 9  -1023220.03629       102.000
  20612123.304       76240.490 9    433362.02529       114.000
  23679533.030    -5478742.220 7   -357786.60226        52.000
  22807469.837     1833324.404 7   1325958.18726        58.000
 96  6  6 15 20 30.0000000  0  6G26G 2G 7G27G15G19
  23506458.797    -1184814.868 7   -784977.48926        50.000
  21349457.518     5615212.008 9    -87733.83129       124.000
  20916428.358    -2526424.902 9  -1039755.69729       102.000
  20615807.603       95586.762 9    448437.00929       116.000
  23679067.003    -5481177.428 7   -359684.21926        46.000
  22815705.496     1876575.315 7   1359660.15626        62.000
 96  6  6 15 20 45.0000000  0  6G26G 2G 7G27G15G19
  23503091.768    -1202502.337 7   -798759.91226        54.000
  21349909.905     5617574.219 9    -85893.13629       122.000
  20912434.463    -2547411.201 9  -1056108.64129       102.000
  20619531.535      115167.081 9    463694.40029       118.000
  23678652.000    -5483361.537 7   -361386.09426        50.000
  22823972.363     1920020.790 7   1393513.79226        62.000
 96  6  6 15 21  0.0000000  0  6G26G 2G 7G27G15G19
  23499774.175    -1219958.914 7   -812362.43126        54.000
  21350384.896     5620084.951 9    -83936.71629       122.000
  20908485.657    -2568172.779 9  -1072286.48729       104.000
  20623298.428      134971.492 9    479126.40229       118.000
  23678280.198    -5485302.634 7   -362898.61326        48.000
  22832263.213     1963648.932 7   1427509.72726        52.000
 96  6  6 15 21 15.0000000  0  6G26G 2G 7G27G15G19
  23496495.615    -1237184.868 7   -825785.24226        54.000
  21350889.717     5622740.631 9    -81867.35729       122.000
  20904576.573    -2588713.693 9  -1088292.37229       102.000
  20627112.957      154999.307 9    494732.49229       118.000
  23677959.630    -5487001.769 7   -364222.61126        48.000
  22840611.354     2007457.340 8   1461646.10626        64.000
 96  6  6 15 21 30.0000000  0  6G26G 2G 7G27G15G19
  23493257.976    -1254179.680 7   -839027.94726        54.000
  21351424.486     5625540.512 9    -79685.62729       122.000
  20900709.430    -2609036.156 9  -1104128.05929       102.000
  20630965.260      175250.840 9    510512.88829       120.000
  23677682.891    -5488457.515 7   -365356.98326        48.000
  22848973.675     2051442.691 7   1495920.36426        56.000
 96  6  6 15 21 45.0000000  0  6G26G 2G 7G27G15G19
  23490069.923    -1270947.130 7   -852093.51026        56.000
  21351986.267     5628481.480 9    -77393.96429       120.000
  20896883.479    -2629140.821 9  -1119794.04029       106.000
  20634859.084      195724.072 9    526466.04929       118.000
  23677457.477    -5489672.104 7   -366303.42326        50.000
  22857381.084     2095601.261 7   1530329.62726        54.000
 96  6  6 15 22  0.0000000  0  6G26G 2G 7G27G15G19
  23486917.096    -1287488.456 7   -864982.85826        56.000
  21352570.953     5631562.578 9    -74993.10329       120.000
  20893096.770    -2649028.636 9  -1135291.02729       104.000
  20638799.137      216417.817 9    542591.04729       118.000
  23677269.268    -5490645.146 7   -367061.62926        52.000
  22865817.334     2139933.301 7   1564874.07626        60.000
 96  6  6 15 22 15.0000000  0  6G26G 2G 7G27G15G19
  23483821.079    -1303810.289 7   -877701.16726        58.000
  21353181.780     5634780.642 9    -72485.51629       118.000
  20889354.791    -2668704.781 9  -1150623.08529       104.000
  20642776.633      237326.576 9    558883.57029       120.000
  23677130.344    -5491381.208 7   -367635.16926        50.000
  22874282.214     2184432.650 7   1599548.88826        58.000
 96  6  6 15 22 30.0000000  0  6G26G 2G 7G27G15G19
  23480753.782    -1319886.621 7   -890228.18926        56.000
  21353823.815     5638160.840 9    -69851.61229       118.000
  20885655.142    -2688144.763 9  -1165771.12129       104.000
  20646801.797      258477.323 9    575364.64829       118.000
  23677038.877    -5491852.793 7   -368002.62426        48.000
  22882793.232     2229121.945 7   1634371.69526        58.000
 96  6  6 15 22 45.0000000  0  6G26G 2G 7G27G15G19
  23477740.778    -1335733.798 7   -902576.61726        54.000
  21354498.948     5641684.974 9    -67105.53729       116.000
  20881996.175    -2707369.185 9  -1180751.16929       106.000
  20650870.130      279852.466 9    592020.61229       118.000
  23677000.354    -5492078.909 7   -368178.79626        50.000
  22891324.366     2273977.032 7   1669323.66926        58.000
 96  6  6 15 23  0.0000000  0  6G26G 2G 7G27G15G19
  23474765.638    -1351366.787 7   -914758.19026        58.000
  21355193.777     5645337.440 9    -64259.45029       116.000
  20878376.930    -2726394.642 9  -1195576.20229       106.000
  20654977.107      301440.725 9    608842.62529       120.000
  23676990.071    -5492075.136 7   -368175.86726        46.000
  22899892.374     2318976.940 7   1704388.47626        58.000
 96  6  6 15 23 15.0000000  0  6G26G 2G 7G27G15G19
  23471838.464    -1366778.252 7   -926767.09626        58.000
  21355911.120     5649122.783 9    -61309.83029       118.000
  20874795.340    -2745215.378 9  -1210241.69329       104.000
  20659129.712      323250.542 9    625837.28029       116.000
  23677042.894    -5491834.493 7   -367988.37226        50.000
  22908483.137     2364129.423 7   1739572.25626        60.000
 96  6  6 15 23 30.0000000  0  6G26G 2G 7G27G15G19
  23468945.677    -1381969.332 7   -938604.32526        60.000
  21356657.843     5653042.057 9    -58255.85129       116.000
  20871250.924    -2763828.037 9  -1224745.07229       102.000
  20663320.001      345284.344 9    643006.46429       116.000
  23677141.736    -5491356.332 7   -367615.79126        56.000
  22917106.877     2409438.009 7   1774877.61026        58.000
 96  6  6 15 23 45.0000000  0  6G26G 2G 7G27G15G19
  23466093.751    -1396945.965 7   -950274.42226        62.000
  21357429.779     5657094.234 9    -55098.32029       114.000
  20867751.057    -2782233.292 9  -1239086.81429       102.000
  20667555.889      367540.237 9    660348.71029       118.000
  23677272.595    -5490644.126 7   -367060.79326        52.000
  22925751.003     2454901.307 7   1810303.55726        58.000
 96  6  6 15 24  0.0000000  0  6G26G 2G 7G27G15G19
  23463282.178    -1411709.053 7   -961778.13426        62.000
  21358224.199     5661276.335 9    -51839.55129       114.000
  20864287.195    -2800434.003 9  -1253269.18629       102.000
  20671833.507      390019.260 9    677864.81529       120.000
  23677439.220    -5489700.345 7   -366325.38326        48.000
  22934434.611     2500520.268 7   1845850.76626        60.000
 96  6  6 15 24 15.0000000  0  6G26G 2G 7G27G15G19
  23460513.025    -1426264.872 8   -973120.30426        64.000
  21359044.251     5665579.048 9    -48486.78329       112.000
  20860859.727    -2818440.073 9  -1267299.88429       104.000
  20676151.478      412715.720 9    695550.37029       114.000
  23677673.598    -5488533.480 7   -365416.09926        54.000
  22943144.152     2546285.729 7   1881512.16326        56.000
 96  6  6 15 24 30.0000000  0  6G26G 2G 7G27G15G19
  23457787.312    -1440607.714 7   -984296.55126        60.000
  21359887.777     5670003.581 9    -45039.09929       114.000
  20857471.053    -2836243.571 9  -1281172.72929       102.000
  20680512.319      435633.175 9    713408.12929       116.000
  23677934.777    -5487140.205 7   -364330.41926        50.000
  22951883.432     2592199.192 8   1917288.78926        66.000
 96  6  6 15 24 45.0000000  0  6G26G 2G 7G27G15G19
  23455096.015    -1454729.132 7   -995300.28026        62.000
  21360752.948     5674556.196 9    -41491.61229       116.000
  20854125.609    -2853836.052 9  -1294881.16529       102.000
  20684916.720      458774.477 9    731440.29729       118.000
  23678241.435    -5485513.720 7   -363063.05826        50.000
  22960644.147     2638269.133 7   1953187.45426        50.000
 96  6  6 15 25  0.0000000  0  6G26G 2G 7G27G15G19
  23452449.747    -1468635.157 7  -1006136.14026        60.000
  21361640.754     5679230.468 9    -37849.32429       116.000
  20850814.761    -2871220.266 9  -1308427.31229       102.000
  20689360.874      482134.641 9    749643.00829       116.000
  23678598.128    -5483659.829 7   -361618.45926        50.000
  22969442.846     2684494.344 7   1989207.08626        54.000
 96  6  6 15 25 15.0000000  0  6G26G 2G 7G27G15G19
  23449846.679    -1482327.023 7  -1016805.11626        60.000
  21362555.271     5684024.679 9    -34113.57629       116.000
  20847549.332    -2888394.523 9  -1321809.83929       102.000
  20693849.816      505710.747 9    768014.00829       116.000
  23678997.871    -5481578.748 7   -359996.84226        50.000
  22978274.791     2730880.864 7   2025352.40726        58.000
 96  6  6 15 25 30.0000000  0  6G26G 2G 7G27G15G19
  23447276.139    -1495823.477 7  -1027321.85426        56.000
  21363486.036     5688919.475 9    -30299.45129       116.000
  20844317.509    -2905381.077 9  -1335046.10329       102.000
  20698371.855      529478.680 9    786534.48529       116.000
  23679431.041    -5479291.141 7   -358214.28826        48.000
  22987129.731     2777412.558 7   2061610.85026        54.000
 96  6  6 15 25 45.0000000  0  6G26G 2G 7G27G15G19
  23444744.151    -1509128.838 8  -1037689.63726        64.000
  21364433.321     5693910.512 9    -26410.33929       116.000
  20841119.173    -2922187.097 9  -1348141.70429       100.000
  20702929.840      553431.785 9    805199.20829       116.000
  23679905.553    -5476802.786 7   -356275.28126        52.000
  22996007.755     2824082.962 8   2097977.35325        64.000
 96  6  6 15 26  0.0000000  0  6G26G 2G 7G27G15G19
  23442257.103    -1522216.962 7  -1047888.17926        62.000
  21365408.096     5699021.662 9    -22427.63029       118.000
  20837961.549    -2938790.393 9  -1361079.33729       102.000
  20707529.016      577589.154 9    824023.13229       114.000
  23680418.977    -5474090.560 7   -354161.90426        50.000
  23004914.079     2870913.522 7   2134468.64825        52.000
 96  6  6 15 26 15.0000000  0  6G26G 2G 7G27G15G19
  23439805.670    -1535085.846 7  -1057915.88426        60.000
  21366402.807     5704252.251 9    -18351.86029       116.000
  20834839.241    -2955188.585 9  -1373857.14929       102.000
  20712162.338      601950.431 9    843005.92829       114.000
  23680976.621    -5471152.950 7   -351872.84526        52.000
  23013860.936     2917903.248 7   2171084.01525        54.000
 96  6  6 15 26 30.0000000  0  6G26G 2G 7G27G15G19
  23437399.656    -1547742.138 7  -1067777.94626        62.000
  21367419.283     5709598.516 9    -14185.92929       116.000
  20831757.824    -2971383.679 9  -1386476.69629       102.000
  20716835.503      626506.966 9    862140.88429       116.000
  23681577.195    -5467994.981 7   -349412.05926        48.000
  23022825.450     2965047.485 7   2207819.75726        54.000
 96  6  6 15 26 45.0000000  0  6G26G 2G 7G27G15G19
  23435029.886    -1560188.815 7  -1077476.65426        60.000
  21368457.585     5715060.998 9     -9929.45329       118.000
  20828713.552    -2987379.294 9  -1398940.78229       100.000
  20721544.433      651252.809 9    881423.34829       116.000
  23682223.338    -5464618.865 7   -346781.32626        48.000
  23031830.076     3012345.972 7   2244675.70925        54.000
 96  6  6 15 27  0.0000000  0  6G26G 2G 7G27G15G19
  23432696.482    -1572429.647 7  -1087014.94726        58.000
  21369521.068     5720638.444 9     -5583.39829       118.000
  20825706.723    -3003179.490 9  -1411252.64529       100.000
  20726291.227      676188.376 9    900853.65029       114.000
  23682900.659    -5461026.507 7   -343982.08526        50.000
  23040869.238     3059797.081 7   2281650.55025        60.000
 96  6  6 15 27 15.0000000  0  6G26G 2G 7G27G15G19
  23430409.515    -1584466.642 7  -1096394.41526        60.000
  21370605.658     5726335.247 9     -1144.32329       120.000
  20822736.889    -3018782.977 9  -1423411.20029        98.000
  20731070.908      701317.532 9    920434.80829       116.000
  23683630.953    -5457215.543 7   -341012.46426        48.000
  23049919.912     3107400.529 7   2318744.12825        48.000
 96  6  6 15 27 30.0000000  0  6G26G 2G 7G27G15G19
  23428157.324    -1596302.191 7  -1105616.92326        60.000
  21371711.892     5732147.812 9      3384.94529       120.000
  20819802.551    -3034195.848 9  -1435421.23229        98.000
  20735889.083      726634.920 9    940162.62829       114.000
  23684395.634    -5453189.331 7   -337875.15026        50.000
  23059010.849     3155150.032 7   2355951.52325        62.000
 96  6  6 15 27 45.0010000  0  6G26G 2G 7G27G15G19
  23425942.068    -1607935.351 7  -1114681.72426        56.000
  21372839.591     5738076.383 9      8004.60329       120.000
  20816907.785    -3049415.728 9  -1447280.87329       100.000
  20740741.823      752143.332 9    960039.30029       114.000
  23685190.744    -5448945.418 7   -334568.20726        46.000
  23068123.221     3203046.246 7   2393273.23025        54.000
 96  6  6 15 28  0.0010000  0  6G26G 2G 7G27G15G19
  23423761.048    -1619369.117 7  -1123591.16526        56.000
  21373989.925     5744116.013 9     12710.79529       120.000
  20814048.274    -3064441.117 9  -1458988.98029       102.000
  20745632.697      777836.474 9    980059.92529       116.000
  23686050.369    -5444487.456 7   -331094.48226        50.000
  23077265.422     3251076.654 7   2430699.48925        52.000
 96  6  6 15 28 15.0010000  0  6G26G 2G 7G27G15G19
  23421629.763    -1630606.110 7  -1132347.25226        56.000
  21375161.604     5750263.048 9     17500.68929       120.000
  20811226.358    -3079270.717 9  -1470544.51529       100.000
  20750557.628      803716.676 9   1000226.30329       114.000
  23686939.313    -5439815.808 7   -327454.26626        50.000
  23086427.829     3299242.375 7   2468231.19225        58.000
 96  6  6 15 28 30.0010000  0  6G26G 2G 7G27G15G19
  23419521.173    -1641652.484 7  -1140954.80926        54.000
  21376347.972     5756513.172 9     22370.92029       122.000
  20808442.275    -3093909.984 9  -1481951.72229       102.000
  20755515.715      829781.393 9   1020536.46829       114.000
  23687867.351    -5434934.334 7   -323650.51526        52.000
  23095615.658     3347539.831 7   2505865.53125        46.000
 96  6  6 15 28 45.0010000  0  6G26G 2G 7G27G15G19
  23417465.316    -1652502.974 7  -1149409.74226        56.000
  21377557.395     5762870.263 9     27324.49229       122.000
  20805691.949    -3108361.123 9  -1493212.35429       100.000
  20760513.196      856034.635 9   1040993.53029       114.000
  23688836.130    -5429840.564 7   -319681.33326        50.000
  23104836.734     3395971.159 7   2543604.19425        56.000
 96  6  6 15 29  0.0010000  0  6G26G 2G 7G27G15G19
  23415428.316    -1663157.864 7  -1157712.25326        54.000
  21378785.405     5769333.389 9     32360.70129       122.000
  20802973.911    -3122625.404 9  -1504327.36629        98.000
  20765548.300      882480.130 9   1061600.39729       116.000
  23689848.589    -5424534.135 7   -315546.43226        50.000
  23114073.310     3444533.056 7   2581444.62225        50.000
 96  6  6 15 29 15.0010000  0  6G26G 2G 7G27G15G19
  23413444.889    -1673627.173 7  -1165870.16426        54.000
  21380036.619     5775894.365 9     37473.13829       120.000
  20800295.595    -3136711.520 9  -1515303.56429       104.000
  20770614.103      909112.636 9   1082352.98629       118.000
  23690891.837    -5419023.272 7   -311252.24526        48.000
  23123338.456     3493217.226 7   2619380.32525        52.000
 96  6  6 15 29 30.0010000  0  6G26G 2G 7G27G15G19
  23411486.225    -1683898.329 7  -1173873.68826        58.000
  21381304.141     5782560.966 9     42667.88829       120.000
  20797652.325    -3150609.860 9  -1526133.43929       104.000
  20775718.399      935939.049 9   1103256.67029       118.000
  23691983.981    -5413298.649 7   -306791.51026        48.000
  23132632.862     3542034.780 7   2657419.94025        52.000
 96  6  6 15 29 45.0010000  0  6G26G 2G 7G27G15G19
  23409570.731    -1693973.754 7  -1181724.65126        56.000
  21382593.279     5789328.186 9     47941.05029       118.000
  20795041.163    -3164322.517 9  -1536818.62329       104.000
  20780859.091      962957.583 9   1124310.07329       118.000
  23693114.498    -5407364.100 7   -302167.19726        48.000
  23141941.028     3590982.413 7   2695560.92325        50.000
 96  6  6 15 30  0.0010000  0  6G26G 2G 7G27G15G19
  23407687.795    -1703861.366 7  -1189429.26526        58.000
  21383903.162     5796194.607 9     53291.50829       122.000
  20792463.937    -3177854.865 9  -1547363.30829       102.000
  20786037.196      990166.180 9   1145511.56429       116.000
  23694281.320    -5401223.951 7   -297382.65126        48.000
  23151278.064     3640055.791 7   2733799.88925        48.000
 96  6  6 15 30 15.0010000  0  6G26G 2G 7G27G15G19
  23405844.191    -1713566.065 7  -1196991.38026        58.000
  21385224.047     5803157.374 9     58717.03229       122.000
  20789923.885    -3191211.981 9  -1557771.45329       104.000
  20791253.854     1017565.759 9   1166861.87629       116.000
  23695493.411    -5394881.226 7   -292440.29526        48.000
  23160645.709     3689253.818 7   2772135.98125        50.000
 96  6  6 15 30 30.0010000  0  6G26G 2G 7G27G15G19
  23404027.209    -1723081.558 7  -1204406.03526        54.000
  21386569.096     5810223.756 9     64223.30129       122.000
  20787418.160    -3204390.811 9  -1568040.66129       104.000
  20796503.730     1045163.337 9   1188366.47829       118.000
  23696736.021    -5388329.130 7   -287334.76826        46.000
  23170030.022     3738585.101 7   2810575.91925        52.000
 96  6  6 15 30 45.0010000  0  6G26G 2G 7G27G15G19
  23402254.776    -1732412.321 7  -1211676.79126        56.000
  21387933.152     5817392.376 9     69809.24029       122.000
  20784942.833    -3217399.535 9  -1578177.34629       106.000
  20801790.090     1072953.278 9   1210020.95729       116.000
  23698019.103    -5381572.610 7   -282069.92426        50.000
  23179442.666     3788046.197 7   2849117.02325        46.000
 96  6  6 15 31  0.0010000  0  6G26G 2G 7G27G15G19
  23400526.443    -1741537.749 7  -1218787.52026        56.000
  21389317.264     5824685.201 9     75491.95729       124.000
  20782506.600    -3230214.442 9  -1588162.97029       106.000
  20807122.799     1100955.580 9   1231840.92229       116.000
  23699351.410    -5374589.079 7   -276628.18026        48.000
  23188884.150     3837659.729 7   2887776.88625        54.000
 96  6  6 15 31 15.0010000  0  6G26G 2G 7G27G15G19
  23398820.743    -1750467.865 7  -1225746.05426        56.000
  21390730.545     5832091.597 9     81263.17529       122.000
  20780099.506    -3242840.260 9  -1598001.27929       104.000
  20812486.565     1129158.224 9   1253817.00229       116.000
  23700719.333    -5367387.568 7   -271016.59226        50.000
  23198348.088     3887418.044 7   2926549.60025        42.000
 96  6  6 15 31 30.0010000  0  6G26G 2G 7G27G15G19
  23397158.334    -1759213.575 7  -1232560.89126        58.000
  21392158.667     5839595.853 9     87110.63829       120.000
  20777733.544    -3255289.823 9  -1607702.23829       108.000
  20817890.234     1157541.571 9   1275933.88829       116.000
  23702137.442    -5359982.479 7   -265246.38526        50.000
  23207845.183     3937309.038 7   2965425.62625        52.000
 96  6  6 15 31 45.0010000  0  6G26G 2G 7G27G15G19
  23395527.164    -1767774.564 7  -1239231.77826        58.000
  21393603.127     5847192.572 9     93030.17229       118.000
  20775396.242    -3267564.428 9  -1617266.85629       106.000
  20823323.013     1186101.738 9   1298188.55629       118.000
  23703580.163    -5352376.438 7   -259319.57326        48.000
  23217364.523     3987326.853 7   3004400.54725        48.000
 96  6  6 15 32  0.0010000  0  6G26G 2G 7G27G15G19
  23393925.253    -1776165.669 7  -1245770.31826        56.000
  21395066.474     5854871.989 9     99014.12329       116.000
  20773086.761    -3279677.187 9  -1626705.36229       106.000
  20828788.680     1214827.018 9   1320571.87529       118.000
  23705057.930    -5344581.588 7   -253245.71726        50.000
  23226910.215     4037459.398 7   3043464.80925        52.000
 96  6  6 15 32 15.0010000  0  6G26G 2G 7G27G15G19
  23392364.083    -1784401.245 7  -1252187.67426        56.000
  21396539.024     5862615.945 9    105048.36929       118.000
  20770813.375    -3291642.041 9  -1636028.63129       106.000
  20834284.655     1243698.694 9   1343069.27529       118.000
  23706583.424    -5336613.363 7   -247036.71326        50.000
  23236460.643     4087692.859 7   3082607.75625        44.000
 96  6  6 15 32 30.0010000  0  6G26G 2G 7G27G15G19
  23390829.236    -1792451.152 7  -1258460.29426        58.000
  21398028.153     5870450.804 9    111153.46829       116.000
  20768570.568    -3303432.082 9  -1645215.66229       106.000
  20839813.997     1272740.406 9   1365699.17029       116.000
  23708130.743    -5328445.828 7   -240672.36626        48.000
  23246049.535     4138052.535 7   3121849.04525        54.000
 96  6  6 15 32 45.0010000  0  6G26G 2G 7G27G15G19
  23389340.047    -1800313.479 7  -1264586.82226        60.000
  21399536.649     5878377.635 9    117330.20829       116.000
  20766360.708    -3315049.365 9  -1654268.09829       106.000
  20845368.462     1301945.347 9   1388456.24829       116.000
  23709726.598    -5320081.287 7   -234154.52526        50.000
  23255655.185     4188535.734 7   3161186.58125        48.000
 96  6  6 15 33  0.0010000  0  6G26G 2G 7G27G15G19
  23387868.426    -1807983.597 7  -1270563.55726        54.000
  21401065.651     5886397.197 9    123579.21129       118.000
  20764184.064    -3326486.751 9  -1663180.34829       106.000
  20850956.053     1331314.908 9   1411341.61129       116.000
  23711350.783    -5311516.951 7   -227481.01426        50.000
  23265282.030     4239142.665 7   3200620.54525        48.000
 96  6  6 15 33 15.0010000  0  6G26G 2G 7G27G15G19
  23386453.885    -1815462.733 7  -1276391.45626        54.000
  21402608.442     5894504.308 9    129896.43829       120.000
  20762041.478    -3337745.937 9  -1671953.73929       106.000
  20856574.104     1360845.295 9   1434352.28129       114.000
  23713018.889    -5302756.815 7   -220654.93726        44.000
  23274940.954     4289866.485 7   3240145.54425        50.000
 96  6  6 15 33 30.0010000  0  6G26G 2G 7G27G15G19
  23385060.450    -1822753.103 7  -1282072.24626        56.000
  21404167.453     5902695.282 9    136279.01329       120.000
  20759929.230    -3348834.043 9  -1680593.80329       106.000
  20862225.162     1390535.780 9   1457487.72529       116.000
  23714717.273    -5293805.218 7   -213679.65926        44.000
  23284608.061     4340701.670 7   3279757.36525        46.000
 96  6  6 15 33 45.0010000  0  6G26G 2G 7G27G15G19
  23383712.103    -1829854.130 7  -1287605.56226        56.000
  21405742.323     5910976.046 9    142731.54429       120.000
  20757853.467    -3359752.250 9  -1689101.50829       106.000
  20867905.719     1420392.168 9   1480752.41329       116.000
  23716461.735    -5284660.213 7   -206553.71626        48.000
  23294310.784     4391648.169 7   3319455.88025        48.000
 96  6  6 15 34  0.0010000  0  6G26G 2G 7G27G15G19
  23382399.821    -1836750.318 7  -1292979.20226        56.000
  21407341.836     5919367.824 9    149270.60629       118.000
  20755810.711    -3370484.117 9  -1697463.98529       104.000
  20873624.291     1450437.488 9   1504164.35829       116.000
  23718241.033    -5275303.229 7   -199262.55526        48.000
  23304023.940     4442723.772 7   3359255.06925        52.000
 96  6  6 15 34 15.0010000  0  6G26G 2G 7G27G15G19
  23381130.440    -1843418.853 7  -1298175.49126        54.000
  21408961.434     5927893.440 9    155913.93029       120.000
  20753807.978    -3381004.969 9  -1705662.06629       104.000
  20879383.154     1480694.461 9   1527741.19429       116.000
  23720073.215    -5265710.836 7   -191787.96126        50.000
  23313763.597     4493950.983 7   3399172.33625        42.000
 96  6  6 15 34 30.0010000  0  6G26G 2G 7G27G15G19
  23379901.171    -1849901.080 7  -1303226.54326        54.000
  21410599.111     5936508.253 9    162626.77429       116.000
  20751838.791    -3391361.351 9  -1713731.96529       102.000
  20885170.287     1511120.427 9   1551449.74229       114.000
  23721929.170    -5255926.995 7   -184164.15726        48.000
  23323540.519     4545282.382 7   3439170.81325        52.000
 96  6  6 15 34 45.0010000  0  6G26G 2G 7G27G15G19
  23378701.132    -1856199.451 7  -1308134.39626        54.000
  21412256.573     5945214.062 9    169410.51129       118.000
  20749893.078    -3401556.252 9  -1721676.04229       104.000
  20890996.514     1541718.204 9   1575292.15129       116.000
  23723829.225    -5245951.957 7   -176391.37026        46.000
  23333332.490     4596715.239 7   3479248.34425        50.000
 96  6  6 15 35  0.0010000  0  6G26G 2G 7G27G15G19
  23377534.070    -1862314.567 7  -1312899.44426        58.000
  21413933.193     5954007.976 9    176262.91429       120.000
  20747989.216    -3411588.933 9  -1729493.71529       102.000
  20896849.002     1572489.471 9   1599269.75029       114.000
  23725762.886    -5235785.328 7   -168469.32326        50.000
  23343129.048     4648248.633 7   3519404.16125        46.000
 96  6  6 15 35 15.0010000  0  6G26G 2G 7G27G15G19
  23376406.940    -1868251.098 7  -1317525.26926        56.000
  21415620.035     5962887.068 9    183181.68029       118.000
  20746112.185    -3421460.017 9  -1737185.46629       102.000
  20902738.545     1603435.740 9   1623383.71929       114.000
  23727736.930    -5225429.614 7   -160399.92526        48.000
  23352957.684     4699880.030 7   3559636.39025        50.000
 96  6  6 15 35 30.0010000  0  6G26G 2G 7G27G15G19
  23375310.689    -1874012.009 7  -1322014.31626        54.000
  21417325.254     5971852.033 9    190167.35829       120.000
  20744262.166    -3431171.611 9  -1744752.93929       102.000
  20908661.845     1634559.015 9   1647635.60929       116.000
  23729742.541    -5214884.623 7   -152183.07826        48.000
  23362800.680     4751612.210 7   3599947.18325        46.000
 96  6  6 15 35 45.0010000  0  6G26G 2G 7G27G15G19
  23374247.985    -1879598.807 7  -1326367.67226        52.000
  21419047.262     5980902.411 9    197219.59629       116.000
  20742445.933    -3440720.618 9  -1752193.72729       102.000
  20914618.631     1665860.523 9   1672026.38729       116.000
  23731789.074    -5204148.893 7   -143817.60626        48.000
  23372666.250     4803449.354 7   3640339.73725        50.000
 96  6  6 15 36  0.0010000  0  6G26G 2G 7G27G15G19
  23373221.106    -1885008.055 7  -1330582.67426        54.000
  21420783.690     5990038.209 9    204338.41429       118.000
  20740660.939    -3450100.155 9  -1759502.45029       102.000
  20920611.242     1697340.712 9   1696556.39329       118.000
  23733860.880    -5193219.325 7   -135301.07526        50.000
  23382550.707     4855395.835 7   3680817.52025        42.000
 96  6  6 15 36 15.0010000  0  6G26G 2G 7G27G15G19
  23372227.594    -1890246.040 7  -1334664.19426        56.000
  21422537.446     5999251.212 9    211517.36529       116.000
  20738906.764    -3459314.241 9  -1766682.25729       102.000
  20926631.015     1728989.887 9   1721218.09429       114.000
  23735983.351    -5182101.407 7   -126637.71826        50.000
  23392460.077     4907447.327 7   3721377.07825        50.000
 96  6  6 15 36 30.0010000  0  6G26G 2G 7G27G15G19
  23371258.604    -1895313.265 7  -1338612.68626        56.000
  21424307.361     6008542.038 9    218756.96229       114.000
  20737185.355    -3468364.672 9  -1773734.54229       102.000
  20932688.921     1760805.323 9   1746009.32529       114.000
  23738134.661    -5170795.414 7   -117827.84826        52.000
  23402388.574     4959605.034 7   3762019.41325        50.000
 96  6  6 15 36 45.0010000  0  6G26G 2G 7G27G15G19
  23370325.680    -1900206.870 7  -1342425.91026        54.000
  21426092.235     6017918.933 9    226063.63429       116.000
  20735494.196    -3477248.042 9  -1780656.64429       102.000
  20938775.068     1792793.556 9   1770935.20929       116.000
  23740322.067    -5159296.631 7   -108867.75126        52.000
  23412336.227     5011877.605 7   3802751.22425        46.000
 96  6  6 15 37  0.0010000  0  6G26G 2G 7G27G15G19
  23369426.243    -1904936.848 7  -1346111.59526        56.000
  21427891.439     6027371.135 9    233428.98229       114.000
  20733832.656    -3485970.630 9  -1787453.45729       102.000
  20944888.316     1824941.068 9   1795985.21529       114.000
  23742538.043    -5147615.456 7    -99765.57026        52.000
  23422291.795     5064257.330 6   3843566.59225        40.000
 96  6  6 15 37 15.0010000  0  6G26G 2G 7G27G15G19
  23368562.091    -1909491.895 7  -1349661.00226        54.000
  21429707.043     6036907.269 9    240859.73529       112.000
  20732206.402    -3494518.248 9  -1794113.94229        98.000
  20951039.247     1857258.168 9   1821167.34329       112.000
  23744801.956    -5135741.215 7    -90512.91726        52.000
  23432298.357     5116757.118 7   3884475.46225        56.000
 96  6  6 15 37 30.0010000  0  6G26G 2G 7G27G15G19
  23367724.981    -1913881.953 7  -1353081.81226        54.000
  21431532.539     6046521.354 9    248351.23329       114.000
  20730613.935    -3502899.307 9  -1800644.63929        98.000
  20957219.979     1889737.215 9   1846475.69729       112.000
  23747095.098    -5123681.183 7    -81115.49226        50.000
  23442299.134     5169370.337 7   3925472.83125        42.000
 96  6  6 15 37 45.0010000  0  6G26G 2G 7G27G15G19
  23366918.899    -1918113.302 7  -1356378.96226        54.000
  21433376.592     6056205.387 9    255897.23329       114.000
  20729047.819    -3511121.775 9  -1807051.74029       100.000
  20963431.468     1922368.496 9   1871902.66829       114.000
  23749430.871    -5111442.197 7    -71578.61026        52.000
  23452331.569     5222089.410 7   3966552.57025        48.000
 96  6  6 15 38  0.0010000  0  6G26G 2G 7G27G15G19
  23366145.914    -1922176.235 7  -1359544.90126        56.000
  21435234.136     6065971.227 9    263506.96329       112.000
  20727513.661    -3519176.640 9  -1813328.26729       100.000
  20969672.218     1955159.901 9   1897454.38529       112.000
  23751785.201    -5099015.098 7    -61895.14526        50.000
  23462387.297     5274920.937 7   4007719.95125        50.000
 96  6  6 15 38 15.0010000  0  6G26G 2G 7G27G15G19
  23365405.696    -1926067.406 7  -1362576.97326        58.000
  21437110.387     6075825.454 9    271185.57029       112.000
  20726013.949    -3527064.373 9  -1819474.55329       100.000
  20975941.688     1988114.903 9   1923133.59729       114.000
  23754192.235    -5086396.697 7    -52062.64626        52.000
  23472460.923     5327866.529 7   4048976.18925        52.000
 96  6  6 15 38 30.0010000  0  6G26G 2G 7G27G15G19
  23364694.708    -1929796.306 7  -1365482.61626        60.000
  21439001.298     6085762.728 9    278928.90329       112.000
  20724542.418    -3534795.474 9  -1825498.76829       102.000
  20982242.876     2021227.256 9   1948935.42229       112.000
  23756627.149    -5073595.140 7    -42087.39126        52.000
  23482555.535     5380916.568 7   4090313.87825        46.000
 96  6  6 15 38 45.0010000  0  6G26G 2G 7G27G15G19
  23364016.728    -1933377.196 7  -1368272.95126        58.000
  21440905.220     6095765.403 9    286723.19029       114.000
  20723096.998    -3542385.394 9  -1831413.01229       102.000
  20988571.554     2054483.275 9   1974849.18029       108.000
  23759094.651    -5060627.598 7    -31982.79826        54.000
  23492668.734     5434051.277 7   4131717.51525        54.000
 96  6  6 15 39  0.0010000  0  6G26G 2G 7G27G15G19
  23363363.390    -1936813.965 7  -1370950.93626        56.000
  21442819.095     6105825.115 9    294561.92729       112.000
  20721679.520    -3549837.940 9  -1837220.17629       100.000
  20994924.726     2087876.411 9   2000869.79729       108.000
  23761595.999    -5047500.485 7    -21753.89726        54.000
  23502789.367     5487261.172 7   4173179.74725        42.000
 96  6  6 15 39 15.0010000  0  6G26G 2G 7G27G15G19
  23362737.813    -1940078.320 7  -1373494.58826        56.000
  21444751.138     6115968.859 9    302466.14429       114.000
  20720294.778    -3557125.123 9  -1842898.50129       102.000
  21001309.376     2121433.254 9   2027017.98429       108.000
  23764127.537    -5034185.615 7    -11378.68626        52.000
  23512945.107     5540571.257 7   4214720.05725        52.000
 96  6  6 15 39 30.0010000  0  6G26G 2G 7G27G15G19
  23362147.042    -1943183.031 7  -1375913.84026        58.000
  21446693.733     6126184.325 9    310426.23329       114.000
  20718935.250    -3564265.286 9  -1848462.26829       102.000
  21007727.813     2155142.034 9   2053284.55829       110.000
  23766697.718    -5020696.271 7      -867.53026        56.000
  23523099.167     5593967.355 7   4256327.36125        42.000
 96  6  6 15 39 45.0010000  0  6G26G 2G 7G27G15G19
  23361586.970    -1946122.299 7  -1378204.20026        56.000
  21448652.697     6136475.472 9    318445.29129       116.000
  20717603.721    -3571256.853 9  -1853910.23829       102.000
  21014169.153     2189004.629 9   2079670.96829       112.000
  23769294.280    -5007029.225 7      9782.11926        52.000
  23533281.138     5647451.591 7   4298003.36425        54.000
 96  6  6 15 40  0.0010000  0  6G26G 2G 7G27G15G19
  23361062.573    -1948892.300 7  -1380362.63926        56.000
  21450625.691     6146841.890 9    326523.02329       114.000
  20716307.449    -3578098.726 9  -1859241.56529       102.000
  21020640.234     2223022.697 9   2106178.54929       110.000
  23771928.646    -4993183.259 7     20571.20526        48.000
  23543465.778     5701024.802 7   4339748.68125        42.000
 96  6  6 15 40 15.0010000  0  6G26G 2G 7G27G15G19
  23360566.416    -1951484.048 7  -1382382.18126        56.000
  21452611.576     6157288.866 9    334663.52429       114.000
  20715030.423    -3584785.404 9  -1864451.96629       104.000
  21027149.747     2257204.013 9   2132813.34129       108.000
  23774606.303    -4979152.266 7     31504.45426        54.000
  23553686.572     5754695.055 7   4381569.60525        56.000
 96  6  6 15 40 30.0010000  0  6G26G 2G 7G27G15G19
  23360113.850    -1953901.882 7  -1384266.20726        58.000
  21454614.729     6167808.119 9    342860.34329       114.000
  20713785.775    -3591323.010 9  -1869546.19329       100.000
  21033681.925     2291540.925 9   2159569.36929       112.000
  23777304.495    -4964943.123 7     42576.50126        56.000
  23563911.623     5808455.586 7   4423460.94325        42.000
 96  6  6 15 40 45.0010000  0  6G26G 2G 7G27G15G19
  23359685.416    -1956135.954 7  -1386007.07426        58.000
  21456629.754     6178402.531 9    351115.72229       112.000
  20712570.985    -3597702.353 9  -1874517.12329       100.000
  21040245.341     2326039.032 9   2186450.98729       110.000
  23780052.392    -4950548.910 7     53792.74226        56.000
  23574165.965     5862311.933 7   4465426.84825        54.000
 96  6  6 15 41  0.0010000  0  6G26G 2G 7G27G15G19
  23359291.699    -1958186.531 7  -1387604.90226        58.000
  21458663.217     6189070.048 9    359428.07929       116.000
  20711388.844    -3603924.389 9  -1879365.45329       102.000
  21046839.666     2360694.406 9   2213455.16329       112.000
  23782809.314    -4935971.500 7     65151.74726        54.000
  23584431.098     5916263.393 6   4507466.95225        38.000
 96  6  6 15 41 15.0010000  0  6G26G 2G 7G27G15G19
  23358941.571    -1960060.565 7  -1389065.20426        58.000
  21460702.045     6199806.764 9    367794.33529       116.000
  20710232.125    -3609994.492 9  -1884095.40129       100.000
  21053465.619     2395499.627 9   2240576.10129       110.000
  23785627.333    -4921216.090 7     76649.46626        54.000
  23594712.480     5970307.239 7   4549578.98825        48.000
 96  6  6 15 41 30.0010000  0  6G26G 2G 7G27G15G19
  23358614.678    -1961759.397 7  -1390388.97126        56.000
  21462758.531     6210609.693 9    376212.18729       116.000
  20709108.892    -3615913.470 9  -1888707.59329       102.000
  21060116.575     2430455.368 9   2267814.32429       108.000
  23788470.834    -4906282.828 7     88285.80726        54.000
  23605016.347     6024443.969 7   4591763.42125        48.000
 96  6  6 15 41 45.0010000  0  6G26G 2G 7G27G15G19
  23358335.631    -1963236.006 7  -1391539.58126        56.000
  21464837.652     6221525.713 9    384718.17629       114.000
  20708019.536    -3621630.563 9  -1893162.47129       100.000
  21066803.595     2465610.104 9   2295207.61729       108.000
  23791353.459    -4891124.279 7    100097.67926        52.000
  23615353.101     6078721.136 7   4634057.28325        46.000
 96  6  6 15 42  0.0010000  0  6G26G 2G 7G27G15G19
  23358084.974    -1964540.403 7  -1392556.00426        58.000
  21466928.255     6232506.564 9    393274.68629       116.000
  20706959.500    -3627189.695 9  -1897494.25129       100.000
  21073523.953     2500915.288 9   2322718.15729       110.000
  23794273.137    -4875788.025 7    112048.01226        50.000
  23625684.939     6133089.143 6   4676421.97125        38.000
 96  6  6 15 42 15.0010000  0  6G26G 2G 7G27G15G19
  23357868.584    -1965673.480 7  -1393438.91926        56.000
  21469027.462     6243554.747 9    401883.64729       118.000
  20705932.681    -3632591.229 9  -1901703.23429       100.000
  21080274.260     2536371.265 9   2350346.16629       110.000
  23797221.896    -4860273.070 7    124137.56426        48.000
  23636056.708     6187549.099 6   4718858.27525        40.000
 96  6  6 15 42 30.0010000  0  6G26G 2G 7G27G15G19
  23357682.953    -1966643.495 7  -1394194.78626        56.000
  21471144.326     6254666.450 9    410542.12329       118.000
  20704932.543    -3637841.570 9  -1905794.40629       100.000
  21087047.681     2571970.851 9   2378086.08529       110.000
  23800205.940    -4844585.784 7    136361.40126        50.000
  23646433.215     6242093.523 7   4761360.36625        42.000
 96  6  6 15 42 45.0010000  0  6G26G 2G 7G27G15G19
  23357527.810    -1967448.611 7  -1394822.16826        54.000
  21473272.103     6265845.375 9    419252.96429       120.000
  20703964.454    -3642937.050 9  -1909764.92229        98.000
  21093851.411     2607719.365 9   2405942.05129       110.000
  23803224.311    -4828721.536 7    148723.13425        50.000
  23656828.458     6296724.359 7   4803929.78325        46.000
 96  6  6 15 43  0.0010000  0  6G26G 2G 7G27G15G19
  23357408.313    -1968089.863 7  -1395321.83426        54.000
  21475410.792     6277094.293 9    428018.35029       118.000
  20703023.945    -3647878.336 9  -1913615.26129        96.000
  21100682.092     2643618.883 9   2433915.69529       110.000
  23806283.723    -4812679.184 7    161223.68726        52.000
  23667246.486     6351443.918 7   4846568.40625        42.000
 96  6  6 15 43 15.0010000  0  6G26G 2G 7G27G15G19
  23357324.581    -1968568.525 7  -1395694.81026        56.000
  21477566.390     6288417.335 9    436841.50329       120.000
  20702109.608    -3652664.698 9  -1917344.88129        96.000
  21107540.923     2679673.263 9   2462010.01629       110.000
  23809363.521    -4796455.348 7    173865.63226        50.000
  23677674.797     6406256.368 6   4889279.35325        38.000
 96  6  6 15 43 30.0010000  0  6G26G 2G 7G27G15G19
  23357260.695    -1968888.532 7  -1395944.18426        58.000
  21479733.920     6299808.323 9    445717.58429       120.000
  20701231.845    -3657300.180 9  -1920956.95029        98.000
  21114433.992     2715880.011 9   2490223.03829       110.000
  23812483.161    -4780052.836 7    186646.82726        50.000
  23688116.298     6461157.605 6   4932059.52325        40.000
 96  6  6 15 43 45.0010000  0  6G26G 2G 7G27G15G19
  23357229.876    -1969056.543 7  -1396075.10726        56.000
  21481914.040     6311260.415 9    454641.28629       122.000
  20700375.578    -3661794.711 9  -1924459.17229        94.000
  21121348.585     2752232.439 9   2518549.59629       110.000
  23815643.573    -4763479.048 7    199561.45426        52.000
  23698588.589     6516139.346 6   4974902.39825        40.000
 96  6  6 15 44  0.0010000  0  6G26G 2G 7G27G15G19
  23357221.122    -1969068.976 7  -1396084.79926        58.000
  21484109.061     6322782.524 9    463619.55229       122.000
  20699545.153    -3666147.246 9  -1927850.75729        94.000
  21128294.206     2788732.581 9   2546991.25229       108.000
  23818823.771    -4746730.100 7    212612.55826        50.000
  23709067.984     6571205.163 7   5017810.83425        46.000
 96  6  6 15 44 15.0010000  0  6G26G 2G 7G27G15G19
  23357251.191    -1968931.539 7  -1395977.71626        58.000
  21486309.867     6334368.780 9    472647.80429       122.000
  20698743.688    -3670369.454 9  -1931140.80429        96.000
  21135267.169     2825374.868 9   2575543.66229       108.000
  23822047.590    -4729811.483 7    225795.88225        50.000
  23719547.439     6626349.645 6   5060780.52025        32.000
 96  6  6 15 44 30.0010000  0  6G26G 2G 7G27G15G19
  23357303.745    -1968637.294 7  -1395748.43526        60.000
  21488528.032     6346026.712 9    481731.89529       122.000
  20697967.765    -3674454.293 9  -1934323.78629        94.000
  21142269.901     2862167.427 9   2604213.18129       108.000
  23825303.216    -4712716.384 7    239116.73325        50.000
  23730059.632     6681581.471 6   5103818.25125        40.000
 96  6  6 15 44 45.0010000  0  6G26G 2G 7G27G15G19
  23357385.978    -1968189.441 7  -1395399.46426        58.000
  21490761.455     6357752.696 9    490869.02229       124.000
  20697216.185    -3678401.607 9  -1937399.60929        96.000
  21149295.687     2899107.959 9   2632998.00329       108.000
  23828589.241    -4695447.354 7    252573.12825        50.000
  23740593.349     6736897.294 6   5146921.46525        38.000
 96  6  6 15 45  0.0010000  0  6G26G 2G 7G27G15G19
  23357507.844    -1967598.246 7  -1394938.82626        60.000
  21492999.586     6369535.221 9    500050.18329       122.000
  20696488.559    -3682219.344 9  -1940374.49329        94.000
  21156355.050     2936186.331 9   2661890.20529       106.000
  23831901.138    -4678014.018 7    266157.53525        48.000
  23751137.380     6792288.768 7   5190083.57525        46.000
 96  6  6 15 45 15.0010000  0  6G26G 2G 7G27G15G19
  23357648.207    -1966856.193 7  -1394360.58126        62.000
  21495256.753     6381382.369 9    509281.75029       124.000
  20695789.323    -3685895.459 9  -1943238.97629        94.000
  21163436.508     2973409.266 9   2690895.10329       106.000
  23835257.285    -4660408.351 7    279876.26925        48.000
  23761689.475     6847765.196 6   5233311.96925        40.000
 96  6  6 15 45 30.0010000  0  6G26G 2G 7G27G15G19
  23357816.690    -1965958.559 7  -1393661.15726        60.000
  21497525.223     6393296.798 9    518565.70529       124.000
  20695116.199    -3689426.440 9  -1945990.39929        94.000
  21170552.681     3010779.899 9   2720015.06929       108.000
  23838631.929    -4642627.448 7    293731.49425        42.000
  23772262.525     6903328.043 7   5276607.66425        44.000
 96  6  6 15 45 45.0010000  0  6G26G 2G 7G27G15G19
  23358012.424    -1964906.444 7  -1392841.32526        60.000
  21499804.425     6405278.286 9    527901.92629       126.000
  20694475.363    -3692816.266 9  -1948631.82529        96.000
  21177688.341     3048295.878 9   2749248.28129       106.000
  23842052.740    -4624675.245 7    307720.20125        46.000
  23782849.396     6958972.945 7   5319967.25925        44.000
 96  6  6 15 46  0.0010000  0  6G26G 2G 7G27G15G19
  23358242.785    -1963702.791 7  -1391903.41726        58.000
  21502099.756     6417328.084 9    537291.37629       128.000
  20693854.163    -3696066.331 9  -1951164.34929        96.000
  21184855.720     3085956.241 9   2778594.01029       106.000
  23845500.893    -4606553.837 7    321840.77225        46.000
  23793461.629     7014698.561 7   5363389.81225        44.000
 96  6  6 15 46 15.0010000  0  6G26G 2G 7G27G15G19
  23358494.101    -1962375.032 7  -1390868.78526        62.000
  21504396.226     6429416.733 9    546711.11229       126.000
  20693258.535    -3699201.005 9  -1953606.93529        96.000
  21192043.034     3123735.294 9   2808032.23529       102.000
  23848984.272    -4588289.725 7    336072.53625        48.000
  23804072.184     7070478.999 7   5406855.07625        44.000
 96  6  6 15 46 30.0010000  0  6G26G 2G 7G27G15G19
  23358776.026    -1960930.571 7  -1389743.25426        62.000
  21506704.958     6441533.095 9    556152.41329       126.000
  20692687.910    -3702224.298 9  -1955962.75329        98.000
  21199252.263     3161625.793 9   2837557.27829       104.000
  23852486.717    -4569891.801 7    350408.57525        50.000
  23814699.137     7126307.603 7   5450357.84825        46.000
 96  6  6 15 46 45.0010000  0  6G26G 2G 7G27G15G19
  23359079.356    -1959324.966 7  -1388492.13826        60.000
  21509023.433     6453720.257 9    565648.89829       126.000
  20692139.380    -3705089.891 9  -1958195.68629        98.000
  21206493.000     3199669.981 9   2867202.08929       104.000
  23856026.187    -4551317.023 7    364882.44625        48.000
  23825340.390     7182226.759 6   5493931.17925        40.000
 96  6  6 15 47  0.0010000  0  6G26G 2G 7G27G15G19
  23359411.106    -1957569.583 7  -1387124.30726        60.000
  21511355.998     6465965.749 9    575190.83229       128.000
  20691617.981    -3707812.554 9  -1960317.22629        98.000
  21213758.471     3237854.491 9   2896956.24329       102.000
  23859577.078    -4532579.018 7    379483.49225        46.000
  23835989.048     7238222.007 6   5537563.80325        38.000
 96  6  6 15 47 15.0010000  0  6G26G 2G 7G27G15G19
  23359778.202    -1955651.241 7  -1385629.50426        60.000
  21513695.519     6478281.654 9    584787.63229       126.000
  20691129.049    -3710383.356 9  -1962320.45429        98.000
  21221055.869     3276190.376 9   2926828.34229       102.000
  23863169.761    -4513667.047 7    394220.08525        44.000
  23846664.358     7294304.244 6   5581264.19525        38.000
 96  6  6 15 47 30.0010000  0  6G26G 2G 7G27G15G19
  23360169.161    -1953567.976 7  -1384006.17526        60.000
  21516053.806     6490670.371 9    594441.19029       128.000
  20690667.219    -3712805.934 9  -1964208.16329       102.000
  21228378.809     3314676.964 9   2956817.89929       102.000
  23866817.126    -4494582.663 7    409091.00525        48.000
  23857343.625     7350471.865 6   5625031.17125        34.000
 96  6  6 15 47 45.0010000  0  6G26G 2G 7G27G15G19
  23360602.751    -1951327.294 7  -1382260.19226        60.000
  21518423.875     6503122.717 9    604144.31329       128.000
  20690232.100    -3715090.003 9  -1965987.96229       100.000
  21235728.431     3353305.617 9   2986918.12129       102.000
  23870466.950    -4475335.466 7    424088.81325        44.000
  23868058.087     7406715.178 7   5668857.08725        42.000
 96  6  6 15 48  0.0010000  0  6G26G 2G 7G27G15G19
  23361055.378    -1948926.616 7  -1380389.54326        58.000
  21520806.566     6515639.702 9    613897.80029       128.000
  20689825.252    -3717229.338 9  -1967654.97429       102.000
  21243108.662     3392079.519 9   3017131.54429       104.000
  23874162.161    -4455922.060 7    439216.12825        44.000
  23878772.340     7463038.352 6   5712745.24325        38.000
 96  6  6 15 48 15.0010000  0  6G26G 2G 7G27G15G19
  23361547.277    -1946349.313 7  -1378381.25526        58.000
  21523202.777     6528233.243 9    623710.94829       128.000
  20689448.473    -3719206.803 9  -1969195.84229       100.000
  21250516.234     3431009.662 9   3047466.71029       104.000
  23877893.468    -4436327.928 7    454484.29925        46.000
  23889503.111     7519456.916 6   5756707.69425        40.000
 96  6  6 15 48 30.0010000  0  6G26G 2G 7G27G15G19
  23362065.738    -1943609.942 7  -1376246.69426        56.000
  21525611.010     6540885.414 9    633569.77529       130.000
  20689101.463    -3721038.027 9  -1970622.78329       102.000
  21257950.967     3470077.550 9   3077909.19629       104.000
  23881651.727    -4416569.753 7    469880.28125        46.000
  23900255.467     7575951.789 7   5800729.64125        42.000
 96  6  6 15 48 45.0010000  0  6G26G 2G 7G27G15G19
  23362620.504    -1940699.810 7  -1373979.07726        58.000
  21528029.525     6553606.879 9    643482.58929       128.000
  20688785.392    -3722716.563 9  -1971930.73529       102.000
  21265411.902     3509288.683 9   3108463.30829       102.000
  23885453.904    -4396639.408 7    485410.40125        48.000
  23911020.085     7632530.037 6   5844816.53725        38.000
 96  6  6 15 49  0.0010000  0  6G26G 2G 7G27G15G19
  23363205.040    -1937633.853 7  -1371590.02426        56.000
  21530461.741     6566386.269 9    653440.55829       128.000
  20688487.458    -3724256.102 9  -1973130.37129       102.000
  21272898.829     3548628.846 9   3139117.97429       102.000
  23889275.209    -4376550.427 7    501064.17825        46.000
  23921803.440     7689177.101 7   5888957.12225        44.000
 96  6  6 15 49 15.0010000  0  6G26G 2G 7G27G15G19
  23363820.514    -1934398.372 7  -1369068.88426        60.000
  21532908.618     6579236.469 9    663453.69229       130.000
  20688223.041    -3725642.375 9  -1974210.59029       104.000
  21280410.938     3588111.383 9   3169883.57029       100.000
  23893126.793    -4356288.618 7    516852.58625        46.000
  23932597.827     7745908.037 6   5933162.97525        38.000
 96  6  6 15 49 30.0010000  0  6G26G 2G 7G27G15G19
  23364469.115    -1931002.461 7  -1366422.71226        60.000
  21535366.076     6592148.353 9    673514.91729       128.000
  20687988.184    -3726882.543 9  -1975176.94129       102.000
  21287951.318     3627728.382 9   3200753.96329       102.000
  23897005.897    -4335861.170 7    532770.08325        44.000
  23943410.112     7802716.024 6   5977428.94725        40.000
 96  6  6 15 49 45.0010000  0  6G26G 2G 7G27G15G19
  23365145.926    -1927442.840 7  -1363649.00426        60.000
  21537832.259     6605123.322 9    683625.26029       130.000
  20687784.475    -3727972.364 9  -1976026.15029       104.000
  21295516.551     3667482.321 9   3231731.03129       102.000
  23900933.508    -4315263.781 7    548819.94225        46.000
  23954235.078     7859604.540 7   6021757.63625        42.000
 96  6  6 15 50  0.0010000  0  7G26G 2G 7G27G 4G15G19
  23365853.256    -1923723.773 7  -1360751.02926        60.000
  21540313.671     6618156.809 9    693781.21529       128.000
  20687605.948    -3728911.643 9  -1976758.05429       102.000
  21303104.927     3707372.163 9   3262814.00629       100.000
  25003030.242      372643.537 6   -326753.60422        38.000
  23904896.285    -4294496.858 7    565001.94325        50.000
  23965079.261     7916572.013 6   6066147.81925        38.000
 96  6  6 15 50 15.0010000  0  7G26G 2G 7G27G 4G15G19
  23366589.667    -1919860.091 7  -1357740.37126        60.000
  21542802.098     6631237.127 9    703973.68029       126.000
  20687452.665    -3729715.312 9  -1977384.27929       102.000
  21310719.236     3747383.879 9   3293991.98029        98.000
  24994854.662      329697.106 6   -360218.44522        34.000
  23908867.695    -4273573.429 7    581305.93025        48.000
  23975930.938     7973604.946 7   6110589.02125        44.000
 96  6  6 15 50 30.0010000  0  7G26G 2G 7G27G 4G15G19
  23367352.488    -1915837.845 7  -1354606.16226        58.000
  21545304.706     6644379.660 9    714214.61529       128.000
  20687326.722    -3730370.516 9  -1977894.82529       104.000
  21318360.166     3787531.080 9   3325275.50729       100.000
  24986679.202      286758.548 6   -393677.06422        26.000
  23912881.826    -4252478.980 7    597743.19525        48.000
  23986798.505     8030716.074 6   6155091.17325        40.000
 96  6  6 15 50 45.0010000  0  7G26G 2G 7G27G 4G15G19
  23368144.930    -1911670.962 8  -1351359.25326        64.000
  21547814.568     6657575.699 9    724497.21929       128.000
  20687227.341    -3730890.073 9  -1978299.67729       104.000
  21326024.061     3827807.456 9   3356659.66529       102.000
  24978505.960      243817.250 6   -427137.76022        28.000
  23916931.513    -4231222.533 7    614306.63325        48.000
  23997678.093     8087895.670 6   6199646.63425        38.000
 96  6  6 15 51  0.0010000  0  7G26G 2G 7G27G 4G15G19
  23368969.359    -1907356.374 7  -1347997.25426        62.000
  21550337.862     6670833.639 9    734828.08729       128.000
  20687153.292    -3731268.237 9  -1978594.34729       100.000
  21333713.018     3868220.828 9   3388150.60929       102.000
  24970343.481      200881.206 6   -460594.31722        40.000
  23921002.904    -4209798.598 7    631000.60325        48.000
  24008574.050     8145150.512 7   6244260.76725        44.000
 96  6  6 15 51 15.0010000  0  7G26G 2G 7G27G 4G15G19
  23369816.333    -1902896.834 7  -1344522.27226        60.000
  21552872.937     6684149.118 9    745203.78429       126.000
  20687109.822    -3731508.175 9  -1978781.31729       100.000
  21341430.875     3908768.964 9   3419746.55329       102.000
  24962168.800      157946.322 6   -494050.15922        38.000
  23925114.738    -4188210.592 7    647822.39925        48.000
  24019479.390     8202474.719 6   6288929.01425        34.000
 96  6  6 15 51 30.0010000  0  7G26G 2G 7G27G 4G15G19
  23370694.545    -1898293.027 7  -1340934.91526        60.000
  21555415.536     6697520.740 9    755623.21629       126.000
  20687089.886    -3731614.244 9  -1978863.96329       100.000
  21349172.475     3949452.834 9   3451448.24529       102.000
  24954003.833      115011.057 6   -527506.28222        32.000
  23929249.505    -4166459.644 7    664771.16025        48.000
  24030404.877     8259866.428 7   6333649.73925        42.000
 96  6  6 15 51 45.0010000  0  7G26G 2G 7G27G 4G15G19
  23371593.323    -1893538.772 7  -1337230.31926        60.000
  21557972.826     6710955.769 9    766092.06129       126.000
  20687096.781    -3731582.185 9  -1978838.98929        98.000
  21356939.528     3990279.476 9   3483261.19429       102.000
  24945828.163       72078.901 6   -560959.88322        22.000
  23933422.676    -4144541.428 7    681850.29125        52.000
  24041344.544     8317329.520 6   6378426.12625        38.000
 96  6  6 15 52  0.0010000  0  7G26G 2G 7G27G 4G15G19
  23372526.786    -1888637.756 7  -1333411.34026        60.000
  21560541.388     6724452.667 9    776609.12229       126.000
  20687127.450    -3731413.909 9  -1978707.86229       100.000
  21364735.182     4031247.025 9   3515183.94729       104.000
  24937666.793       29145.035 6   -594414.79322        28.000
  23937625.407    -4122459.159 7    699057.26225        50.000
  24052286.099     8374859.315 6   6423254.53224        34.000
 96  6  6 15 52 15.0010000  0  7G26G 2G 7G27G 4G15G19
  23373485.283    -1883589.518 7  -1329477.63826        58.000
  21563124.969     6738016.087 9    787178.02929       124.000
  20687185.220    -3731108.362 9  -1978469.76029       100.000
  21372558.715     4072357.574 9   3547218.14429       104.000
  24929486.925      -13791.594 6   -627871.91223        38.000
  23941862.104    -4100212.138 7    716392.62325        50.000
  24063251.188     8432458.003 7   6468136.57424        42.000
 96  6  6 15 52 30.0010000  0  7G26G 2G 7G27G 4G15G19
  23374480.594    -1878388.847 7  -1325425.18026        58.000
  21565718.654     6751648.490 9    797800.67129       126.000
  20687269.132    -3730667.754 9  -1978126.42929       100.000
  21380408.781     4113609.125 9   3579362.18829       104.000
  24921324.446      -56727.390 6   -661328.34823        38.000
  23946125.093    -4077800.192 7    733856.46925        50.000
  24074221.763     8490125.883 6   6513072.51525        36.000
 96  6  6 15 52 45.0010000  0  7G26G 2G 7G27G 4G15G19
  23375498.209    -1873031.459 7  -1321250.60226        56.000
  21568327.358     6765353.858 9    808480.18129       126.000
  20687378.826    -3730085.950 9  -1977673.07829       100.000
  21388286.907     4155007.633 9   3611620.75929       104.000
  24913141.521      -99655.562 6   -694778.92123        22.000
  23950417.731    -4055218.333 7    751452.69725        50.000
  24085208.827     8547869.485 6   6558067.56225        34.000
 96  6  6 15 53  0.0010000  0  7G26G 2G 7G27G 4G15G19
  23376553.539    -1867478.587 7  -1316923.73826        56.000
  21570953.929     6779170.648 9    819246.46629       124.000
  20687526.533    -3729324.250 9  -1977079.58129       100.000
  21396198.700     4196590.441 9   3644022.90029       102.000
  24904990.284     -142537.363 6   -728193.27223        26.000
  23954760.195    -4032429.578 7    769210.12525        50.000
  24096221.643     8605725.954 7   6603150.47124        44.000
 96  6  6 15 53 15.0010000  0  7G26G 2G 7G27G 4G15G19
  23377639.267    -1861769.027 7  -1312474.72226        56.000
  21573596.900     6793056.819 9    830066.89329       124.000
  20687695.736    -3728423.256 9  -1976377.46929       102.000
  21404140.592     4238314.952 9   3676535.52129       106.000
  24896832.092     -185411.843 6   -761601.96223        32.000
  23959126.432    -4009475.499 7    787096.45625        50.000
  24107237.906     8663654.020 6   6648289.14824        30.000
 96  6  6 15 53 30.0010000  0  7G26G 2G 7G27G 4G15G19
  23378752.516    -1855908.886 7  -1307908.38426        54.000
  21576251.772     6807001.832 9    840933.13029       124.000
  20687892.490    -3727391.910 9  -1975573.83029       102.000
  21412106.287     4280172.016 9   3709151.40029       106.000
  24888669.553     -228286.816 6   -795011.01723        32.000
  23963527.775    -3986363.398 7    805105.85425        50.000
  24118282.620     8721647.529 6   6693478.85724        38.000
 96  6  6 15 53 45.0010000  0  7G26G 2G 7G27G 4G15G19
  23379899.822    -1849895.406 7  -1303222.54626        54.000
  21578913.719     6821008.937 9    851847.76029       124.000
  20688115.146    -3726225.623 9  -1974665.04029       100.000
  21420098.275     4322165.575 9   3741873.63429       104.000
  24880519.335     -271156.796 6   -828416.14923        30.000
  23967958.408    -3963088.455 7    823242.19725        50.000
  24129326.345     8779714.377 6   6738725.80924        36.000
 96  6  6 15 54  0.0010000  0  7G26G 2G 7G27G 4G15G19
  23381073.360    -1843731.616 7  -1298419.59026        56.000
  21581592.335     6835074.477 9    862807.91129       124.000
  20688363.164    -3724923.732 9  -1973650.56729       102.000
  21428115.864     4364290.653 9   3774698.36329       104.000
  24872352.509     -314021.840 6   -861817.43023        28.000
  23972418.630    -3939651.230 7    841504.94525        50.000
  24140391.565     8837851.697 6   6784027.54024        30.000
 96  6  6 15 54 15.0010000  0  7G26G 2G 7G27G 4G15G19
  23382268.123    -1837419.036 7  -1293500.71326        54.000
  21584283.272     6849197.318 9    873812.71929       122.000
  20688637.384    -3723488.615 9  -1972532.29429       102.000
  21436152.430     4406544.292 9   3807623.26729       102.000
  24864203.250     -356882.240 6   -895215.17823        36.000
  23976897.949    -3916051.921 7    859894.02225        46.000
  24151472.134     8896058.634 6   6829383.52224        40.000
 96  6  6 15 54 30.0010000  0  7G26G 2G 7G27G 4G15G19
  23383504.497    -1830958.083 7  -1288466.22726        58.000
  21586978.136     6863373.147 9    884858.80829       122.000
  20688933.489    -3721924.057 9  -1971313.17729       102.000
  21444216.308     4448922.913 9   3840645.54329       104.000
  24856045.538     -399737.288 6   -928608.81523        32.000
  23981421.997    -3892291.773 7    878408.38725        48.000
  24162556.660     8954333.464 6   6874792.49024        34.000
 96  6  6 15 54 45.0010000  0  7G26G 2G 7G27G 4G15G19
  23384760.597    -1824349.782 7  -1283316.90426        58.000
  21589683.193     6877599.929 9    895944.60329       122.000
  20689257.475    -3720228.656 9  -1969992.08229       102.000
  21452308.966     4491428.692 9   3873766.91929       102.000
  24847890.433     -442585.282 6   -961996.78023        28.000
  23985981.660    -3868370.772 7    897048.14125        52.000
  24173659.114     9012674.824 6   6920253.21824        30.000
 96  6  6 15 55  0.0010000  0  7G26G 2G 7G27G 4G15G19
  23386042.480    -1817598.377 7  -1278056.11026        58.000
  21592400.212     6891874.356 9    907067.53429       122.000
  20689603.496    -3718403.521 9  -1968569.90029       100.000
  21460422.069     4534063.185 9   3906988.57529       104.000
  24839741.895     -485427.524 6   -995380.28523        36.000
  23990559.491    -3844290.646 7    915811.83725        50.000
  24184774.699     9071080.280 7   6965763.90624        44.000
 96  6  6 15 55 15.0010000  0  7G26G 2G 7G27G 4G15G19
  23387353.982    -1810697.208 7  -1272678.54626        62.000
  21595127.215     6906201.227 9    918231.32729       122.000
  20689978.176    -3716448.006 9  -1967046.12129       100.000
  21468559.995     4576829.950 9   3940313.31829       102.000
  24831587.959     -528258.069 6  -1028754.76323        40.000
  23995160.226    -3820047.329 7    934702.75525        46.000
  24195903.954     9129551.733 6   7011326.06324        30.000
 96  6  6 15 55 30.0010000  0  7G26G 2G 7G27G 4G15G19
  23388695.103    -1803654.703 7  -1267190.90026        60.000
  21597860.542     6920571.013 9    929428.55929       122.000
  20690373.453    -3714372.774 9  -1965429.05929       102.000
  21476721.425     4619721.871 9   3973735.57829       102.000
  24823438.761     -571086.933 6  -1062127.92523        34.000
  23999814.384    -3795648.821 7    953714.56725        48.000
  24207033.509     9188081.130 6   7056933.39524        34.000
 96  6  6 15 55 45.0010000  0  7G26G 2G 7G27G 4G15G19
  23390067.044    -1796467.449 7  -1261590.42626        60.000
  21600604.123     6934989.469 9    940663.72129       122.000
  20690789.954    -3712171.745 9  -1963713.96129       100.000
  21484907.438     4662744.060 9   4007259.36329       100.000
  24815289.563     -613908.390 6  -1095495.28223        24.000
  24004491.147    -3771090.176 7    972851.16425        50.000
  24218186.598     9246672.044 6   7102588.62324        38.000
 96  6  6 15 56  0.0010000  0  7G26G 2G 7G27G 4G15G19
  23391462.038    -1789138.913 7  -1255879.90626        62.000
  21603359.336     6949453.412 9    951934.31129       122.000
  20691233.047    -3709848.391 9  -1961903.57529       100.000
  21493119.053     4705892.650 9   4040881.60729       100.000
  24807136.827     -656724.644 6  -1128858.56124        30.000
  24009195.340    -3746375.622 7    992109.24025        50.000
  24229341.486     9305318.500 6   7148287.09124        26.000
 96  6  6 15 56 15.0010000  0  7G26G 2G 7G27G 4G15G19
  23392888.750    -1781664.032 7  -1250055.33326        60.000
  21606121.743     6963967.824 9    963244.25229       120.000
  20691695.357    -3707400.381 9  -1959996.03429       100.000
  21501354.322     4749169.487 9   4074603.81029       100.000
  24798998.571     -699531.831 6  -1162214.80724        38.000
  24013927.954    -3721504.133 7   1011489.62225        50.000
  24240522.276     9364021.824 7   7194029.85924        42.000
 96  6  6 15 56 30.0010000  0  7G26G 2G 7G27G 4G15G19
  23394334.619    -1774038.271 7  -1244113.18326        58.000
  21608894.314     6978535.528 9    974595.71529       122.000
  20692187.737    -3704825.972 9  -1957989.98129       100.000
  21509615.823     4792578.179 9   4108428.77929       100.000
  24790855.248     -742325.672 6  -1195560.60624        36.000
  24018689.138    -3696474.455 7   1030993.26025        52.000
  24251696.770     9422787.264 6   7239821.14824        34.000
 96  6  6 15 56 45.0010000  0  7G26G 2G 7G27G 4G15G19
  23395813.825    -1766263.794 7  -1238055.16726        58.000
  21611673.480     6993155.582 9    985987.93629       120.000
  20692701.431    -3702124.117 9  -1955884.65529       102.000
  21517901.877     4836120.230 9   4142357.60729        98.000
  24782714.774     -785106.895 6  -1228896.61824        36.000
  24023481.800    -3671287.964 7   1050619.06425        48.000
  24262895.637     9481614.874 6   7285660.74924        28.000
 96  6  6 15 57  0.0010000  0  7G26G 2G 7G27G 4G15G19
  23397321.451    -1758342.498 7  -1231882.73026        60.000
  21614464.637     7007827.984 9    997420.97029       120.000
  20693243.096    -3699297.058 9  -1953681.75529       102.000
  21526207.926     4879791.940 9   4176387.49629        96.000
  24774570.582     -827882.581 6  -1262228.25624        40.000
  24028300.244    -3645948.200 7   1070364.33925        48.000
  24274093.545     9540502.566 6   7331547.22424        36.000
 96  6  6 15 57 15.0010000  0  7G26G 2G 7G27G 4G15G19
  23398858.517    -1750268.544 7  -1225591.34426        62.000
  21617272.014     7022562.351 9   1008902.28329       114.000
  20693801.040    -3696339.991 9  -1951377.55029       100.000
  21534545.964     4923594.845 9   4210519.61029        98.000
  24766429.598     -870649.885 7  -1295553.45924        42.000
  24033154.333    -3620449.654 7   1090233.34625        48.000
  24285316.096     9599456.053 6   7377485.05024        34.000
 96  6  6 15 57 30.0010000  0  7G26G 2G 7G27G 4G15G19
  23400423.524    -1742050.742 7  -1219187.86026        60.000
  21620085.866     7037354.299 9   1020428.48229       114.000
  20694390.132    -3693256.391 9  -1948974.74629       100.000
  21542902.049     4967520.116 9   4244747.09929        96.000
  24758296.108     -913415.819 6  -1328877.58824        30.000
  24038029.678    -3594798.471 7   1110221.25125        48.000
  24296544.402     9658469.716 6   7423469.61724        38.000
 96  6  6 15 57 45.0010000  0  7G26G 2G 7G27G 4G15G19
  23402020.698    -1733686.005 7  -1212669.90726        62.000
  21622912.849     7052207.654 9   1032002.52829       114.000
  20694998.591    -3690035.450 9  -1946464.92329        98.000
  21551286.675     5011571.955 9   4279073.18829        96.000
  24750159.291     -956174.372 6  -1362195.89524        30.000
  24042949.243    -3568990.360 7   1130331.45425        46.000
  24307794.774     9717550.059 6   7469506.13724        40.000
 96  6  6 15 58  0.0010000  0  7G26G 2G 7G27G 4G15G19
  23403636.909    -1725170.816 8  -1206034.70126        68.000
  21625751.884     7067125.986 9   1043627.19629       116.000
  20695644.493    -3686671.995 9  -1943844.05229       102.000
  21559693.395     5055750.544 9   4313498.05329        96.000
  24742023.733     -998923.555 6  -1395506.88924        36.000
  24047890.182    -3543023.550 7   1150565.35225        46.000
  24319044.906     9776701.838 6   7515598.47824        30.000
 96  6  6 15 58 15.0010000  0  7G26G 2G 7G27G 4G15G19
  23405281.781    -1716505.886 8  -1199282.81526        64.000
  21628603.629     7082108.304 9   1055301.72129       116.000
  20696307.215    -3683168.438 9  -1941113.99929       100.000
  21568124.368     5100054.567 9   4348020.65629        96.000
  24733896.600    -1041667.417 6  -1428813.76024        40.000
  24052851.357    -3516899.922 7   1170921.38325        46.000
  24330313.864     9835924.196 6   7561745.73724        36.000
 96  6  6 15 58 30.0010000  0  7G26G 2G 7G27G 4G15G19
  23406958.760    -1707691.556 8  -1192414.50526        64.000
  21631464.549     7097156.453 9   1067027.53529       116.000
  20697004.142    -3679523.905 9  -1938274.11329       104.000
  21576581.184     5144486.500 9   4382642.91728        96.000
  24725756.185    -1084406.081 6  -1462116.63024        32.000
  24057859.870    -3490617.981 7   1191400.79125        50.000
  24341606.506     9895219.341 6   7607949.66024        36.000
 96  6  6 15 58 45.0010000  0  7G26G 2G 7G27G 4G15G19
  23408663.559    -1698730.522 8  -1185431.88626        66.000
  21634339.558     7112268.325 9   1078803.02729       116.000
  20697723.134    -3675738.674 9  -1935324.57929       104.000
  21585056.706     5189046.803 9   4417365.20828        94.000
  24717622.486    -1127142.315 6  -1495417.52124        36.000
  24062898.332    -3464177.442 7   1212003.83425        50.000
  24352894.142     9954586.640 6   7654209.89924        32.000
 96  6  6 15 59  0.0010000  0  7G26G 2G 7G27G 4G15G19
  23410396.090    -1689631.630 8  -1178341.86426        66.000
  21637228.568     7127437.608 9   1090623.24429       114.000
  20698468.389    -3671820.724 9  -1932271.62429       104.000
  21593563.767     5233727.210 9   4452181.10928        98.000
  24709494.033    -1169884.867 7  -1528723.42024        42.000
  24067952.323    -3437586.113 7   1232724.32225        48.000
  24364210.108    10014014.111 6   7700516.98324        38.000
 96  6  6 15 59 15.0010000  0  7G26G 2G 7G27G 4G15G19
  23412154.343    -1680393.300 7  -1171143.18126        62.000
  21640123.694     7142665.813 9   1102489.36529       118.000
  20699240.684    -3667765.798 9  -1929111.94429       104.000
  21602088.156     5278530.119 9   4487092.44728        94.000
  24701357.876    -1212626.449 6  -1562028.57224        40.000
  24073051.253    -3410840.440 7   1253565.12525        54.000
  24375528.892    10073504.918 6   7746873.39024        36.000
 96  6  6 15 59 30.0010000  0  7G26G 2G 7G27G 4G15G19
  23413948.061    -1671016.554 8  -1163836.64926        66.000
  21643034.229     7157949.997 9   1114399.11729       112.000
  20700038.671    -3663572.662 9  -1925844.57729       102.000
  21610637.427     5323457.152 9   4522100.50528        96.000
  24693225.526    -1255359.906 6  -1595327.34424        34.000
  24078158.548    -3383939.524 7   1274526.87225        50.000
  24386860.358    10133058.638 6   7793278.80124        36.000
 96  6  6 15 59 45.0010000  0  7G26G 2G 7G27G 4G15G19
  23415751.942    -1661498.009 8  -1156419.60426        64.000
  21645951.420     7173286.636 9   1126349.74629       112.000
  20700862.081    -3659241.529 9  -1922469.66329       102.000
  21619211.281     5368513.446 9   4557209.29828       100.000
  24685098.932    -1298081.391 7  -1628616.74424        42.000
  24083309.402    -3356882.300 7   1295610.41825        50.000
  24398205.884    10192676.701 6   7839734.45624        36.000
 96  6  6 16  0  0.0010000  0  7G26G 2G 7G27G 4G15G19
  23417590.060    -1651838.521 7  -1148892.72426        62.000
  21648879.642     7188672.686 9   1138338.86029       112.000
  20701713.972    -3654777.363 9  -1918991.08829       104.000
  21627808.400     5413696.551 9   4592416.88728        96.000
  24676971.228    -1340794.255 6  -1661899.45424        38.000
  24088489.066    -3329671.974 7   1316813.22225        50.000
  24409557.195    10252354.189 6   7886236.36024        36.000
 96  6  6 16  0 15.0010000  0  7G26G 2G 7G27G 4G15G19
  23419458.156    -1642045.314 8  -1141261.68226        64.000
  21651814.850     7204102.706 9   1150362.23729       112.000
  20702581.061    -3650193.558 9  -1915419.29229       104.000
  21636432.320     5458999.908 9   4627718.19728        98.000
  24668845.743    -1383505.153 6  -1695180.69624        34.000
  24093694.992    -3302314.922 7   1338130.40425        48.000
  24420923.766    10312081.002 6   7932776.67924        32.000
 96  6  6 16  0 30.0010000  0  7G26G 2G 7G27G 4G15G19
  23421335.067    -1632148.057 7  -1133549.51526        62.000
  21654755.934     7219544.354 9   1162394.71229       110.000
  20703469.346    -3645523.614 9  -1911780.35029       106.000
  21645063.284     5504393.302 9   4663089.66928        96.000
  24660710.725    -1426240.504 6  -1728480.91724        32.000
  24098921.364    -3274841.693 7   1359538.12625        50.000
  24432296.453    10371824.317 6   7979329.86824        38.000
 96  6  6 16  0 45.0010000  0  7G26G 2G 7G27G 4G15G19
  23423246.364    -1622108.654 7  -1125726.62226        58.000
  21657702.834     7235038.041 9   1174467.68829       112.000
  20704385.542    -3640727.920 9  -1908043.47629       106.000
  21653731.574     5549913.590 9   4698559.97728       100.000
  24652580.684    -1468960.610 6  -1761769.25924        40.000
  24104181.642    -3247213.912 7   1381066.28325        52.000
  24443673.307    10431621.732 6   8025925.17024        32.000
 96  6  6 16  1  0.0010000  0  7G26G 2G 7G27G 4G15G19
  23425186.561    -1611921.534 7  -1117788.62226        62.000
  21660661.516     7250588.894 9   1186585.23429       112.000
  20705322.334    -3635801.156 9  -1904204.42429       106.000
  21662416.441     5595565.313 9   4734132.75128        96.000
  24644455.978    -1511657.797 6  -1795039.81524        34.000
  24109470.671    -3219425.734 7   1402719.40525        54.000
  24455059.425    10491475.815 6   8072564.77524        28.000
 96  6  6 16  1 15.0010000  0  7G26G 2G 7G27G 4G15G19
  23427151.970    -1601594.385 8  -1109741.51926        64.000
  21663629.461     7266190.188 9   1198742.08829       114.000
  20706283.318    -3630751.882 9  -1900269.91429       104.000
  21671128.500     5641339.194 9   4769800.69828        96.000
  24636332.562    -1554339.601 6  -1828298.35824        30.000
  24114784.432    -3191485.341 7   1424491.10925        52.000
  24466462.960    10551378.789 6   8119242.37024        36.000
 96  6  6 16  1 30.0010000  0  7G26G 2G 7G27G 4G15G19
  23429139.115    -1591126.296 7  -1101584.57526        60.000
  21666608.319     7281841.884 9   1210938.20229       114.000
  20707270.115    -3625581.094 9  -1896240.73529       108.000
  21679860.915     5687234.476 9   4805563.23928        96.000
  24628209.266    -1597006.703 6  -1861545.38224        36.000
  24120127.423    -3163392.173 7   1446381.88825        50.000
  24477874.020    10611333.670 6   8165960.41724        36.000
 96  6  6 16  1 45.0010000  0  7G26G 2G 7G27G 4G15G19
  23431165.142    -1580513.998 8  -1093315.24226        66.000
  21669598.449     7297547.218 9   1223176.11729       112.000
  20708272.411    -3620291.365 9  -1892118.87729       106.000
  21688619.681     5733251.704 9   4841420.79328        96.000
  24620088.787    -1639660.752 6  -1894782.29124        36.000
  24125504.681    -3135146.708 7   1468391.31825        52.000
  24489293.235    10671338.841 6   8212717.58424        34.000
 96  6  6 16  2  0.0010000  0  7G26G 2G 7G27G 4G15G19
  23433208.767    -1569751.807 8  -1084929.13126        66.000
  21672599.432     7313311.333 9   1235459.82729       114.000
  20709304.447    -3614878.050 9  -1887900.71229       106.000
  21697397.424     5779392.241 9   4877374.44528        96.000
  24611977.602    -1682300.028 6  -1928007.65824        26.000
  24130904.992    -3106746.030 7   1490521.72625        52.000
  24500723.002    10731397.074 6   8259516.22624        36.000
 96  6  6 16  2 15.0010000  0  7G26G 2G 7G27G 4G15G19
  23435285.250    -1558843.431 8  -1076429.10126        64.000
  21675607.339     7329134.477 9   1247789.55729       112.000
  20710355.609    -3609342.103 9  -1883586.97229       104.000
  21706201.190     5825650.572 9   4913419.89028        98.000
  24603865.668    -1724926.743 6  -1961223.24824        34.000
  24136334.623    -3078192.361 7   1512771.32925        48.000
  24512158.046    10791504.735 6   8306353.27024        32.000
 96  6  6 16  2 30.0010000  0  7G26G 2G 7G27G 4G15G19
  23437389.913    -1547786.368 8  -1067813.24326        64.000
  21678631.586     7345018.813 9   1260166.95729       112.000
  20711433.483    -3603680.432 9  -1879175.29129       102.000
  21715026.090     5872029.610 9   4949559.36528        98.000
  24595760.479    -1767539.030 6  -1994427.59124        40.000
  24141814.590    -3049483.762 7   1535141.62125        52.000
  24523611.947    10851665.864 6   8353232.08124        34.000
 96  6  6 16  2 45.0010000  0  7G26G 2G 7G27G 4G15G19
  23439524.405    -1536581.361 8  -1059082.08226        64.000
  21681665.036     7360963.729 9   1272591.56029       112.000
  20712536.629    -3597890.420 9  -1874663.59429       102.000
  21723876.263     5918528.032 9   4985791.90428        98.000
  24587656.130    -1810139.399 6  -2027622.69124        32.000
  24147299.382    -3020621.247 7   1557631.92825        48.000
  24535065.008    10911879.322 6   8400151.65424        34.000
 96  6  6 16  3  0.0010000  0  7G26G 2G 7G27G 4G15G19
  23441682.311    -1525228.816 8  -1050235.94626        64.000
  21684709.908     7376971.178 9   1285064.88729       112.000
  20713662.650    -3591969.458 9  -1870049.86129       102.000
  21732748.201     5965148.482 9   5022119.50228        96.000
  24579548.633    -1852727.912 6  -2060808.51424        36.000
  24152815.174    -2991603.061 7   1580243.49325        46.000
  24546543.342    10972144.474 6   8447111.50924        32.000
 96  6  6 16  3 15.0010000  0  7G26G 2G 7G27G 4G15G19
  23443869.957    -1513728.247 7  -1041274.45526        60.000
  21687769.739     7393039.212 9   1297585.43329       110.000
  20714814.572    -3585917.788 9  -1865334.26729       100.000
  21741643.104     6011893.400 9   5058544.10628       100.000
  24571449.739    -1895302.612 6  -2093983.60524        36.000
  24158368.859    -2962428.226 7   1602977.10525        46.000
  24558014.750    11032465.291 6   8494114.62624        36.000
 96  6  6 16  3 30.0010000  0  7G26G 2G 7G27G 4G15G19
  23446090.399    -1502083.051 7  -1032200.30626        62.000
  21690840.184     7409162.678 9   1310149.16329       114.000
  20715991.557    -3579738.171 9  -1860518.96929       100.000
  21750560.850     6058758.036 9   5095062.00528       100.000
  24563351.596    -1937867.188 6  -2127150.74424        38.000
  24163957.410    -2933101.330 7   1625829.23125        50.000
  24569491.675    11092839.155 6   8541159.19923        30.000
 96  6  6 16  3 45.0010000  0  7G26G 2G 7G27G 4G15G19
  23448330.089    -1490292.612 7  -1023012.97626        62.000
  21693915.035     7425341.837 9   1322756.29629       112.000
  20717191.956    -3573428.168 9  -1855602.09329       100.000
  21759502.700     6105744.028 9   5131674.44728       100.000
  24555247.246    -1980420.545 6  -2160309.14024        32.000
  24169562.540    -2903622.265 7   1648799.93525        48.000
  24580998.489    11153264.660 6   8588243.94223        30.000
 96  6  6 16  4  0.0010000  0  7G26G 2G 7G27G 4G15G19
  23450613.278    -1478312.552 7  -1013677.88326        60.000
  21697016.118     7441621.915 9   1335442.06729       114.000
  20718424.313    -3566939.061 9  -1850545.64729        98.000
  21768475.008     6152897.544 9   5168417.43128        98.000
  24547164.452    -2022916.474 6  -2193422.83824        40.000
  24175207.452    -2873944.750 7   1671925.26125        54.000
  24592521.911    11213787.476 6   8635404.58023        36.000
 96  6  6 16  4 15.0010000  0  7G26G 2G 7G27G 4G15G19
  23452918.532    -1466188.018 7  -1004230.19426        60.000
  21700122.778     7457957.757 9   1348171.29529       114.000
  20719687.309    -3560314.901 9  -1845383.95529        98.000
  21777470.431     6200174.705 9   5205256.76228        96.000
  24539077.190    -2065400.944 6  -2226527.61824        40.000
  24180890.438    -2844112.065 7   1695171.48625        54.000
  24604050.250    11274367.106 6   8682609.42323        30.000
 96  6  6 16  4 30.0010000  0  7G26G 2G 7G27G 4G15G19
  23455253.256    -1453924.400 7   -994674.14626        62.000
  21703240.499     7474346.615 9   1360941.82929       114.000
  20720972.789    -3553560.123 9  -1840120.48429       100.000
  21786491.096     6247574.155 9   5242191.38628        96.000
  24530997.034    -2107876.804 6  -2259625.66824        34.000
  24186592.700    -2814126.964 7   1718536.48725        54.000
  24615582.067    11335003.252 6   8729858.43523        28.000
 96  6  6 16  4 45.0010000  0  7G26G 2G 7G27G 4G15G19
  23457611.244    -1441519.609 7   -985008.09826        62.000
  21706371.652     7490787.639 9   1373753.00929       114.000
  20722282.432    -3546673.436 9  -1834754.24829        98.000
  21795539.162     6295100.040 9   5279224.52628        98.000
  24522919.276    -2150340.291 6  -2292714.06824        34.000
  24192336.694    -2783987.413 7   1742021.85325        52.000
  24627129.143    11395699.450 6   8777154.08423        34.000
 96  6  6 16  5  0.0010000  0  7G26G 2G 7G27G 4G15G19
  23460004.037    -1428977.041 7   -975234.66226        62.000
  21709509.339     7507277.688 9   1386602.39329       114.000
  20723617.918    -3539658.286 9  -1829287.90729        98.000
  21804601.469     6342751.109 9   5316355.21228        98.000
  24514840.139    -2192791.405 6  -2325792.83024        40.000
  24198090.491    -2753695.210 7   1765626.15225        46.000
  24638702.151    11456454.299 6   8824495.45123        34.000
 96  6  6 16  5 15.0010000  0  8G26G 2G 9G 7G27G 4G15G19
  23462407.743    -1416293.275 7   -965351.22326        60.000
  21712656.980     7523819.293 9   1399491.94829       114.000
  25184279.126    -1522170.407 6  -1007348.69923        30.000
  20724973.669    -3532512.024 9  -1823719.38829        98.000
  21813695.223     6390530.382 9   5353585.80428        98.000
  24506766.818    -2235226.454 6  -2358859.09525        40.000
  24203889.316    -2723247.370 7   1789351.74525        50.000
  24650272.491    11517274.218 6   8871887.55223        30.000
 96  6  6 16  5 30.0010000  0  8G26G 2G 9G 7G27G 4G15G19
  23464856.028    -1403465.890 7   -955355.88426        62.000
  21715814.335     7540413.690 9   1412422.64629       116.000
  25176581.535    -1562613.301 6  -1038862.76823        30.000
  20726361.618    -3525234.232 9  -1818048.37729        98.000
  21822812.361     6438435.325 9   5390914.30828        96.000
  24498684.534    -2277645.696 6  -2391912.98525        34.000
  24209702.472    -2692644.761 7   1813197.93825        46.000
  24661855.992    11578158.977 6   8919330.15123        34.000
 96  6  6 16  5 45.0010000  0  8G26G 2G 9G 7G27G 4G15G19
  23467323.290    -1390491.746 7   -945246.16626        62.000
  21718983.231     7557064.870 9   1425397.59129       118.000
  25168895.786    -1603021.072 6  -1070349.36023        22.000
  20727772.202    -3517823.975 9  -1812274.15229       102.000
  21831951.445     6486467.134 9   5428341.69328        94.000
  24490624.553    -2320048.591 6  -2424954.16825        40.000
  24215562.245    -2661886.899 7   1837165.09725        44.000
  24673455.142    11639106.389 6   8966821.65423        32.000
 96  6  6 16  6  0.0010000  0  8G26G 2G 9G 7G27G 4G15G19
  23469816.934    -1377370.388 7   -935021.74226        58.000
  21722164.658     7573774.067 9   1438417.73929       118.000
  25161212.915    -1643393.443 6  -1101808.24123        32.000
  20729208.088    -3510284.539 9  -1806399.26429       102.000
  21841113.132     6534626.364 9   5465868.34628        90.000
  24482561.096    -2362433.768 6  -2457981.56825        40.000
  24221448.280    -2630974.105 7   1861252.99925        46.000
  24685066.494    11700116.381 6   9014361.93623        32.000
 96  6  6 16  6 15.0010000  0  8G26G 2G 9G 7G27G 4G15G19
  23472341.606    -1364105.113 7   -924685.15126        58.000
  21725353.011     7590536.989 9   1451479.73729       118.000
  25153525.367    -1683732.584 6  -1133241.28623        28.000
  20730665.829    -3502623.309 9  -1800429.48129       100.000
  21850299.283     6582910.220 9   5503492.10428        90.000
  24474491.912    -2404802.442 6  -2490996.08325        38.000
  24227360.637    -2599909.953 7   1885458.79725        48.000
  24696682.702    11761186.591 6   9061948.99123        36.000
 96  6  6 16  6 30.0010000  0  8G26G 2G 9G 7G27G 4G15G19
  23474898.086    -1350695.643 7   -914236.22026        58.000
  21728552.276     7607355.314 9   1464584.93229       118.000
  25145863.031    -1724037.939 6  -1164648.07924        24.000
  20732144.315    -3494842.252 9  -1794366.33129       102.000
  21859512.894     6631317.613 9   5541212.15028        94.000
  24466435.049    -2447154.213 6  -2523997.44725        40.000
  24233306.721    -2568695.360 7   1909781.84925        46.000
  24708316.149    11822313.910 6   9109580.69223        32.000
 96  6  6 16  6 45.0010000  0  8G26G 2G 9G 7G27G 4G15G19
  23477470.485    -1337142.352 7   -903675.25226        58.000
  21731762.874     7624228.709 9   1477733.02329       118.000
  25138204.023    -1764311.044 6  -1196029.60523        24.000
  20733649.033    -3486944.110 9  -1788211.92829       102.000
  21868752.318     6679846.757 9   5579027.04328        94.000
  24458375.039    -2489487.074 6  -2556984.06025        40.000
  24239263.987    -2537331.865 7   1934220.91325        48.000
  24719958.109    11883493.732 6   9157253.23123        30.000
 96  6  6 16  7  0.0010000  0  8G26G 2G 9G 7G27G 4G15G19
  23480083.926    -1323437.395 7   -892996.06826        58.000
  21734986.632     7641166.709 9   1490931.45529       118.000
  25130552.960    -1804544.348 6  -1227380.23323        34.000
  20735180.673    -3478922.696 9  -1781961.47429       100.000
  21878009.639     6728502.848 9   5616940.85528        96.000
  24450322.674    -2531794.543 6  -2589950.93725        38.000
  24245260.765    -2505813.383 7   1958780.80025        46.000
  24731610.143    11944730.211 6   9204969.93223        36.000
 96  6  6 16  7 15.0010000  0  8G26G 2G 9G 7G27G 4G15G19
  23482718.232    -1309584.315 7   -882201.47726        58.000
  21738223.791     7658169.374 9   1504180.28029       114.000
  25122900.488    -1844741.029 6  -1258702.34023        30.000
  20736723.105    -3470779.296 9  -1775615.97429       106.000
  21887291.543     6777280.073 9   5654949.07328        96.000
  24442281.071    -2574078.367 6  -2622899.30025        40.000
  24251292.560    -2474142.755 7   1983459.21925        44.000
  24743277.166    12006018.926 6   9252727.32323        32.000
 96  6  6 16  7 30.0010000  0  8G26G 2G 9G 7G27G 4G15G19
  23485379.130    -1295586.779 7   -871294.32926        56.000
  21741470.213     7675231.243 9   1517475.23929       118.000
  25115259.228    -1884905.131 6  -1289999.02723        34.000
  20738296.596    -3462517.072 9  -1769177.87629       108.000
  21896594.883     6826172.169 9   5693046.79128        96.000
  24434240.008    -2616343.348 7  -2655833.04825        42.000
  24257346.419    -2442325.005 7   2008252.24025        46.000
  24754938.703    12067354.133 6   9300520.98623        28.000
 96  6  6 16  7 45.0010000  0  8G26G 2G 9G 7G27G 4G15G19
  23488075.044    -1281440.735 7   -860271.43326        58.000
  21744728.478     7692356.593 9   1530819.67229       118.000
  25107615.959    -1925033.484 6  -1321267.88823        30.000
  20739893.980    -3454131.566 9  -1762643.70829       108.000
  21905921.216     6875184.893 9   5731238.50428        92.000
  24426202.632    -2658580.853 7  -2688745.37425        44.000
  24263432.625    -2410355.059 7   2033163.85925        48.000
  24766622.604    12128738.673 6   9348353.03523        34.000
 96  6  6 16  8  0.0010000  0  8G26G 2G 9G 7G27G 4G15G19
  23490791.703    -1267156.194 7   -849140.61426        56.000
  21747995.826     7709536.471 9   1544206.57929       120.000
  25099994.665    -1965135.468 6  -1352516.19923        36.000
  20741508.872    -3445629.221 9  -1756018.50629       108.000
  21915269.734     6924310.776 9   5769518.40028        94.000
  24418162.708    -2700795.408 6  -2721639.80425        40.000
  24269540.477    -2378238.489 7   2058189.73925        48.000
  24778329.679    12190168.590 6   9396220.45623        32.000
 96  6  6 16  8 15.0010000  0  8G26G 2G 9G 7G27G 4G15G19
  23493537.952    -1252731.623 7   -837900.70826        58.000
  21751278.074     7726774.613 9   1557638.92129       120.000
  25092359.371    -2005206.937 6  -1383740.63823        30.000
  20743149.786    -3437002.434 9  -1749296.30929       108.000
  21924640.857     6973553.067 9   5807889.03128        92.000
  24410140.351    -2742981.777 7  -2754512.25125        42.000
  24275681.096    -2345969.370 7   2083334.55725        48.000
  24790018.407    12251650.025 6   9444128.10023        28.000
 96  6  6 16  8 30.0010000  0  8G26G 2G 9G 7G27G 4G15G19
  23496309.024    -1238168.067 7   -826552.52926        60.000
  21754566.407     7744070.260 9   1571116.02329       114.000
  25084751.358    -2045248.364 6  -1414941.73824        34.000
  20744819.061    -3428248.369 9  -1742474.98429       110.000
  21934029.757     7022909.994 9   5846348.93428        90.000
  24402111.550    -2785142.914 6  -2787365.04625        40.000
  24281845.638    -2313548.879 7   2108597.24525        42.000
  24801720.686    12313180.953 6   9492074.16423        28.000
 96  6  6 16  8 45.0010000  0  8G26G 2G 9G 7G27G 4G15G19
  23499102.250    -1223463.925 7   -815094.77126        60.000
  21757873.238     7761424.278 9   1584638.62929       114.000
  25077140.137    -2085259.596 6  -1446119.22124        38.000
  20746510.070    -3419363.256 9  -1735551.51729       112.000
  21943449.176     7072380.919 9   5884897.67828        92.000
  24394098.097    -2827276.111 6  -2820196.10225        36.000
  24288042.738    -2280976.648 7   2133978.17725        46.000
  24813442.751    12374761.805 6   9540059.24323        32.000
 96  6  6 16  9  0.0010000  0  8G26G 2G 9G 7G27G 4G15G19
  23501926.055    -1208621.154 7   -803528.97426        60.000
  21761183.456     7778835.190 9   1598205.57129       114.000
  25069510.899    -2125243.146 6  -1477275.22124        26.000
  20748226.232    -3410345.380 9  -1728524.59329       110.000
  21952883.045     7121965.503 9   5923534.99928        92.000
  24386091.240    -2869381.964 7  -2853005.82925        44.000
  24294270.087    -2248253.738 7   2159476.56125        44.000
  24825176.208    12436393.669 6   9588084.02323        28.000
 96  6  6 16  9 15.0010000  0  8G26G 2G 9G 7G27G 4G15G19
  23504784.396    -1193642.298 7   -791857.16926        62.000
  21764507.555     7796300.934 9   1611815.23529       112.000
  25061921.233    -2165200.949 6  -1508411.25723        24.000
  20749967.067    -3401192.406 9  -1721392.41629       110.000
  21962340.898     7171664.569 9   5962261.53328        94.000
  24378080.096    -2911461.446 6  -2885795.02725        36.000
  24300523.218    -2215379.551 7   2185092.76725        44.000
  24836909.216    12498077.905 6   9636149.65723        28.000
 96  6  6 16  9 30.0010000  0  8G26G 2G 9G 7G27G 4G15G19
  23507658.297    -1178528.548 7   -780080.20126        62.000
  21767841.007     7813816.531 9   1625463.75029       112.000
  25054322.274    -2205135.671 6  -1539529.15623        34.000
  20751731.375    -3391906.034 9  -1714156.27629       110.000
  21971820.036     7221478.808 9   6001077.80228        92.000
  24370075.008    -2953516.210 7  -2918564.91125        42.000
  24306814.872    -2182355.265 7   2210825.95525        44.000
  24848651.277    12559815.406 6   9684256.70223        28.000
 96  6  6 16  9 45.0010000  0  8G26G 2G 9G 7G27G 4G15G19
  23510559.029    -1163276.045 7   -768195.15226        60.000
  21771182.164     7831387.658 9   1639155.54329       114.000
  25046725.203    -2245044.816 7  -1570627.19824        42.000
  20753528.511    -3382486.639 9  -1706816.47229       108.000
  21981321.358     7271412.560 9   6039987.20028        90.000
  24362080.113    -2995544.066 7  -2951313.88725        42.000
  24313126.643    -2149178.106 7   2236678.28625        46.000
  24860414.083    12621609.886 6   9732408.26923        30.000
 96  6  6 16 10  0.0010000  0  8G26G 2G 9G 7G27G 4G15G19
  23513484.583    -1147887.826 7   -756204.35326        60.000
  21774537.711     7849014.441 9   1652890.69529       114.000
  25039133.828    -2284931.112 6  -1601707.43324        34.000
  20755345.373    -3372937.013 9  -1699375.20729       108.000
  21990845.824     7321463.723 9   6078988.10128        92.000
  24354085.997    -3037546.477 6  -2984043.00225        38.000
  24319477.266    -2115849.650 7   2262648.53225        50.000
  24872187.083    12683459.536 6   9780602.79924        24.000
 96  6  6 16 10 15.0010000  0  8G26G 2G 9G 7G27G 4G15G19
  23516440.927    -1132365.402 7   -744108.97526        60.000
  21777902.552     7866696.662 9   1666669.03629       114.000
  25031538.916    -2324792.143 6  -1632767.90924        26.000
  20757184.180    -3363257.290 9  -1691832.57229       108.000
  22000395.323     7371631.629 9   6118079.94828        94.000
  24346090.442    -3079528.744 6  -3016756.43025        38.000
  24325846.477    -2082372.205 7   2288734.83525        52.000
  24883965.839    12745362.113 6   9828838.45324        30.000
 96  6  6 16 10 30.0010000  0  8G26G 2G 9G 7G27G 4G15G19
  23519422.842    -1116704.697 7   -731905.83326        60.000
  21781279.414     7884438.216 9   1680493.62429       114.000
  25023962.411    -2364622.841 6  -1663804.79224        38.000
  20759048.889    -3353448.386 9  -1684189.26229       106.000
  22009961.161     7421921.899 9   6157267.15128        92.000
  24338114.254    -3121489.172 7  -3049452.85625        46.000
  24332233.046    -2048744.597 7   2314938.19425        44.000
  24895751.790    12807318.662 6   9877116.29024        26.000
 96  6  6 16 10 45.0010000  0  8G26G 2G 9G 7G27G 4G15G19
  23522427.572    -1100901.985 7   -719592.06026        60.000
  21784669.497     7902244.363 9   1694368.53529       114.000
  25016397.478    -2404420.345 6  -1694815.82224        40.000
  20760940.190    -3343510.960 9  -1676445.81329       104.000
  22019555.809     7472336.704 9   6196551.39528        92.000
  24330138.156    -3163421.836 6  -3082127.65925        38.000
  24338668.031    -2014963.243 7   2341261.27925        46.000
  24907556.537    12869333.667 6   9925439.59224        28.000
 96  6  6 16 11  0.0010000  0  8G26G 2G 9G 7G27G 4G15G19
  23525463.960    -1084966.246 7   -707174.58526        60.000
  21788068.004     7920111.685 9   1708291.13529       116.000
  25008821.213    -2444190.614 6  -1725805.70124        30.000
  20762855.564    -3333453.163 9  -1668608.56229       104.000
  22029172.671     7522870.764 9   6235928.57228        94.000
  24322158.670    -3205331.986 7  -3114784.89725        42.000
  24345121.393    -1981033.657 7   2367699.94725        42.000
  24919365.692    12931403.102 6   9973805.38024        24.000
 96  6  6 16 11 15.0010000  0  8G26G 2G 9G 7G27G 4G15G19
  23528524.182    -1068893.774 7   -694650.62026        60.000
  21791479.433     7938045.802 9   1722265.75329       116.000
  25001276.666    -2483925.696 7  -1756768.07624        44.000
  20764792.223    -3323271.190 9  -1660674.56129        98.000
  22038814.746     7573530.968 9   6275404.02828        96.000
  24314184.820    -3247216.890 7  -3147422.40325        44.000
  24351605.424    -1946950.026 7   2394258.56025        42.000
  24931180.543    12993531.177 6  10022216.84124        24.000
 96  6  6 16 11 30.0010000  0  8G26G 2G 9G 7G27G 4G15G19
  23531604.939    -1052690.761 7   -682024.92826        58.000
  21794903.872     7956038.110 9   1736285.73429       120.000
  24993709.515    -2523634.793 6  -1787710.20725        38.000
  20766754.845    -3312975.082 9  -1652651.62929        96.000
  22048476.098     7624307.346 9   6314970.01928        96.000
  24306219.125    -3289084.564 7  -3180046.57325        44.000
  24358129.778    -1912721.975 7   2420929.74225        48.000
  24943023.094    13055708.584 6  10070666.66624        26.000
 96  6  6 16 11 45.0010000  0  8G26G 2G 9G 7G27G 4G15G19
  23534715.076    -1036353.463 7   -669294.58026        60.000
  21798341.082     7974092.609 9   1750354.17129       120.000
  24986156.214    -2563313.682 6  -1818628.76325        30.000
  20768734.734    -3302562.139 9  -1644537.65729        94.000
  22058160.203     7675202.017 9   6354628.19028        98.000
  24298262.663    -3330930.437 7  -3212653.68925        48.000
  24364665.613    -1878347.568 7   2447714.99425        44.000
  24954861.719    13117936.701 6  10119156.07724        24.000
 96  6  6 16 12  0.0010000  0  8G26G 2G 9G 7G27G 4G15G19
  23537842.810    -1019875.404 7   -656454.53826        56.000
  21801790.135     7992216.084 9   1764476.36829       122.000
  24978618.262    -2602953.321 6  -1849516.76425        38.000
  20770738.487    -3292022.061 9  -1636324.59629        96.000
  22067870.751     7726221.509 9   6394383.61828        94.000
  24290297.867    -3372744.714 7  -3245236.23725        44.000
  24371231.907    -1843819.164 7   2474620.23725        44.000
  24966723.187    13180219.621 6  10167688.15624        28.000
 96  6  6 16 12 15.0010000  0  8G26G 2G 9G 7G27G 4G15G19
  23541008.889    -1003271.531 7   -643516.46926        58.000
  21805247.911     8010392.230 9   1778639.58429       122.000
  24971087.626    -2642565.371 6  -1880383.22925        40.000
  20772769.221    -3281366.032 9  -1628021.19929        94.000
  22077599.886     7777351.537 9   6434225.16828        94.000
  24282341.345    -3414542.404 6  -3277805.86225        40.000
  24377829.080    -1809151.391 7   2501634.09525        44.000
  24978572.934    13242542.810 6  10216251.69624        24.000
 96  6  6 16 12 30.0010000  0  8G26G 2G 9G 7G27G 4G15G19
  23544197.421     -986530.328 7   -630471.37826        58.000
  21808717.889     8028632.729 9   1792852.95029       122.000
  24963550.304    -2682138.478 6  -1911219.53825        30.000
  20774818.243    -3270586.009 9  -1619621.17629        94.000
  22087351.265     7828602.455 9   6474160.94227        90.000
  24274403.560    -3456314.744 7  -3310355.69725        46.000
  24384456.712    -1774334.166 7   2528764.39825        46.000
  24990446.784    13304917.070 6  10264854.93924        28.000
 96  6  6 16 12 45.0010000  0  8G26G 2G 9G 7G27G 4G15G19
  23547404.001     -969654.602 7   -617321.48926        58.000
  21812201.597     8046934.902 9   1807114.39329       120.000
  24956018.018    -2721678.322 6  -1942029.74225        32.000
  20776895.624    -3259686.741 9  -1611128.24429        94.000
  22097126.688     7879967.305 9   6514185.48727        90.000
  24266451.445    -3498061.201 7  -3342885.38025        46.000
  24391118.460    -1739370.829 7   2556008.51625        46.000
  25002326.869    13367337.888 6  10313494.56124        24.000
 96  6  6 16 13  0.0010000  0  8G26G 2G 9G 7G27G 4G15G19
  23550642.210     -952643.812 7   -604066.34326        56.000
  21815694.659     8065295.870 9   1821421.62829       122.000
  24948504.500    -2761186.382 6  -1972815.21425        40.000
  20778991.863    -3248667.812 9  -1602542.07029        94.000
  22106919.738     7931443.087 9   6554296.44527        88.000
  24258516.389    -3539782.322 7  -3375395.31725        44.000
  24397792.680    -1704263.512 7   2583364.82425        48.000
  25014218.767    13429801.826 6  10362167.65424        24.000
 96  6  6 16 13 15.0010000  0  8G26G 2G 9G 7G27G 4G15G19
  23553906.350     -935491.980 7   -590701.31526        56.000
  21819200.822     8083714.343 9   1835773.67829       120.000
  24940987.654    -2800658.212 6  -2003572.50725        32.000
  20781111.876    -3237522.698 9  -1593857.57129        94.000
  22116741.389     7983034.868 9   6594497.82127        86.000
  24250577.015    -3581477.886 7  -3407885.35525        44.000
  24404496.069    -1669010.493 7   2610834.69625        44.000
  25026100.981    13492310.010 6  10410875.29324        28.000
 96  6  6 16 13 30.0010000  0  8G26G 2G 9G 7G27G 4G15G19
  23557190.307     -918196.671 7   -577224.45526        56.000
  21822716.608     8102187.019 9   1850167.98329       118.000
  24933486.576    -2840093.887 6  -2034301.51425        32.000
  20783256.471    -3226251.082 9  -1585074.48429        94.000
  22126574.431     8034741.332 8   6634788.57527        82.000
  24242646.755    -3623146.979 7  -3440354.76625        44.000
  24411242.898    -1633612.812 7   2638417.29425        48.000
  25038006.069    13554861.566 6  10459616.76424        26.000
 96  6  6 16 13 45.0010000  0  8G26G 2G 9G 7G27G 4G15G19
  23560515.724     -900756.676 7   -563634.85226        58.000
  21826240.698     8120713.644 9   1864604.30129       118.000
  24926002.348    -2879491.563 7  -2065000.94325        46.000
  20785428.407    -3214850.183 9  -1576190.68229        94.000
  22136434.815     8086562.377 8   6675168.58827        82.000
  24234730.075    -3664786.654 7  -3472801.23125        46.000
  24417999.741    -1598069.307 7   2666113.53825        48.000
  25049913.466    13617458.564 6  10508393.57924        24.000
 96  6  6 16 14  0.0010000  0  8G26G 2G 9G 7G27G 4G15G19
  23563864.796     -883174.271 7   -549934.29026        56.000
  21829775.971     8139294.001 9   1879082.49929       118.000
  24918502.080    -2918850.117 6  -2095669.96925        36.000
  20787617.882    -3203322.328 9  -1567207.93129        94.000
  22146318.673     8138496.656 9   6715636.82627        84.000
  24226809.469    -3706398.422 7  -3505225.94325        44.000
  24424790.519    -1562380.447 7   2693923.05025        44.000
  25061838.190    13680098.082 6  10557203.56224        26.000
 96  6  6 16 14 15.0010000  0  8G26G 2G 9G 7G27G 4G15G19
  23567231.585     -865450.512 7   -536123.55726        54.000
  21833323.025     8157927.657 9   1893602.23029       120.000
  24911008.947    -2958171.880 6  -2126310.39425        28.000
  20789838.594    -3191670.456 9  -1558128.56329        96.000
  22156225.254     8190541.678 9   6756191.36627        86.000
  24218894.408    -3747982.953 7  -3537629.50025        48.000
  24431608.639    -1526547.912 7   2721844.46925        46.000
  25073774.007    13742778.533 6  10606045.41424        26.000
 96  6  6 16 14 30.0010000  0  8G26G 2G 9G 7G27G 4G15G19
  23570636.868     -847585.955 7   -522203.15926        58.000
  21836879.973     8176618.172 9   1908166.26329       118.000
  24903544.175    -2997456.093 6  -2156921.40825        36.000
  20792076.515    -3179895.469 9  -1548953.24729        98.000
  22166151.323     8242697.548 9   6796832.29127        90.000
  24210986.003    -3789541.300 7  -3570012.56025        46.000
  24438461.625    -1490571.657 7   2749877.88825        44.000
  25085702.569    13805502.521 6  10654921.17724        26.000
 96  6  6 16 14 45.0010000  0  7G26G 2G 9G 7G27G 4G15
  23574057.679     -829580.090 7   -508172.63226        58.000
  21840446.813     8195365.753 9   1922774.76729       118.000
  24896070.499    -3036701.584 6  -2187502.28025        34.000
  20794345.674    -3167996.196 9  -1539681.07729        98.000
  22176099.786     8294965.069 9   6837560.22327        88.000
  24203080.386    -3831067.299 7  -3602370.45825        48.000
  24445323.934    -1454450.241 6   2778024.42925        40.000
 96  6  6 16 15  0.0010000  0  7G26G 2G 9G 7G27G 4G15
  23577513.717     -811435.124 7   -494033.71926        58.000
  21844025.766     8214167.148 9   1937425.19129       118.000
  24888603.928    -3075910.653 6  -2218054.78825        26.000
  20796628.624    -3155971.710 9  -1530311.34529        98.000
  22186064.497     8347341.999 9   6878373.37927        90.000
  24195189.669    -3872560.115 7  -3634702.47225        48.000
  24452232.112    -1418185.994 7   2806282.26525        46.000
 96  6  6 16 15 15.0010000  0  7G26G 2G 9G 7G27G 4G15
  23580991.459     -793153.086 7   -479787.96826        58.000
  21847612.363     8233019.880 9   1952115.64629       118.000
  24881166.617    -3115082.468 7  -2248578.19225        42.000
  20798941.582    -3143819.839 9  -1520842.35529       100.000
  22196053.792     8399829.763 9   6919272.93627        88.000
  24187296.913    -3914023.532 7  -3667011.62925        44.000
  24459154.380    -1381779.046 7   2834651.32525        42.000
 96  6  6 16 15 30.0010000  0  7G26G 2G 9G 7G27G 4G15
  23584496.063     -774736.783 7   -465437.62226        58.000
  21851209.003     8251924.815 9   1966846.74929       118.000
  24873717.134    -3154219.563 6  -2279074.62425        36.000
  20801279.664    -3131541.045 9  -1511274.46929       100.000
  22206058.196     8452426.782 9   6960257.59827        88.000
  24179409.553    -3955457.831 7  -3699298.05625        44.000
  24466117.929    -1345229.838 7   2863131.19625        46.000
 96  6  6 16 15 45.0010000  0  7G26G 2G 9G 7G27G 4G15
  23588030.586     -756182.122 7   -450979.43826        58.000
  21854818.804     8270889.357 9   1981624.30929       118.000
  24866268.670    -3193322.095 6  -2309544.09925        24.000
  20803638.371    -3119135.068 9  -1501607.47829       102.000
  22216090.391     8505134.016 9   7001328.15827        86.000
  24171530.917    -3996854.748 7  -3731555.40025        48.000
  24473103.633    -1308534.339 7   2891725.11925        48.000
 96  6  6 16 16  0.0020000  0  7G26G 2G 9G 7G27G 4G15
  23591583.097     -737488.099 7   -436412.70026        56.000
  21858441.106     8289913.974 9   1996448.67729       118.000
  24858840.563    -3232395.988 7  -2339991.34424        42.000
  20806023.370    -3106604.351 9  -1491843.28129       104.000
  22226140.183     8557952.977 9   7042485.75827        84.000
  24163662.624    -4038218.941 6  -3763787.23825        40.000
  24480108.224    -1271691.614 7   2920433.71425        46.000
 96  6  6 16 16 15.0020000  0  7G26G 2G 9G 7G27G 4G15
  23595174.401     -718659.602 7   -421741.15726        58.000
  21862070.034     8308994.138 9   2011316.34229       118.000
  24851411.436    -3271437.348 6  -2370413.22025        36.000
  20808429.804    -3093955.498 9  -1481987.02629       102.000
  22236211.111     8610873.728 9   7083722.69827        84.000
  24155800.207    -4079544.637 7  -3795989.01825        48.000
  24487151.038    -1234709.097 7   2949251.23025        46.000
 96  6  6 16 16 30.0020000  0  7G26G 2G 9G 7G27G 4G15
  23598771.221     -699695.708 7   -406964.12026        54.000
  21865710.294     8328129.018 9   2026226.64029       118.000
  24843980.210    -3310448.143 6  -2400811.12325        24.000
  20810862.140    -3081187.475 9  -1472037.91429       104.000
  22246302.635     8663899.966 9   7125041.82527        86.000
  24147938.960    -4120835.258 7  -3828163.53825        44.000
  24494217.716    -1197585.255 7   2978178.85825        46.000
 96  6  6 16 16 45.0020000  0  7G26G 2G 9G 7G27G 4G15
  23602406.684     -680594.242 7   -392079.86626        56.000
  21869362.545     8347321.178 9   2041181.56129       118.000
  24836563.525    -3349424.419 7  -2431182.17625        44.000
  20813315.342    -3068298.044 9  -1461994.20729       104.000
  22256414.335     8717033.547 9   7166444.60127        84.000
  24140091.922    -4162089.451 7  -3860309.59225        50.000
  24501298.184    -1160318.200 7   3007218.08325        46.000
 96  6  6 16 17  0.0020000  0  7G26G 2G 9G 7G27G 4G15
  23606074.974     -661354.210 7   -377087.63326        56.000
  21873025.769     8366565.392 9   2056177.05029       118.000
  24829154.784    -3388369.061 6  -2461528.67625        32.000
  20815789.229    -3055293.403 9  -1451860.70929       104.000
  22266544.952     8770272.256 9   7207929.29427        86.000
  24132251.540    -4203308.911 7  -3892428.63525        48.000
  24508419.784    -1122910.419 6   3036367.02825        40.000
 96  6  6 16 17 15.0020000  0  7G26G 2G 9G 7G27G 4G15
  23609757.865     -641976.036 7   -361987.78226        56.000
  21876697.058     8385860.966 9   2071212.57429       116.000
  24821758.454    -3427282.887 6  -2491851.09725        34.000
  20818286.350    -3042176.073 9  -1441639.41629       106.000
  22276698.533     8823617.378 9   7249496.90427        88.000
  24124410.588    -4244496.680 7  -3924523.01125        44.000
  24515564.258    -1085361.973 7   3065625.56625        42.000
 96  6  6 16 17 30.0020000  0  7G26G 2G 9G 7G27G 4G15
  23613472.383     -622460.177 7   -346780.64926        56.000
  21880377.310     8405208.009 9   2086288.17729       116.000
  24814351.332    -3466166.439 7  -2522149.96224        42.000
  20820802.478    -3028950.721 9  -1431333.95629       104.000
  22286868.992     8877068.025 9   7291146.72427        90.000
  24116575.512    -4285652.782 7  -3956592.62225        48.000
  24522745.097    -1047674.369 7   3094992.49325        44.000
 96  6  6 16 17 45.0020000  0  7G26G 2G 9G 7G27G 4G15
  23617213.343     -602807.026 7   -331466.53426        58.000
  21884068.744     8424609.758 9   2101406.41729       118.000
  24806959.949    -3505017.260 6  -2552423.41824        32.000
  20823338.003    -3015622.517 9  -1420948.33229       104.000
  22297062.685     8930625.199 9   7332879.57627        88.000
  24108749.190    -4326774.246 7  -3988635.32525        44.000
  24529930.373    -1009847.381 6   3124468.06125        40.000
 96  6  6 16 18  0.0020000  0  7G26G 2G 9G 7G27G 4G15
  23620980.865     -583018.578 7   -316046.96526        58.000
  21887772.680     8444067.354 9   2116568.17129       116.000
  24799574.532    -3543828.283 6  -2582665.64325        36.000
  20825893.134    -3002191.055 9  -1410482.25329       106.000
  22307271.637     8984290.850 9   7374696.95527        86.000
  24100928.864    -4367860.224 7  -4020650.32425        42.000
  24537158.579     -971879.724 6   3154053.22125        40.000
 96  6  6 16 18 15.0020000  0  7G26G 2G 9G 7G27G 4G15
  23624770.452     -563099.584 7   -300525.67326        58.000
  21891487.768     8463578.195 9   2131771.42429       116.000
  24792199.368    -3582595.769 6  -2612874.06725        38.000
  20828469.011    -2988656.416 9  -1399935.79929       106.000
  22317502.564     9038065.534 8   7416599.28327        82.000
  24093123.917    -4408915.246 7  -4052641.24625        48.000
  24544416.824     -933773.570 7   3183746.30225        44.000
 96  6  6 16 18 30.0020000  0  7G26G 2G 9G 7G27G 4G15
  23628584.591     -543049.594 7   -284902.29426        58.000
  21895212.150     8483146.033 9   2147019.07129       118.000
  24784839.493    -3621315.241 6  -2643045.06025        36.000
  20831064.554    -2975012.953 9  -1389304.52529       106.000
  22327756.006     9091951.867 8   7458588.61527        78.000
  24085313.784    -4449938.191 7  -4084607.17825        44.000
  24551690.658     -895526.622 7   3213549.07525        44.000
 96  6  6 16 18 45.0020000  0  7G26G 2G 9G 7G27G 4G15
  23632428.200     -522873.514 7   -269180.68826        60.000
  21898944.746     8502770.363 9   2162310.76929       114.000
  24777468.316    -3659994.077 7  -2673184.36525        42.000
  20833681.922    -2961263.804 9  -1378590.89529       106.000
  22338033.881     9145945.087 8   7500661.24427        82.000
  24077515.163    -4490935.094 7  -4116552.76425        48.000
  24558992.673     -857143.800 6   3243457.76325        40.000
 96  6  6 16 19  0.0020000  0  7G26G 2G 9G 7G27G 4G15
  23636289.767     -502566.311 7   -253356.92826        60.000
  21902689.933     8522455.894 9   2177650.13229       114.000
  24770113.297    -3698630.690 6  -2703290.83325        38.000
  20836320.246    -2947404.871 9  -1367791.74429       106.000
  22348329.294     9200048.449 9   7542819.66927        86.000
  24069717.621    -4531902.051 7  -4148475.08425        48.000
  24566326.856     -818620.977 7   3273475.54325        42.000
 96  6  6 16 19 15.0020000  0  7G26G 2G 9G 7G27G 4G15
  23640179.185     -482132.386 7   -237434.40126        60.000
  21906445.553     8542196.420 9   2193032.36429       114.000
  24762766.044    -3737230.309 6  -2733368.46525        32.000
  20838979.495    -2933437.425 9  -1356908.01729       108.000
  22358644.552     9254256.482 9   7585059.68527        84.000
  24061924.276    -4572841.505 7  -4180375.89525        46.000
  24573683.493     -779962.411 7   3303599.12425        44.000
 96  6  6 16 19 30.0020000  0  7G26G 2G 9G 7G27G 4G15
  23644092.615     -461570.773 7   -221412.38426        58.000
  21910216.283     8561996.154 9   2208460.72229       114.000
  24755441.395    -3775789.380 7  -2763414.45925        42.000
  20841658.290    -2919355.390 9  -1345934.99129       106.000
  22368981.306     9308570.728 8   7627382.46627        82.000
  24054142.174    -4613750.568 7  -4212253.07125        48.000
  24581067.141     -741165.985 7   3333830.07725        46.000
 96  6  6 16 19 45.0020000  0  7G26G 2G 9G 7G27G 4G15
  23648031.289     -440882.169 7   -205291.40926        58.000
  21913991.240     8581856.434 9   2223936.26029       114.000
  24748112.878    -3814307.747 6  -2793428.73825        40.000
  20844357.711    -2905156.208 9  -1334870.70129       106.000
  22379334.099     9362990.454 8   7669787.40627        80.000
  24046361.211    -4654630.502 7  -4244107.56325        46.000
  24588479.060     -702232.146 7   3364168.10125        46.000
 96  6  6 16 20  0.0020000  0  7G26G 2G 9G 7G27G 4G15
  23651984.862     -420068.322 7   -189072.84126        54.000
  21917783.614     8601775.159 9   2239457.33929       114.000
  24740782.832    -3852784.324 6  -2823410.47625        38.000
  20847085.853    -2890834.446 9  -1323710.88829       108.000
  22389712.734     9417517.276 8   7712275.82527        80.000
  24038593.018    -4695480.809 7  -4275938.94325        50.000
  24595909.776     -663160.363 7   3394613.62525        46.000
 96  6  6 16 20 15.0020000  0  7G26G 2G 9G 7G27G 4G15
  23655974.320     -399129.135 7   -172756.58726        58.000
  21921587.801     8621746.932 9   2255019.76929       114.000
  24733471.584    -3891224.690 7  -2853363.98025        44.000
  20849832.162    -2876388.027 9  -1312453.93329       110.000
  22400110.436     9472148.352 8   7754845.48727        80.000
  24030817.991    -4736306.594 7  -4307751.18025        46.000
  24603378.296     -623954.052 7   3425163.98925        44.000
 96  6  6 16 20 30.0020000  0  7G26G 2G 9G 7G27G 4G15
  23659981.286     -378061.067 7   -156339.92426        56.000
  21925394.655     8641770.494 9   2270622.53729       114.000
  24726157.547    -3929633.007 6  -2883292.49125        38.000
  20852608.390    -2861816.150 9  -1301099.21629       110.000
  22410525.196     9526882.008 8   7797495.07227        80.000
  24023059.002    -4777106.505 7  -4339543.32725        50.000
  24610850.952     -584613.383 6   3455819.09425        40.000
 96  6  6 16 20 45.0020000  0  7G26G 2G 9G 7G27G 4G15
  23664013.314     -356859.662 7   -139819.38126        60.000
  21929218.328     8661848.894 9   2286268.03129       114.000
  24718855.802    -3968008.433 6  -2913195.35625        36.000
  20855401.466    -2847117.795 9  -1289645.97029       112.000
  22420955.995     9581720.934 8   7840226.65427        78.000
  24015294.018    -4817875.313 7  -4371311.21425        46.000
  24618371.366     -545135.571 6   3486580.96725        40.000
 96  6  6 16 21  0.0020000  0  7G26G 2G 9G 7G27G 4G15
  23668074.183     -335525.534 7   -123195.40126        58.000
  21933047.157     8681979.554 9   2301954.27229       112.000
  24711567.098    -4006352.515 7  -2943073.88925        44.000
  20858224.761    -2832297.196 9  -1278097.43829       110.000
  22431411.107     9636666.278 8   7883041.18327        78.000
  24007545.822    -4858609.830 7  -4403052.34325        52.000
  24625902.063     -505521.357 6   3517449.20025        34.000
 96  6  6 16 21 15.0020000  0  7G26G 2G 9G 7G27G 4G15
  23672158.676     -314061.468 7   -106470.18026        60.000
  21936888.638     8702157.744 9   2317677.52529       114.000
  24704267.092    -4044663.753 7  -2972926.81325        42.000
  20861066.764    -2817356.416 9  -1266455.27629       110.000
  22441892.061     9691719.225 8   7925939.57627        78.000
  23999799.485    -4899309.170 7  -4434766.13525        48.000
  24633469.874     -465772.212 6   3548422.52725        38.000
 96  6  6 16 21 30.0020000  0  7G26G 2G 9G 7G27G 4G15
  23676268.321     -292470.230 7    -89645.84226        60.000
  21940738.333     8722385.477 9   2333439.38429       112.000
  24696975.210    -4082939.748 6  -3002752.23125        36.000
  20863933.589    -2802295.999 9  -1254719.88629       112.000
  22452389.864     9746882.101 8   7968923.59927        80.000
  23992060.972    -4939970.203 7  -4466450.02425        48.000
  24641056.512     -425887.929 6   3579501.15025        32.000
 96  6  6 16 21 45.0020000  0  7G26G 2G 9G 7G27G 4G15
  23680403.058     -270753.446 7    -72723.66726        58.000
  21944593.034     8742663.329 9   2349240.30329       114.000
  24689702.185    -4121178.971 6  -3032549.00825        38.000
  20866821.730    -2787118.987 9  -1242893.64629       112.000
  22462908.262     9802156.318 8   8011994.40127        78.000
  23984334.960    -4980594.451 7  -4498105.22525        52.000
  24648676.576     -385869.280 6   3610684.49025        36.000
 96  6  6 16 22  0.0020000  0  7G26G 2G 9G 7G27G 4G15
  23684553.265     -248914.024 7    -55705.97026        58.000
  21948461.676     8762989.810 9   2365079.11129       116.000
  24682436.235    -4159381.469 6  -3062317.18725        40.000
  20869730.706    -2771827.773 9  -1230978.41629       114.000
  22473445.577     9857538.287 8   8055149.16327        78.000
  23976614.645    -5021181.184 7  -4529731.20925        50.000
  24656300.149     -345718.007 6   3641971.16325        32.000
 96  6  6 16 22 15.0020000  0  7G26G 2G 9G 7G27G 4G15
  23688731.712     -226998.939 7    -38629.29726        60.000
  21952331.337     8783318.137 9   2380919.35629       114.000
  24675169.476    -4197595.465 6  -3092094.22725        40.000
  20872650.535    -2756472.820 9  -1219013.51629       114.000
  22483994.884     9912976.048 8   8098347.37727        78.000
  23968885.306    -5061775.100 7  -4561362.83625        50.000
  24663967.940     -305482.184 6   3673323.74025        36.000
 96  6  6 16 22 30.0020000  0  7G26G 2G 9G 7G27G 4G15
  23692920.682     -204960.822 7    -21456.77326        58.000
  21956209.153     8803697.184 9   2396799.13629       116.000
  24667907.393    -4235773.833 7  -3121843.54025        50.000
  20875593.777    -2741010.867 9  -1206965.23429       112.000
  22494565.027     9968513.993 8   8141623.67427        74.000
  23961169.607    -5102327.073 7  -4592961.75625        48.000
  24671651.291     -265115.753 6   3704778.11625        40.000
 96  6  6 16 22 45.0020000  0  7G26G 2G 9G 7G27G 4G15
  23697142.630     -182797.782 7     -4186.87126        60.000
  21960099.020     8824132.352 9   2412722.64929       118.000
  24660644.891    -4273911.407 6  -3151561.23825        38.000
  20878557.316    -2725441.895 9  -1194833.56229       112.000
  22505150.009    10024155.687 8   8184980.83827        74.000
  23953459.755    -5142831.656 7  -4624523.76825        48.000
  24679361.953     -224615.886 6   3736336.48225        38.000
 96  6  6 16 23  0.0020000  0  7G26G 2G 9G 7G27G 4G15
  23701380.226     -160517.111 7     13174.67726        60.000
  21963996.082     8844621.741 9   2428688.39829       118.000
  24653386.855    -4312012.353 6  -3181250.24925        40.000
  20881541.420    -2709769.503 9  -1182621.31929       110.000
  22515761.703    10079898.665 8   8228416.89527        72.000
  23945764.562    -5183294.293 7  -4656053.08425        56.000
  24687095.879     -183986.415 7   3767995.73925        44.000
 96  6  6 16 23 15.0020000  0  7G26G 2G 9G 7G27G 4G15
  23705643.514     -138122.005 8     30625.40026        64.000
  21967903.547     8865165.005 9   2444696.12929       114.000
  24646153.673    -4350075.930 7  -3210910.15225        46.000
  20884542.822    -2693991.508 9  -1170326.78029       108.000
  22526385.418    10135741.718 8   8271930.92827        78.000
  23938066.701    -5223716.329 7  -4687550.77525        46.000
  24694852.140     -143227.368 6   3799756.05025        40.000
 96  6  6 16 23 30.0020000  0  7G26G 2G 9G 7G27G 4G15
  23709921.493     -115610.893 7     48166.51926        60.000
  21971827.201     8885764.665 9   2460747.80629       116.000
  24638914.015    -4388099.210 6  -3240538.71025        34.000
  20887566.109    -2678102.778 9  -1157945.94129       108.000
  22537032.937    10191683.216 8   8315521.68727        80.000
  23930386.138    -5264098.837 7  -4719017.60425        50.000
  24702633.882     -102337.941 7   3831617.91625        46.000
 96  6  6 16 23 45.0020000  0  7G26G 2G 9G 7G27G 4G15
  23714234.727      -92982.287 7     65799.15426        62.000
  21975755.051     8906421.946 9   2476844.38529       114.000
  24631685.239    -4426081.552 7  -3270135.25825        46.000
  20890609.302    -2662103.760 9  -1145479.17229       108.000
  22547693.377    10247720.466 8   8359187.06327        80.000
  23922705.935    -5304441.866 7  -4750453.70525        46.000
  24710438.799      -61317.929 7   3863581.58325        42.000
 96  6  6 16 24  0.0020000  0  7G26G 2G 9G 7G27G 4G15
  23718558.813      -70234.349 7     83524.79626        62.000
  21979697.202     8927134.712 9   2492984.20129       116.000
  24624468.485    -4464025.514 6  -3299701.95825        38.000
  20893676.179    -2645993.415 9  -1132925.66529       108.000
  22558376.661    10303848.928 8   8402923.50927        76.000
  23915032.388    -5344747.494 7  -4781860.68225        44.000
  24718256.457      -20168.326 6   3895646.16825        38.000
 96  6  6 16 24 15.0020000  0  7G26G 2G 9G 7G27G 4G15
  23722911.050      -47363.751 7    101346.03026        60.000
  21983650.416     8947905.171 9   2509168.97529       116.000
  24617251.611    -4501931.338 6  -3329238.88125        40.000
  20896766.679    -2629769.531 9  -1120283.66629       110.000
  22569071.517    10360070.248 8   8446732.32327        74.000
  23907372.720    -5385013.534 7  -4813236.75725        48.000
  24726130.566       21112.286 6   3927812.91925        40.000
 96  6  6 16 24 30.0020000  0  7G26G 2G 9G 7G27G 4G15
  23727285.292      -24367.576 7    119265.10526        58.000
  21987614.211     8968732.787 9   2525398.26729       116.000
  24610044.301    -4539797.977 7  -3358745.41525        44.000
  20899872.260    -2613432.995 9  -1107553.90129       106.000
  22579790.956    10416390.636 8   8490618.29827        78.000
  23899723.606    -5425241.376 7  -4844583.13125        46.000
  24734006.474       62524.707 7   3960082.30625        44.000
 96  6  6 16 24 45.0020000  0  7G26G 2G 9G 7G27G 4G15
  23731686.216       -1250.033 7    137278.77426        60.000
  21991586.731     8989614.686 9   2541669.88129       116.000
  24602848.832    -4577624.151 6  -3388220.35025        32.000
  20903002.662    -2596986.443 9  -1094738.41229       108.000
  22590530.601    10472809.802 8   8534581.25727        82.000
  23892072.782    -5465436.868 7  -4875904.26125        48.000
  24741906.634      104067.121 6   3992452.99625        34.000
 96  6  6 16 25  0.0020000  0  7G26G 2G 9G 7G27G 4G15
  23736113.760       21988.638 7    155386.82226        62.000
  21995571.723     9010551.212 9   2557984.05329       116.000
  24595665.175    -4615406.880 7  -3417661.38825        50.000
  20906150.993    -2580428.699 9  -1081836.27129       106.000
  22601283.977    10529329.609 8   8578622.64127        80.000
  23884430.383    -5505600.911 7  -4907200.90025        46.000
  24749831.858      145741.851 6   4024926.76725        34.000
 96  6  6 16 25 15.0020000  0  7G26G 2G 9G 7G27G 4G15
  23740567.507       45392.212 7    173623.33526        62.000
  21999575.091     9031583.838 9   2574373.10829       116.000
  24588479.150    -4653101.547 6  -3447033.85225        40.000
  20909330.112    -2563716.781 9  -1068813.98729       106.000
  22612063.194    10585989.299 8   8622773.05127        74.000
  23876801.025    -5545688.848 7  -4938438.24025        46.000
  24757802.890      187591.809 6   4057537.08825        34.000
 96  6  6 16 25 30.0020000  0  7G26G 2G 9G 7G27G 4G15
  23745042.509       68912.705 7    191950.98326        60.000
  22003586.134     9052661.142 9   2590796.98629       114.000
  24581319.746    -4690758.142 6  -3476376.59325        40.000
  20912532.765    -2546903.949 9  -1055713.08029       104.000
  22622868.464    10642735.169 8   8666990.59827        76.000
  23869178.592    -5585751.919 7  -4969656.16025        50.000
  24765791.070      229564.159 6   4090242.80025        32.000
 96  6  6 16 25 45.0020000  0  7G26G 2G 9G 7G27G 4G15
  23749534.270       92557.356 7    210375.36326        58.000
  22007603.653     9073788.580 9   2607259.90929       114.000
  24574166.698    -4728370.528 7  -3505684.90625        50.000
  20915750.527    -2529989.008 9  -1042532.61229       104.000
  22633678.560    10699570.664 8   8711277.96327        76.000
  23861558.767    -5625783.482 7  -5000849.57925        46.000
  24773800.055      271663.667 6   4123047.58925        40.000
 96  6  6 16 26  0.0020000  0  7G26G 2G 9G 7G27G 4G15
  23754060.896      116326.412 7    228896.69126        62.000
  22011636.761     9094965.411 9   2623761.33729       114.000
  24567025.342    -4765938.990 6  -3534959.04325        34.000
  20918987.087    -2512974.153 9  -1029274.27629       106.000
  22644512.730    10756497.402 8   8755636.43527        78.000
  23853948.715    -5665782.966 7  -5032017.94825        50.000
  24781835.452      313890.977 6   4155951.99525        40.000
 96  6  6 16 26 15.0020000  0  7G26G 2G 9G 7G27G 4G15
  23758605.210      140192.682 7    247493.77026        60.000
  22015671.128     9116165.022 9   2640280.51529       114.000
  24559869.656    -4803490.063 7  -3564219.55725        42.000
  20922238.756    -2495887.452 9  -1015959.96229       102.000
  22655360.780    10813492.258 8   8800047.98927        80.000
  23846332.038    -5705777.878 7  -5063182.79025        48.000
  24789893.004      356218.697 6   4188934.62325        40.000
 96  6  6 16 26 30.0020000  0  7G26G 2G 9G 7G27G 4G15
  23763169.730      164161.404 7    266170.69426        60.000
  22019708.013     9137395.852 9   2656824.00629       114.000
  24552727.371    -4841017.502 7  -3593461.69825        44.000
  20925508.682    -2478723.304 9  -1002585.31029       106.000
  22666216.775    10870564.137 8   8844519.55627        72.000
  23838724.145    -5745759.811 7  -5094337.53325        48.000
  24797973.040      398653.422 7   4222000.61125        42.000
 96  6  6 16 26 45.0020000  0  7G26G 2G 9G 7G27G 4G15
  23767752.837      188256.350 7    284945.96226        56.000
  22023762.826     9158686.074 9   2673413.79029       114.000
  24545595.488    -4878493.920 7  -3622664.15825        46.000
  20928792.848    -2461452.294 9   -989127.37629       106.000
  22677099.930    10927738.888 8   8889071.30027        72.000
  23831127.853    -5785700.487 7  -5125460.12725        50.000
  24806068.036      441222.865 6   4255171.57125        40.000
 96  6  6 16 27  0.0020000  0  7G26G 2G 9G 7G27G 4G15
  23772355.221      212466.839 7    303811.25626        58.000
  22027821.836     9180027.055 9   2690043.11829       112.000
  24538474.188    -4915934.355 7  -3651838.45925        50.000
  20932099.019    -2444081.689 9   -975591.83229       108.000
  22687997.266    10985001.961 8   8933691.85126        78.000
  23823532.222    -5825607.555 7  -5156556.49925        50.000
  24814197.449      483916.032 7   4288438.94825        44.000
 96  6  6 16 27 15.0020000  0  7G26G 2G 9G 7G27G 4G15
  23776986.865      236798.795 7    322771.18226        58.000
  22031894.966     9201421.605 9   2706714.18529       112.000
  24531353.188    -4953341.872 6  -3680987.13625        40.000
  20935423.718    -2426606.718 9   -961974.98129       110.000
  22698911.361    11042356.798 8   8978383.91226        76.000
  23815949.092    -5865474.643 7  -5187621.74625        52.000
  24822340.591      526734.193 6   4321803.75325        38.000
 96  6  6 16 27 30.0020000  0  7G26G 2G 9G 7G27G 4G15
  23781635.147      261256.422 7    341829.05926        58.000
  22035975.801     9222874.302 9   2723430.56829       112.000
  24524240.612    -4990713.511 7  -3710107.85225        48.000
  20938770.481    -2409023.178 9   -948273.51729       110.000
  22709843.023    11099809.790 8   9023152.44226        72.000
  23808370.758    -5905296.503 7  -5218651.73425        54.000
  24830512.904      569679.955 7   4355267.97725        42.000
 96  6  6 16 27 45.0020000  0  7G26G 2G 9G 7G27G 4G15
  23786312.389      285839.423 7    360984.65126        58.000
  22040069.467     9244385.897 9   2740192.85129       112.000
  24517131.993    -5028050.357 7  -3739201.49525        42.000
  20942134.722    -2391330.727 9   -934487.19129       112.000
  22720796.150    11157362.600 8   9067998.77526        74.000
  23800801.748    -5945073.307 7  -5249646.64125        52.000
  24838703.923      612753.544 6   4388831.80625        34.000
 96  6  6 16 28  0.0020000  0  7G26G 2G 9G 7G27G 4G15
  23791018.860      310543.713 7    380234.72526        58.000
  22044173.057     9265951.670 9   2756997.34429       114.000
  24510037.314    -5065357.413 7  -3768271.89425        44.000
  20945522.826    -2373528.539 9   -920615.36829       112.000
  22731765.646    11215015.008 8   9112922.71526        72.000
  23793236.605    -5984804.093 7  -5280605.66225        52.000
  24846938.802      655952.515 6   4422493.33725        36.000
 96  6  6 16 28 15.0020000  0  7G26G 2G 9G 7G27G 4G15
  23795750.455      335391.697 7    399596.78926        56.000
  22048293.284     9287595.955 9   2773863.02329       112.000
  24502954.837    -5102612.144 7  -3797301.60725        46.000
  20948936.353    -2355591.715 9   -906638.60629       114.000
  22742761.554    11272790.577 8   9157942.62326        74.000
  23785689.660    -6024466.118 7  -5311511.11625        52.000
  24855181.626      699299.608 6   4456270.26325        36.000
 96  6  6 16 28 30.0020000  0  7G26G 2G 9G 7G27G 4G15
  23800504.953      360382.777 7    419070.30325        58.000
  22052423.795     9309321.033 9   2790791.64229       112.000
  24495868.103    -5139816.183 7  -3826291.74625        44.000
  20952377.791    -2337518.738 9   -892555.76929       112.000
  22753777.488    11330685.917 8   9203055.83326        72.000
  23778156.595    -6064056.989 7  -5342361.12125        52.000
  24863453.170      742793.945 6   4490161.92525        34.000
 96  6  6 16 28 45.0020000  0  7G26G 2G 9G 7G27G 4G15
  23805289.611      385496.514 7    438639.43725        56.000
  22056573.612     9331105.423 9   2807766.47529       112.000
  24488787.815    -5176988.842 7  -3855257.39825        46.000
  20955835.027    -2319331.569 9   -878383.95829       112.000
  22764808.951    11388676.897 8   9248243.59226        68.000
  23770638.849    -6103597.176 7  -5373171.62925        54.000
  24871743.780      786414.083 6   4524151.61425        28.000
 96  6  6 16 29  0.0020000  0  7G26G 2G 9G 7G27G 4G15
  23810078.136      410732.979 7    458304.18026        52.000
  22060729.755     9352945.330 9   2824784.58129       112.000
  24481726.324    -5214125.496 7  -3884195.02125        44.000
  20959320.085    -2301033.664 9   -864125.84529       112.000
  22775863.768    11446762.091 8   9293504.75926        68.000
  23763121.194    -6143087.497 7  -5403943.31225        52.000
  24880075.462      830158.737 6   4558238.34925        36.000
 96  6  6 16 29 15.0020000  0  7G26G 2G 9G 7G27G 4G15
  23814906.533      436089.021 7    478062.14626        54.000
  22064892.673     9374836.259 9   2841842.44529       112.000
  24474663.033    -5251224.854 7  -3913103.58125        46.000
  20962822.590    -2282633.813 9   -849788.29129       114.000
  22786936.602    11504935.351 8   9338834.53926        70.000
  23755612.532    -6182531.868 7  -5434679.12826        52.000
  24888424.083      874023.447 6   4592418.68525        32.000
 96  6  6 16 29 30.0020000  0  7G26G 2G 9G 7G27G 4G15
  23819759.004      461564.938 7    497913.49526        56.000
  22069068.302     9396781.474 9   2858942.60829       110.000
  24467626.545    -5288274.751 7  -3941973.58025        44.000
  20966343.293    -2264129.125 9   -835369.05429       112.000
  22798022.987    11563201.313 8   9384236.57026        68.000
  23748120.149    -6221924.648 7  -5465374.76826        52.000
  24896803.791      918013.074 6   4626696.28125        40.000
 96  6  6 16 29 45.0020000  0  7G26G 2G 9G 7G27G 4G15
  23824631.980      487146.664 7    517847.27526        56.000
  22073255.593     9418768.900 9   2876075.66529       110.000
  24460576.235    -5325284.356 7  -3970812.20625        46.000
  20969880.124    -2245531.500 9   -820877.39729       114.000
  22809126.310    11621544.601 8   9429698.84226        68.000
  23740628.215    -6261278.805 7  -5496040.35726        50.000
  24905196.331      962115.415 6   4661061.70625        40.000
 96  6  6 16 30  0.0020000  0  7G26G 2G 9G 7G27G 4G15
  23829518.538      512844.574 7    537871.59625        56.000
  22077449.480     9440808.152 9   2893249.11429       110.000
  24453535.040    -5362243.827 7  -3999611.84025        42.000
  20973441.119    -2226830.799 9   -806305.40929       112.000
  22820241.086    11679971.534 8   9475226.30026        68.000
  23733146.924    -6300584.786 7  -5526668.36226        52.000
  24913609.347     1006339.689 7   4695522.21025        42.000
 96  6  6 16 30 15.0020000  0  7G26G 2G 9G 7G27G 4G15
  23834432.556      538655.647 7    557984.10325        56.000
  22081651.191     9462897.644 9   2910461.68729       110.000
  24446516.869    -5399153.523 7  -4028372.66125        54.000
  20977020.551    -2208029.651 9   -791655.16829       112.000
  22831380.444    11738480.914 8   9520817.99626        68.000
  23725680.323    -6339845.417 7  -5557261.05625        52.000
  24922041.010     1050683.795 6   4730076.02925        40.000
 96  6  6 16 30 30.0020000  0  7G26G 2G 9G 7G27G 4G15
  23839357.007      564579.907 7    578184.81025        54.000
  22085864.684     9485039.341 9   2927714.94129       114.000
  24439511.049    -5436009.196 7  -4057091.31625        46.000
  20980616.531    -2189128.073 9   -776926.67329       112.000
  22842524.180    11797071.940 8   9566473.34126        64.000
  23718210.035    -6379062.997 7  -5587820.20026        48.000
  24930511.256     1095148.795 6   4764724.01125        38.000
 96  6  6 16 30 45.0020000  0  7G26G 2G 9G 7G27G 4G15
  23844316.473      590614.970 7    598471.84525        54.000
  22090085.042     9507231.114 9   2945007.23529       112.000
  24432501.211    -5472812.630 7  -4085769.28625        50.000
  20984232.238    -2170128.240 9   -762121.59929       110.000
  22853692.618    11855742.410 8   9612190.55426        70.000
  23710763.100    -6418237.336 7  -5618345.65726        54.000
  24938993.254     1139733.226 7   4799465.15725        44.000
 96  6  6 16 31  0.0020000  0  7G26G 2G 9G 7G27G 4G15
  23849292.608      616761.112 7    618845.47925        54.000
  22094317.842     9529473.533 9   2962338.98429       112.000
  24425511.011    -5509559.363 7  -4114403.08825        46.000
  20987865.633    -2151029.865 9   -747239.74929       110.000
  22864876.525    11914496.209 8   9657972.70526        72.000
  23703310.530    -6457368.507 7  -5648837.41626        52.000
  24947499.955     1184438.784 6   4834300.63225        38.000
 96  6  6 16 31 15.0020000  0  7G26G 2G 9G 7G27G 4G15
  23854293.446      643017.191 7    639304.73025        54.000
  22098559.336     9551768.348 9   2979711.56029       114.000
  24418528.095    -5546251.444 7  -4142994.25725        48.000
  20991519.563    -2131830.344 9   -732279.09329       110.000
  22876064.540    11973331.484 7   9703818.35326        62.000
  23695872.169    -6496456.146 7  -5679295.30626        50.000
  24956020.297     1229265.910 6   4869230.84425        40.000
 96  6  6 16 31 30.0020000  0  7G26G 2G 9G 7G27G 4G15
  23859302.858      669378.406 7    659845.92425        56.000
  22102813.960     9574111.911 9   2997122.13629       114.000
  24411551.594    -5582899.540 7  -4171551.21625        54.000
  20995191.691    -2112531.887 9   -717241.30729       110.000
  22887278.727    12032245.106 8   9749725.05726        66.000
  23688442.832    -6535504.970 7  -5709722.93426        52.000
  24964576.673     1274208.549 6   4904251.08225        32.000
 96  6  6 16 31 45.0020000  0  7G26G 2G 9G 7G27G 4G15
  23864344.888      695854.135 7    680476.34025        56.000
  22107077.759     9596511.678 9   3014576.49229       116.000
  24404577.792    -5619501.913 7  -4200072.59225        46.000
  20998882.346    -2093126.148 9   -702119.97529       108.000
  22898505.984    12091246.957 8   9795700.49726        70.000
  23681019.761    -6574507.941 7  -5740114.83426        56.000
  24973157.903     1319272.796 6   4939366.07525        38.000
 96  6  6 16 32  0.0020000  0  7G26G 2G 9G 7G27G 4G15
  23869403.916      722441.739 7    701193.91925        56.000
  22111349.621     9618963.018 9   3032071.03729       114.000
  24397626.804    -5656068.459 7  -4228565.99725        54.000
  21002595.696    -2073621.703 9   -686921.70329       110.000
  22909749.071    12150330.611 8   9841739.68726        66.000
  23673605.114    -6613474.799 7  -5770478.62026        54.000
  24981755.321     1364451.989 6   4974570.58525        38.000
 96  6  6 16 32 15.0020000  0  7G26G 2G 9G 7G27G 4G15
  23874481.141      749147.055 7    722003.24625        54.000
  22115634.435     9641471.941 9   3049610.43129       116.000
  24390677.885    -5692593.775 7  -4257027.23025        50.000
  21006324.844    -2054014.134 9   -671643.08529       110.000
  22921012.603    12209505.599 8   9887850.04226        70.000
  23666197.872    -6652396.366 7  -5800807.10426        54.000
  24990374.144     1409752.550 6   5009869.70525        28.000
 96  6  6 16 32 30.0020000  0  7G26G 2G 9G 7G27G 4G15
  23879590.414      775970.556 7    742904.64325        56.000
  22119928.602     9664039.054 9   3067195.19129       114.000
  24383739.099    -5729076.985 7  -4285455.67725        52.000
  21010074.318    -2034304.157 9   -656284.66629       108.000
  22932288.967    12268771.020 8   9934030.86526        64.000
  23658803.731    -6691270.069 7  -5831098.27626        54.000
  24999009.126     1455174.848 6   5045263.63525        32.000
 96  6  6 16 32 45.0020000  0  7G26G 2G 9G 7G27G 4G15
  23884717.254      802910.212 7    763896.55925        54.000
  22124231.763     9686660.671 9   3084822.42429       116.000
  24376800.222    -5765521.456 7  -4313853.94925        52.000
  21013845.168    -2014495.316 9   -640849.20429       108.000
  22943581.039    12328123.277 8   9980279.34426        66.000
  23651414.926    -6730096.073 7  -5861352.26826        52.000
  25007683.081     1500715.101 6   5080749.58325        38.000
 96  6  6 16 33  0.0020000  0  7G26G 2G 9G 7G27G 4G15
  23889864.811      829966.261 7    784979.17425        54.000
  22128546.376     9709334.683 9   3102490.47829       114.000
  24369868.991    -5801927.139 7  -4342221.98625        48.000
  21017633.855    -1994591.117 9   -625339.43129       108.000
  22954896.646    12387563.121 8  10026596.10326        68.000
  23644037.633    -6768871.604 7  -5891566.95826        54.000
  25016377.212     1546371.912 6   5116326.28925        36.000
 96  6  6 16 33 15.0020000  0  7G26G 2G 9G 7G27G 4G15
  23895037.610      857147.890 7    806159.65625        56.000
  22132872.111     9732067.013 9   3120203.99129       114.000
  24362953.288    -5838281.805 7  -4370550.32825        56.000
  21021441.369    -1974581.497 9   -609747.52329       108.000
  22966222.415    12447100.410 8  10072988.76726        64.000
  23636666.996    -6807587.026 7  -5921734.80526        56.000
  25025087.682     1592153.264 6   5152000.06725        40.000
 96  6  6 16 33 30.0020000  0  7G26G 2G 9G 7G27G 4G15
  23900231.724      884445.972 7    827430.84625        56.000
  22137210.798     9754848.715 9   3137955.95929       112.000
  24356043.162    -5874595.825 7  -4398847.00325        52.000
  21025267.950    -1954474.476 9   -594079.71229       110.000
  22977568.001    12506726.637 7  10119450.73326        62.000
  23629310.119    -6846249.704 7  -5951861.53326        56.000
  25033815.720     1638050.006 6   5187763.70125        38.000
 96  6  6 16 33 45.0020000  0  7G26G 2G 9G 7G27G 4G15
  23905445.894      911859.229 7    848791.80025        56.000
  22141551.373     9777677.836 9   3155744.87929       112.000
  24349143.888    -5910869.847 7  -4427112.43125        54.000
  21029109.640    -1934271.571 9   -578337.18729       110.000
  22988933.163    12566443.061 8  10165983.00526        64.000
  23621967.242    -6884859.170 7  -5981946.81926        56.000
  25042576.345     1684060.815 7   5223616.31125        44.000
 96  6  6 16 34  0.0020000  0  7G26G 2G 9G 7G27G 4G15
  23910680.840      939388.301 7    870243.04325        56.000
  22145905.709     9800557.320 9   3173573.03829       112.000
  24342251.330    -5947097.339 7  -4455341.59025        56.000
  21032975.764    -1913970.843 9   -562518.44529       110.000
  23000318.171    12626249.398 8  10212585.31226        66.000
  23614631.351    -6923412.928 7  -6011988.69826        58.000
  25051346.294     1730188.861 6   5259560.17625        40.000
 96  6  6 16 34 15.0020000  0  7G26G 2G 9G 7G27G 4G15
  23915949.123      967032.011 7    891783.56625        58.000
  22150268.228     9823487.473 9   3191440.67929       110.000
  24335358.982    -5983272.180 7  -4483529.78425        50.000
  21036855.588    -1893570.112 9   -546621.77829       110.000
  23011713.013    12686145.560 7  10259257.62626        58.000
  23607300.316    -6961907.333 7  -6041984.31026        58.000
  25060148.560     1776436.256 6   5295597.12525        38.000
 96  6  6 16 34 30.0020000  0  7G26G 2G 9G 7G27G 4G15
  23921227.419      994782.732 7    913407.49825        58.000
  22154642.710     9846462.844 9   3209343.56329       110.000
  24328493.225    -6019396.312 7  -4511678.40825        52.000
  21040759.215    -1873071.135 9   -530648.54729       112.000
  23023126.291    12746126.870 8  10305996.27626        64.000
  23599982.652    -7000344.936 7  -6071935.66826        52.000
  25068960.510     1822798.089 6   5331723.23225        34.000
 96  6  6 16 34 45.0020000  0  7G26G 2G 9G 7G27G 4G15
  23926524.302     1022639.647 7    935114.18525        56.000
  22159022.648     9869485.133 9   3227283.00229       112.000
  24321617.844    -6055466.336 7  -4539784.89525        48.000
  21044678.103    -1852473.282 9   -514598.27729       116.000
  23034556.388    12806192.557 8  10352800.67826        64.000
  23592681.237    -7038728.472 7  -6101844.92026        54.000
  25077812.632     1869274.350 6   5367938.47225        36.000
 96  6  6 16 35  0.0020000  0  7G26G 2G 9G 7G27G 4G15
  23931846.607     1050601.948 7    956902.95825        56.000
  22163413.348     9892557.291 9   3245261.32629       110.000
  24314767.347    -6091482.082 7  -4567849.14425        52.000
  21048616.896    -1831776.158 9   -498470.65129       116.000
  23045997.638    12866344.769 7  10399672.53626        54.000
  23585389.834    -7077058.617 7  -6131712.52926        50.000
  25086684.450     1915866.022 6   5404243.66125        40.000
 96  6  6 16 35 15.0020000  0  7G26G 2G 9G 7G27G 4G15
  23937195.444     1078670.808 7    978774.77125        56.000
  22167813.432     9915682.736 9   3263281.13829       110.000
  24307928.181    -6127442.791 7  -4595870.47025        54.000
  21052575.265    -1810976.312 9   -482262.96229       118.000
  23057469.766    12926583.583 7  10446611.85226        62.000
  23578102.030    -7115338.291 7  -6161540.83526        54.000
  25095572.996     1962573.950 6   5440639.43725        38.000
 96  6  6 16 35 30.0020000  0  7G26G 2G 9G 7G27G 4G15
  23942557.292     1106842.445 7   1000726.66425        54.000
  22172225.538     9938861.911 9   3281342.82829       110.000
  24301092.973    -6163354.659 7  -4623853.73525        50.000
  21056552.702    -1790075.350 9   -465976.49929       116.000
  23068947.590    12986904.351 7  10493615.01526        56.000
  23570832.692    -7153573.784 7  -6191334.72626        56.000
  25104479.620     2009394.885 6   5477123.27225        38.000
 96  6  6 16 35 45.0020000  0  7G26G 2G 9G 7G27G 4G15
  23947931.792     1135117.462 7   1022759.15425        54.000
  22176645.168     9962098.037 9   3299448.86829       112.000
  24294269.727    -6199218.660 7  -4651799.68325        50.000
  21060549.685    -1769074.376 9   -449612.11329       116.000
  23080439.144    13047304.923 7  10540680.37526        54.000
  23563557.988    -7191766.023 7  -6221094.89826        56.000
  25113409.748     2056328.626 6   5513694.99425        38.000
 96  6  6 16 36  0.0020000  0  7G26G 2G 9G 7G27G 4G15
  23953332.673     1163500.802 7   1044876.02525        52.000
  22181078.109     9985395.281 9   3317602.55929       110.000
  24287440.935    -6235029.315 7  -4679704.05725        44.000
  21064565.825    -1747969.758 9   -433166.95029       116.000
  23091947.577    13107786.861 7  10587809.12726        58.000
  23556308.617    -7229910.527 7  -6250817.85626        56.000
  25122361.581     2103379.106 6   5550357.67125        38.000
 96  6  6 16 36 15.0020000  0  7G26G 2G 9G 7G27G 4G15
  23958749.713     1191988.543 7   1067074.25725        52.000
  22185523.222    10008750.601 9   3335801.49729       110.000
  24280639.423    -6270788.443 7  -4707568.24525        46.000
  21068597.553    -1726766.166 9   -416644.68629       118.000
  23103471.060    13168346.215 7  10634998.17426        58.000
  23549052.320    -7268011.548 7  -6280506.94026        54.000
  25131345.222     2150542.655 6   5587108.46825        36.000
 96  6  6 16 36 30.0020000  0  7G26G 2G 9G 7G27G 4G15
  23964194.513     1220583.029 7   1089355.63225        54.000
  22189978.138    10032166.410 9   3354047.58929       110.000
  24273856.439    -6306496.330 7  -4735392.57125        48.000
  21072654.945    -1705459.678 9   -400042.22029       116.000
  23115011.301    13228987.062 7  10682250.78126        54.000
  23541815.870    -7306066.500 7  -6310160.11026        56.000
  25140338.696     2197821.195 6   5623948.86725        34.000
 96  6  6 16 36 45.0020000  0  7G26G 2G 9G 7G27G 4G15
  23969656.102     1249279.600 7   1111716.54425        54.000
  22194444.686    10055637.664 9   3372336.88229       110.000
  24267072.076    -6342161.954 7  -4763183.97625        52.000
  21076725.437    -1684058.483 9   -383365.95929       118.000
  23126562.994    13289705.170 7  10729563.58426        58.000
  23534578.790    -7344082.005 7  -6339782.56926        56.000
  25149357.622     2245208.193 6   5660873.77725        34.000
 96  6  6 16 37  0.0020000  0  7G26G 2G 9G 7G27G 4G15
  23975135.259     1278082.472 7   1134160.33626        54.000
  22198924.844    10079166.122 9   3390670.74629       110.000
  24260287.323    -6377785.246 7  -4790942.36925        46.000
  21080816.255    -1662563.270 9   -366616.44029       118.000
  23138133.963    13350501.376 7  10776937.23026        56.000
  23527352.323    -7382055.700 7  -6369372.42926        56.000
  25158386.172     2292705.658 6   5697884.81225        28.000
 96  6  6 16 37 15.0020000  0  7G26G 2G 9G 7G27G 4G15
  23980641.008     1306990.895 7   1156686.37526        58.000
  22203407.281    10102748.200 9   3409046.37029       112.000
  24253517.979    -6413367.905 7  -4818669.11925        52.000
  21084923.591    -1640974.492 9   -349794.02529       116.000
  23149719.683    13411375.918 7  10824371.88126        56.000
  23520128.464    -7419985.902 7  -6398928.43526        54.000
  25167454.534     2340312.316 6   5734980.80325        38.000
 96  6  6 16 37 30.0020000  0  7G26G 2G 9G 7G27G 4G15
  23986160.067     1336010.562 7   1179299.09426        58.000
  22207910.763    10126386.546 9   3427465.85829       108.000
  24246746.956    -6448903.140 7  -4846358.87925        42.000
  21089053.712    -1619286.353 9   -332894.15929       116.000
  23161318.233    13472335.364 7  10871872.73926        56.000
  23512919.355    -7457863.611 7  -6428443.48726        54.000
  25176532.489     2388033.275 6   5772165.96525        36.000
 96  6  6 16 37 45.0020000  0  7G26G 2G 9G 7G27G 4G15
  23991701.671     1365137.384 7   1201995.28926        58.000
  22212419.642    10150078.770 9   3445927.31929       110.000
  24240003.875    -6484391.490 7  -4874012.07225        54.000
  21093196.754    -1597505.141 9   -315921.79729       116.000
  23172931.443    13533375.341 7  10919436.29626        56.000
  23505724.665    -7495685.787 7  -6457915.32426        54.000
  25185628.672     2435865.692 6   5809437.98225        30.000
 96  6  6 16 38  0.0020000  0  7G26G 2G 9G 7G27G 4G15
  23997263.870     1394369.458 7   1224773.50726        56.000
  22216937.484    10173823.672 9   3464429.84629       110.000
  24233264.030    -6519833.725 7  -4901629.37425        42.000
  21097358.443    -1575632.575 9   -298878.24029       116.000
  23184565.939    13594496.058 7  10967062.79926        58.000
  23498536.632    -7533450.571 7  -6487342.37526        54.000
  25194761.010     2483808.148 7   5846795.72025        42.000
 96  6  6 16 38 15.0020000  0  7G26G 2G 9G 7G27G 4G15
  24002845.346     1423704.841 7   1247632.20426        56.000
  22221465.969    10197619.566 9   3482972.09629       110.000
  24226523.407    -6555231.114 7  -4929211.75125        54.000
  21101537.729    -1553671.440 9   -281765.67529       116.000
  23196209.908    13655698.135 7  11014752.72026        52.000
  23491364.966    -7571156.081 7  -6516723.27626        56.000
  25203889.301     2531859.776 6   5884238.53325        30.000
 96  6  6 16 38 30.0020000  0  6G26G 2G 9G 7G27G 4
  24008454.493     1453147.657 7   1270574.62826        58.000
  22225998.651    10221469.200 9   3501556.22129       106.000
  24219792.886    -6590580.628 7  -4956756.84525        46.000
  21105734.944    -1531619.722 9   -264582.50729       116.000
  23207877.231    13716983.678 7  11062507.66426        58.000
  23484201.456    -7608798.761 7  -6546055.19826        54.000
 96  6  6 16 38 45.0020000  0  6G26G 2G 9G 7G27G 4
  24014069.006     1482696.300 7   1293599.54626        54.000
  22230552.319    10245370.174 9   3520180.36429       108.000
  24213072.529    -6625883.703 7  -4984265.72825        48.000
  21109946.038    -1509481.380 9   -247331.85729       118.000
  23219553.608    13778348.231 7  11110324.17426        60.000
  23477053.174    -7646378.333 7  -6575337.96926        58.000
 96  6  6 16 39  0.0020000  0  6G26G 2G 9G 7G27G 4
  24019712.299     1512352.763 7   1316708.47326        54.000
  22235109.344    10269324.506 9   3538846.06029       110.000
  24206374.895    -6661135.556 7  -5011734.69725        48.000
  21114175.211    -1487257.273 9   -230014.37429       118.000
  23231233.911    13839788.089 7  11158199.37726        54.000
  23469916.915    -7683892.937 7  -6604570.08826        58.000
 96  6  6 16 39 15.0020000  0  6G26G 2G 9G 7G27G 4
  24025380.805     1542117.308 7   1339901.60626        56.000
  22239679.350    10293333.430 9   3557554.29129       110.000
  24199670.697    -6696333.434 7  -5039161.54825        44.000
  21118422.910    -1464942.569 9   -212626.30029       118.000
  23242949.711    13901303.788 7  11206133.65026        56.000
  23462787.011    -7721339.895 7  -6633749.52626        56.000
 96  6  6 16 39 30.0020000  0  6G26G 2G 9G 7G27G 4
  24031065.829     1571990.127 7   1363179.11226        56.000
  22244257.511    10317400.600 9   3576307.93729       108.000
  24192984.845    -6731473.802 7  -5066543.63425        54.000
  21122684.070    -1442534.947 9   -195165.80229       118.000
  23254672.195    13962897.269 7  11254128.53726        58.000
  23455672.756    -7758717.873 7  -6662875.19626        56.000
 96  6  6 16 39 45.0020000  0  6G26G 2G 9G 7G27G 4
  24036775.497     1601964.018 7   1386535.33226        56.000
  22248849.282    10341521.278 9   3595103.25729       108.000
  24186302.921    -6766564.086 7  -5093886.68225        42.000
  21126964.237    -1420041.696 9   -177638.60829       118.000
  23266404.064    14024557.265 7  11302175.26126        54.000
  23448568.814    -7796033.949 7  -6691952.63326        56.000
 96  6  6 16 40  0.0020000  0  6G26G 2G 9G 7G27G 4
  24042489.211     1632040.358 7   1409971.39426        54.000
  22253448.758    10365697.578 9   3613941.93029       108.000
  24179639.164    -6801601.773 7  -5121188.71125        54.000
  21131265.030    -1397459.240 9   -160041.88329       118.000
  23278148.013    14086286.469 7  11350275.92026        54.000
  23441486.007    -7833287.573 7  -6720981.41626        58.000
 96  6  6 16 40 15.0020000  0  6G26G 2G 9G 7G27G 4
  24048240.160     1662220.645 7   1433488.51826        56.000
  22258058.367    10389927.892 9   3632822.69329       108.000
  24172988.958    -6836585.572 7  -5148448.85225        44.000
  21135578.354    -1374784.505 9   -142373.26729       118.000
  23289914.208    14148088.494 7  11398433.31926        58.000
  23434405.269    -7870481.131 7  -6749963.39526        58.000
 96  6  6 16 40 30.0020000  0  6G26G 2G 9G 7G27G 4
  24054000.762     1692503.449 7   1457085.48926        58.000
  22262682.066    10414206.938 9   3651741.42629       108.000
  24166339.531    -6871513.761 7  -5175665.65425        60.000
  21139911.254    -1352019.165 9   -124634.03429       118.000
  23301680.582    14209959.513 7  11446644.47526        52.000
  23427340.600    -7907618.377 7  -6778901.44526        60.000
 96  6  6 16 40 45.0020000  0  6G26G 2G 9G 7G27G 4
  24059779.741     1722884.829 7   1480759.27626        56.000
  22267309.662    10438533.071 9   3670696.84829       108.000
  24159708.512    -6906387.841 7  -5202840.24025        50.000
  21144259.384    -1329165.567 9   -106826.04929       118.000
  23313469.921    14271896.690 7  11494907.17426        52.000
  23420282.646    -7944704.122 7  -6807799.42126        62.000
 96  6  6 16 41  0.0020000  0  6G26G 2G 9G 7G27G 4
  24065573.830     1753366.293 7   1504511.05126        56.000
  22271948.051    10462911.014 9   3689692.63628       108.000
  24153075.784    -6941205.820 7  -5229971.10025        56.000
  21148628.769    -1306219.485 9    -88945.98429       116.000
  23325276.017    14333906.133 7  11543226.17726        56.000
  23413225.261    -7981737.464 7  -6836656.57326        56.000
 96  6  6 16 41 15.0020000  0  6G26G 2G 9G 7G27G 4
  24071398.827     1783946.398 7   1528339.66726        58.000
  22276594.924    10487339.360 9   3708727.69528       108.000
  24146457.565    -6975970.599 7  -5257060.51225        50.000
  21153010.566    -1283180.810 9    -70993.76429       116.000
  23337082.264    14395989.920 7  11591603.08926        54.000
  23406198.336    -8018721.647 7  -6865475.38926        62.000
 96  6  6 16 41 30.0020000  0  6G26G 2G 9G 7G27G 4
  24077235.816     1814626.266 7   1552246.02926        56.000
  22281254.868    10511819.886 9   3727803.43528       108.000
  24139851.459    -7010680.793 7  -5284107.36325        54.000
  21157413.707    -1260047.830 9    -52968.06029       118.000
  23348916.182    14458152.436 7  11640041.40726        54.000
  23399164.665    -8055657.411 7  -6894256.46626        56.000
 96  6  6 16 41 45.0020000  0  6G26G 2G 9G 7G27G 4
  24083098.168     1845406.743 7   1576230.79226        56.000
  22285922.907    10536352.014 9   3746919.36328       108.000
  24133254.645    -7045336.313 7  -5311111.65125        58.000
  21161833.518    -1236821.135 9    -34869.35229       116.000
  23360761.911    14520394.476 7  11688541.68926        54.000
  23392148.383    -8092542.627 8  -6922998.17326        64.000
 96  6  6 16 42  0.0020000  0  6G26G 2G 9G 7G27G 4
  24088974.460     1876289.247 7   1600295.07826        56.000
  22290599.339    10560935.318 9   3766075.18328       106.000
  24126674.051    -7079935.046 7  -5338071.77225        54.000
  21166270.686    -1213501.522 9    -16698.22429       116.000
  23372619.482    14582716.770 7  11737104.48826        52.000
  23385140.104    -8129377.919 8  -6951700.99726        64.000
 96  6  6 16 42 15.0020000  0  6G26G 2G 9G 7G27G 4
  24094872.697     1907237.002 7   1624410.20626        54.000
  22295282.757    10585531.851 9   3785241.29528       104.000
  24120094.686    -7114514.650 7  -5365016.91425        56.000
  21170716.998    -1190128.382 9      1514.61129       118.000
  23384485.148    14645083.034 7  11785701.54226        52.000
  23378136.803    -8166202.712 8  -6980395.60226        64.000
 96  6  6 16 42 30.0020000  0  6G26G 2G 9G 7G27G 4
  24100768.655     1938272.474 7   1648593.68526        52.000
  22299969.892    10610164.032 9   3804435.20828       106.000
  24113529.141    -7149055.827 7  -5391932.07725        54.000
  21175179.468    -1166680.690 9     19785.53429       118.000
  23396367.902    14707509.940 7  11834345.86326        52.000
  23371128.315    -8202995.784 8  -7009065.50226        64.000
 96  6  6 16 42 45.0020000  0  6G26G 2G 9G 7G27G 4
  24106693.693     1969413.362 7   1672859.28926        54.000
  22304665.601    10634853.059 9   3823673.40228       104.000
  24106956.581    -7183540.525 7  -5418803.21025        58.000
  21179660.046    -1143140.665 9     38128.42529       118.000
  23408262.317    14770015.746 7  11883051.66226        52.000
  23364140.782    -8239735.867 8  -7037694.11326        66.000
 96  6  6 16 43  0.0020000  0  6G26G 2G 9G 7G27G 4
  24112638.458     2000657.877 7   1697205.64425        54.000
  22309371.983    10659602.475 9   3842958.64028       102.000
  24100403.987    -7217971.204 7  -5445632.28625        56.000
  21184156.664    -1119508.592 9     56543.02729       118.000
  23420169.834    14832602.597 7  11931820.59026        54.000
  23357157.596    -8276419.061 8  -7066278.40926        68.000
 96  6  6 16 43 15.0020000  0  6G26G 2G 9G 7G27G 4
  24118603.428     2032005.813 7   1721632.56026        56.000
  22314098.421    10684409.256 9   3862288.59928       104.000
  24093869.561    -7252349.036 7  -5472420.17425        58.000
  21188671.988    -1095784.121 9     75029.63629       116.000
  23432090.211    14895267.948 7  11980650.72726        46.000
  23350190.000    -8313043.683 8  -7094817.05326        66.000
 96  6  6 16 43 30.0020000  0  6G26G 2G 9G 7G27G 4
  24124590.374     2063457.026 7   1746139.98426        56.000
  22318828.277    10709272.516 9   3881662.56128       102.000
  24087334.625    -7286671.777 7  -5499165.21225        58.000
  21193201.732    -1071968.354 9     93587.35829       114.000
  23444039.849    14958009.258 7  12029540.01026        56.000
  23343232.566    -8349604.888 8  -7123306.28426        64.000
 96  6  6 16 43 45.0020000  0  6G26G 2G 9G 7G27G 4
  24130592.309     2095013.243 7   1770729.23226        54.000
  22323569.015    10734194.433 9   3901082.21728       104.000
  24080811.501    -7320936.241 7  -5525864.79125        58.000
  21197754.920    -1048059.746 9    112217.43429       114.000
  23455989.516    15020828.356 7  12078489.90326        50.000
  23336287.394    -8386094.814 7  -7151739.98926        62.000
 96  6  6 16 44  0.0020000  0  6G26G 2G 9G 7G27G 4
  24136620.385     2126667.844 7   1795395.14026        56.000
  22328324.712    10759170.204 9   3920543.86528       106.000
  24074300.608    -7355148.425 7  -5552523.65225        60.000
  21202316.502    -1024065.390 9    130914.33329       112.000
  23467956.782    15083718.319 7  12127495.08226        50.000
  23329352.925    -8422517.191 8  -7180121.03726        66.000
 96  6  6 16 44 15.0020000  0  6G26G 2G 9G 7G27G 4
  24142659.285     2158425.206 7   1820141.09026        54.000
  22333089.254    10784206.016 9   3940052.28428       106.000
  24067802.157    -7389304.111 7  -5579138.42025        58.000
  21206901.737     -999979.876 9    149682.26329       112.000
  23479940.086    15146683.134 7  12176558.52926        52.000
  23322437.193    -8458867.320 8  -7208445.76826        64.000
 96  6  6 16 44 30.0020000  0  6G26G 2G 9G 7G27G 4
  24148718.750     2190286.043 7   1844967.67126        54.000
  22337862.849    10809302.221 9   3959607.75428       106.000
  24061313.989    -7423405.918 8  -5605711.20725        64.000
  21211504.271     -975801.676 9    168522.42129       112.000
  23491929.416    15209721.450 7  12225679.25526        46.000
  23315534.711    -8495139.705 8  -7236709.94326        64.000
 96  6  6 16 44 45.0020000  0  6G26G 2G 9G 7G27G 4
  24154803.158     2222245.649 7   1869871.25726        52.000
  22342650.715    10834455.866 9   3979207.97728       104.000
  24054834.425    -7457454.418 7  -5632242.52225        54.000
  21216118.587     -951535.713 9    187430.96529       112.000
  23503942.429    15272831.735 7  12274856.06326        52.000
  23308645.690    -8531333.776 8  -7264913.12326        64.000
 96  6  6 16 45  0.0020000  0  6G26G 2G 9G 7G27G 4
  24160902.465     2254301.165 7   1894849.56026        52.000
  22347445.985    10859665.276 9   3998851.68828       106.000
  24048366.762    -7491448.674 7  -5658731.50725        58.000
  21220755.926     -927184.758 9    206405.74329       112.000
  23515963.687    15336013.430 7  12324088.55226        48.000
  23301776.006    -8567450.072 8  -7293055.65526        66.000
 96  6  6 16 45 15.0020000  0  6G26G 2G 9G 7G27G 4
  24167020.030     2286453.100 7   1919903.02126        54.000
  22352255.765    10884926.848 9   4018536.01728       108.000
  24041906.085    -7525389.069 7  -5685178.57025        58.000
  21225405.168     -902749.330 9    225446.32929       114.000
  23527997.896    15399261.758 7  12373372.94026        44.000
  23294919.723    -8603492.164 8  -7321140.39926        68.000
 96  6  6 16 45 30.0020000  0  6G26G 2G 9G 7G27G 4
  24173161.968     2318704.791 7   1945034.18326        50.000
  22357069.293    10910241.962 9   4038262.08128       106.000
  24035463.185    -7559270.094 7  -5711579.39225        60.000
  21230073.356     -878226.185 9    244555.27929       112.000
  23540050.032    15462579.459 7  12422711.36526        50.000
  23288077.050    -8639459.759 8  -7349167.05126        70.000
 96  6  6 16 45 45.0020000  0  6G26G 2G 9G 7G27G 4
  24179319.945     2351055.483 7   1970242.47326        50.000
  22361901.828    10935610.465 9   4058029.73728       106.000
  24029026.071    -7593091.879 7  -5737934.01825        60.000
  21234753.446     -853615.199 9    263732.65729       112.000
  23552111.433    15525967.295 7  12472104.43825        46.000
  23281244.570    -8675355.626 8  -7377137.86426        68.000
 96  6  6 16 46  0.0020000  0  6G26G 2G 9G 7G27G 4
  24185492.642     2383505.329 7   1995528.02426        48.000
  22366736.760    10961034.870 9   4077840.95728       104.000
  24022601.579    -7626852.933 7  -5764241.28225        58.000
  21239456.860     -828912.828 9    282981.26929       110.000
  23564189.261    15589427.596 7  12521553.98025        50.000
  23274425.820    -8711181.414 8  -7405054.01026        70.000
 96  6  6 16 46 15.0020000  0  6G26G 2G 9G 7G27G 4
  24191684.765     2416076.084 7   2020907.83026        48.000
  22371590.970    10986538.561 9   4097713.93528       106.000
  24016189.048    -7660529.076 7  -5790482.41125        56.000
  21244178.171     -804095.056 9    302319.78429       114.000
  23576284.268    15652978.893 7  12571074.41625        46.000
  23267624.009    -8746918.254 8  -7432900.89826        70.000
 96  6  6 16 46 30.0020000  0  6G26G 2G 9G 7G27G 4
  24197912.054     2448773.081 7   2046385.99626        48.000
  22376460.049    11012125.942 9   4117652.15128       106.000
  24009796.664    -7694113.711 7  -5816652.22225        56.000
  21248924.666     -779156.656 9    321752.30029       114.000
  23588396.633    15716626.258 7  12620669.78025        50.000
  23260841.205    -8782558.447 8  -7460672.48226        72.000
 96  6  6 16 46 45.0020000  0  6G26G 2G 9G 7G27G 4
  24204149.146     2481560.770 7   2071934.84726        48.000
  22381337.942    11037764.335 9   4137630.11128       106.000
  24003415.851    -7727635.186 7  -5842772.86825        58.000
  21253684.920     -754130.258 9    341253.38429       114.000
  23600518.021    15780337.058 7  12670314.55025        46.000
  23254073.060    -8818136.475 8  -7488395.59126        74.000
 96  6  6 16 47  0.0020000  0  6G26G 2G 9G 7G27G 4
  24210413.519     2514444.605 7   2097558.58726        50.000
  22386230.225    11063459.609 9   4157652.41228       104.000
  23997054.615    -7761083.388 7  -5868836.42725        60.000
  21258464.751     -729006.907 9    360830.04029       114.000
  23612648.973    15844120.785 7  12720016.09925        48.000
  23247316.188    -8853646.971 8  -7516066.07526        72.000
 96  6  6 16 47 15.0020000  0  6G26G 2G 9G 7G27G 4
  24216690.454     2547428.746 7   2123260.47326        46.000
  22391127.665    11089213.086 9   4177720.04428       104.000
  23990703.572    -7794457.693 7  -5894842.36225        56.000
  21263267.966     -703781.063 9    380486.53429       114.000
  23624806.966    15907980.228 7  12769776.68025        46.000
  23240568.729    -8889087.639 8  -7543682.16826        72.000
 96  6  6 16 47 30.0020000  0  6G26G 2G 9G 7G27G 4
  24222977.012     2580508.563 7   2149036.93826        48.000
  22396040.814    11115020.878 9   4197830.00628       102.000
  23984363.770    -7827763.274 7  -5920794.73625        56.000
  21268084.821     -678458.425 9    400218.44429       114.000
  23636975.662    15971913.373 7  12819594.68125        48.000
  23233839.827    -8924462.065 8  -7571246.63926        72.000
 96  6  6 16 47 45.0020000  0  6G26G 2G 9G 7G27G 4
  24229289.172     2613674.337 7   2174880.37126        48.000
  22400958.999    11140874.304 9   4217975.54128       104.000
  23978046.094    -7861008.128 7  -5946699.75125        58.000
  21272921.793     -653048.520 9    420018.36829       114.000
  23649150.564    16035911.030 7  12869462.93025        46.000
  23227118.151    -8959775.408 8  -7598763.50126        74.000
 96  6  6 16 48  0.0020000  0  6G26G 2G 9G 7G27G 4
  24235616.382     2646927.881 7   2200792.21426        48.000
  22405888.156    11166777.812 9   4238160.06928       104.000
  23971722.902    -7894189.354 7  -5972555.23225        58.000
  21277772.704     -627551.392 9    439886.26329       118.000
  23661336.438    16099971.430 7  12919380.09625        46.000
  23220413.532    -8995022.681 8  -7626228.91426        74.000
 96  6  6 16 48 15.0020000  0  6G26G 2G 9G 7G27G 4
  24241972.731     2680273.936 7   2226776.14326        48.000
  22410827.327    11192734.711 9   4258386.21028       104.000
  23965426.990    -7927303.852 7  -5998358.70225        62.000
  21282643.043     -601966.937 9    459822.19629       116.000
  23673536.132    16164095.136 7  12969346.59625        42.000
  23213718.357    -9030200.102 8  -7653639.87426        72.000
 96  6  6 16 48 30.0020000  0  7G26G 2G 9G24G 7G27G 4
  24248330.880     2713714.344 7   2252833.57726        48.000
  22415777.680    11218744.788 9   4278653.79928       106.000
  23959136.835    -7960350.937 7  -6024109.75425        56.000
  25513248.376     -503697.793 6   -426775.71022        36.000
  21287526.002     -576299.159 9    479823.05729       118.000
  23685758.371    16228282.565 7  13019362.74925        48.000
  23207039.551    -9065304.963 8  -7680994.27826        74.000
 96  6  6 16 48 45.0020000  0  7G26G 2G 9G24G 7G27G 4
  24254710.373     2747242.717 7   2278959.54626        50.000
  22420736.547    11244799.381 9   4298956.06828       106.000
  23952859.960    -7993339.673 7  -6049815.25325        62.000
  25505044.495     -546787.289 6   -460351.93422        26.000
  21292423.922     -550555.689 9    499882.90729       116.000
  23697989.423    16292530.881 7  13069426.36225        42.000
  23200371.477    -9100342.197 8  -7708295.98526        78.000
 96  6  6 16 49  0.0020000  0  7G26G 2G 9G24G 7G27G 4
  24261101.499     2780862.943 7   2305157.08526        48.000
  22425706.896    11270901.996 9   4319295.76528       106.000
  23946588.752    -8026268.911 7  -6075474.38525        60.000
  25496846.850     -589886.632 6   -493935.87022        28.000
  21297338.030     -524733.557 9    520004.05729       118.000
  23710223.684    16356841.303 7  13119538.32925        44.000
  23193719.352    -9135311.202 8  -7735544.55327        78.000
 96  6  6 16 49 15.0020000  0  7G26G 2G 9G24G 7G27G 4
  24267524.402     2814580.773 7   2331430.69226        52.000
  22430678.834    11297057.951 9   4339677.03128       104.000
  23940335.890    -8059138.646 7  -6101087.13125        60.000
  25488650.285     -632993.571 7   -527525.73522        42.000
  21302267.487     -498830.885 9    540187.96129       118.000
  23722474.852    16421217.504 7  13169701.52725        44.000
  23187077.570    -9170209.004 8  -7762737.63326        78.000
 96  6  6 16 49 30.0020000  0  7G26G 2G 9G24G 7G27G 4
  24273958.218     2848396.656 7   2357780.73426        48.000
  22435667.650    11323270.687 9   4360102.51028       106.000
  23934089.924    -8091946.958 7  -6126652.02426        60.000
  25480441.787     -676107.952 6   -561121.41822        40.000
  21307213.223     -472846.081 9    560435.83029       120.000
  23734742.720    16485656.712 6  13219913.86725        40.000
  23180448.559    -9205036.660 8  -7789876.04726        76.000
 96  6  6 16 49 45.0020000  0  7G26G 2G 9G24G 7G27G 4
  24280412.360     2882305.666 7   2384203.33626        48.000
  22440668.608    11349539.155 9   4380571.44628       102.000
  23927862.426    -8124693.704 8  -6152168.93526        64.000
  25472236.977     -719230.506 6   -594723.40923        28.000
  21312174.069     -446782.646 9    580745.00829       120.000
  23747014.454    16550154.716 7  13270172.03025        50.000
  23173834.898    -9239797.248 8  -7816962.20226        78.000
 96  6  6 16 50  0.0020000  0  7G26G 2G 9G24G 7G27G 4
  24286880.922     2916309.515 7   2410699.83226        48.000
  22445678.860    11375867.926 9   4401087.36328       104.000
  23921647.338    -8157376.211 7  -6177635.82425        60.000
  25464016.128     -762356.691 6   -628328.17123        22.000
  21317149.065     -420634.481 9    601120.20329       124.000
  23759291.944    16614714.156 6  13320478.09325        36.000
  23167233.738    -9274489.329 8  -7843994.97726        78.000
 96  6  6 16 50 15.0020000  0  7G26G 2G 9G24G 7G27G 4
  24293369.031     2950407.906 7   2437269.94926        50.000
  22450698.765    11402260.121 9   4421652.68928       102.000
  23915436.418    -8189996.573 7  -6203054.32925        62.000
  25455813.807     -805486.041 6   -661935.49523        32.000
  21322139.980     -394400.181 9    621562.50529       122.000
  23771592.969    16679338.669 7  13370834.79725        50.000
  23160644.120    -9309115.388 8  -7870976.31026        76.000
 96  6  6 16 50 30.0020000  0  7G26G 2G 9G24G 7G27G 4
  24299873.298     2984599.635 7   2463912.79325        48.000
  22455733.989    11428713.052 9   4442265.36128       102.000
  23909239.708    -8222557.630 7  -6228426.56525        60.000
  25447616.702     -848615.674 6   -695543.04723        38.000
  21327149.452     -368076.798 9    642074.23129       124.000
  23783905.985    16744031.868 6  13421245.04425        40.000
  23154067.872    -9343674.639 8  -7897905.55527        76.000
 96  6  6 16 50 45.0020000  0  7G26G 2G 9G24G 7G27G 4
  24306401.758     3018881.165 7   2490625.65625        48.000
  22460780.785    11455225.748 9   4462924.61328       102.000
  23903061.345    -8255060.807 7  -6253753.68526        62.000
  25439409.853     -891745.103 6   -729150.43923        36.000
  21332175.232     -341661.495 9    662657.59029       126.000
  23796226.165    16808795.451 7  13471710.14025        42.000
  23147502.058    -9378165.507 8  -7924781.54427        78.000
 96  6  6 16 51  0.0020000  0  7G26G 2G 9G24G 7G27G 4
  24312940.651     3053249.267 7   2517406.00926        48.000
  22465835.915    11481798.985 9   4483631.02328       102.000
  23896881.813    -8287506.049 8  -6279035.67126        64.000
  25431199.827     -934879.242 6   -762761.45323        34.000
  21337220.140     -315152.561 9    683313.90329       126.000
  23808563.225    16873624.995 7  13522226.61125        42.000
  23140950.184    -9412590.935 8  -7951606.53427        76.000
 96  6  6 16 51 15.0020000  0  7G26G 2G 9G24G 7G27G 4
  24319496.573     3087706.908 7   2544256.11926        48.000
  22470906.365    11508435.561 9   4504386.81928       102.000
  23890717.361    -8319889.692 7  -6304269.63426        62.000
  25422985.663     -978015.824 6   -796374.35723        26.000
  21342282.345     -288548.332 9    704044.49429       126.000
  23820899.265    16938522.027 6  13572795.76225        38.000
  23134415.637    -9446948.949 8  -7978378.96727        76.000
 96  6  6 16 51 30.0020000  0  7G26G 2G 9G24G 7G27G 4
  24326071.651     3122254.017 7   2571175.88626        46.000
  22475985.749    11535135.639 9   4525191.99728       104.000
  23884564.210    -8352208.495 7  -6329453.14026        58.000
  25414780.194    -1021152.630 6   -829987.47723        32.000
  21347362.329     -261850.587 9    724847.90229       126.000
  23833279.314    17003488.492 7  13623418.87625        44.000
  23127890.864    -9481233.689 8  -8005094.34027        76.000
 96  6  6 16 51 45.0020000  0  7G26G 2G 9G24G 7G27G 4
  24332667.175     3156888.657 7   2598163.89825        46.000
  22481077.844    11561894.669 9   4546043.20928       100.000
  23878429.827    -8384465.678 7  -6354588.60526        62.000
  25406580.450    -1064290.114 7   -863601.12223        42.000
  21352460.299     -235064.799 9    745719.93329       122.000
  23845647.552    17068519.344 6  13674092.28525        40.000
  23121379.582    -9515445.722 8  -8031753.06127        76.000
 96  6  6 16 52  0.0020000  0  7G26G 2G 9G24G 7G27G 4
  24339270.823     3191613.766 7   2625222.36225        46.000
  22486183.339    11588713.765 9   4566941.19928       102.000
  23872304.737    -8416662.383 7  -6379676.94026        60.000
  25398368.775    -1107426.742 6   -897214.14223        40.000
  21357572.061     -208195.618 9    766656.96629       120.000
  23858042.801    17133616.566 7  13724817.34025        48.000
  23114886.737    -9549580.822 8  -8058351.80427        76.000
 96  6  6 16 52 15.0020000  0  7G26G 2G 9G24G 7G27G 4
  24345900.104     3226424.545 7   2652347.62425        48.000
  22491295.760    11615588.374 9   4587882.44928       104.000
  23866183.395    -8448802.201 7  -6404720.94426        60.000
  25390153.113    -1150566.841 6   -930829.79323        30.000
  21362700.610     -181249.735 9    787653.75429       118.000
  23870432.294    17198774.436 7  13775589.68925        42.000
  23108400.517    -9583639.413 8  -8084890.94627        76.000
 96  6  6 16 52 30.0020000  0  7G26G 2G 9G24G 7G27G 4
  24352534.931     3261325.050 7   2679542.82426        46.000
  22496421.701    11642519.477 9   4608867.72928       104.000
  23860084.028    -8480879.519 7  -6429716.20726        62.000
  25381943.986    -1193704.905 6   -964443.86223        32.000
  21367842.830     -154226.834 9    808710.56229       116.000
  23882850.327    17263994.952 7  13826410.77725        44.000
  23101935.133    -9617615.541 8  -8111365.83027        76.000
 96  6  6 16 52 45.0030000  0  7G26G 2G 9G24G 7G27G 4
  24359185.557     3296325.100 7   2706815.59126        44.000
  22501557.176    11669514.648 9   4629902.91728       106.000
  23853986.789    -8512883.735 7  -6454654.57426        58.000
  25373737.737    -1236837.343 6   -998053.58323        34.000
  21373000.610     -127120.856 9    829832.10229       114.000
  23895271.478    17329286.007 7  13877286.89725        44.000
  23095488.756    -9651503.382 8  -8137771.91027        76.000
 96  6  6 16 53  0.0030000  0  7G26G 2G 9G24G 7G27G 4
  24365881.691     3331416.892 7   2734159.82426        46.000
  22506703.773    11696568.415 9   4650983.75928       104.000
  23847919.409    -8544811.221 8  -6479533.10926        64.000
  25365534.516    -1279965.453 7  -1031659.96523        48.000
  21378172.509      -99944.117 9    851008.77229       112.000
  23907713.255    17394629.749 7  13928204.10525        42.000
  23089056.799    -9685304.614 8  -8164110.50527        80.000
 96  6  6 16 53 15.0030000  0  7G26G 2G 9G24G 7G27G 4
  24372577.046     3366604.241 7   2761578.49825        46.000
  22511864.550    11723681.688 9   4672110.96728       104.000
  23841858.235    -8576663.506 7  -6504353.11826        54.000
  25357323.770    -1323090.800 7  -1065264.14623        42.000
  21383358.919      -72698.013 9    872239.49029       112.000
  23920155.781    17460028.302 7  13979163.98325        48.000
  23082642.889    -9719022.210 8  -8190383.95827        76.000
 96  6  6 16 53 30.0030000  0  7G26G 2G 9G24G 7G27G 4
  24379282.654     3401880.021 7   2789066.05025        46.000
  22517034.112    11750847.454 9   4693279.09228       104.000
  23835801.978    -8608447.334 7  -6529119.69326        58.000
  25349115.243    -1366216.844 6  -1098868.78923        40.000
  21388556.810      -45388.597 9    893519.55929       112.000
  23932610.598    17525478.598 6  14030164.15025        40.000
  23076238.423    -9752660.979 8  -8216595.95727        78.000
 96  6  6 16 53 45.0030000  0  7G26G 2G 9G24G 7G27G 4
  24386010.356     3437241.693 7   2816620.57025        48.000
  22522214.705    11778068.190 9   4714490.05628       104.000
  23829773.631    -8640160.195 7  -6553830.99426        60.000
  25340912.531    -1409341.847 7  -1132472.70123        42.000
  21393765.614      -18014.286 9    914850.19129       110.000
  23945077.588    17590979.414 7  14081203.72325        48.000
  23069853.773    -9786220.468 8  -8242746.18227        78.000
 96  6  6 16 54  0.0030000  0  7G26G 2G 9G24G 7G27G 4
  24392760.783     3472693.017 7   2844244.97525        48.000
  22527404.472    11805351.301 9   4735749.60528       102.000
  23823749.961    -8671794.061 8  -6578480.73826        64.000
  25332704.843    -1452459.181 6  -1166070.56823        36.000
  21398986.710        9434.598 9    936238.91829       112.000
  23957549.614    17656538.354 6  14132288.55525        38.000
  23063482.014    -9819697.300 8  -8268832.01327        78.000
 96  6  6 16 54 15.0030000  0  7G26G 2G 9G24G 7G27G 4
  24399519.574     3508220.319 7   2871928.59126        50.000
  22532607.400    11832686.045 9   4757049.40928       102.000
  23817748.896    -8703357.170 7  -6603075.36926        60.000
  25324502.702    -1495577.319 6  -1199669.18823        34.000
  21404223.484       36952.250 9    957681.24629       110.000
  23970029.674    17722146.689 7  14183411.90525        48.000
  23057128.452    -9853100.568 8  -8294860.51127        80.000
 96  6  6 16 54 30.0030000  0  7G26G 2G 9G24G 7G27G 4
  24406299.710     3543829.316 7   2899675.84726        48.000
  22537821.421    11860076.612 9   4778392.71028       102.000
  23811756.944    -8734844.562 8  -6627610.96326        64.000
  25316295.973    -1538689.153 6  -1233262.84223        36.000
  21409473.360       64548.497 9    979184.81129       110.000
  23982522.925    17787811.176 6  14234578.99625        40.000
  23050783.914    -9886427.096 8  -8320829.20227        78.000
 96  6  6 16 54 45.0030000  0  7G26G 2G 9G24G 7G27G 4
  24413085.183     3579520.429 7   2927487.06325        48.000
  22543042.876    11887521.386 9   4799778.24828       102.000
  23805773.626    -8766258.345 7  -6652089.27026        58.000
  25308087.206    -1581795.086 6  -1266851.86923        34.000
  21414742.452       92225.470 9   1000751.27929       110.000
  23995034.973    17853533.539 7  14285791.23925        46.000
  23044456.735    -9919680.412 8  -8346740.85927        78.000
 96  6  6 16 55  0.0030000  0  7G26G 2G 9G24G 7G27G 4
  24419890.562     3615289.313 7   2955358.87125        46.000
  22548273.205    11915019.456 9   4821205.31328       100.000
  23799817.259    -8797603.211 8  -6676513.85426        64.000
  25299888.901    -1624901.309 6  -1300441.17623        34.000
  21420022.097      119980.602 9   1022378.65129       112.000
  24007555.745    17919312.015 7  14337047.11925        44.000
  23038138.998    -9952864.446 8  -8372598.55327        78.000
 96  6  6 16 55 15.0030000  0  7G26G 2G 9G24G 7G27G 4
  24426716.566     3651133.145 7   2983289.08925        48.000
  22553516.455    11942569.358 9   4842672.75628       102.000
  23793860.143    -8828885.749 8  -6700889.82426        64.000
  25291692.875    -1668008.602 6  -1334031.23323        40.000
  21425321.199      147814.046 9   1044067.05229       112.000
  24020084.641    17985147.914 7  14388347.83225        44.000
  23031837.421    -9985979.342 8  -8398402.32327        78.000
 96  6  6 16 55 30.0030000  0  7G26G 2G 9G24G 7G27G 4
  24433552.134     3687049.280 7   3011275.67125        46.000
  22558768.010    11970167.669 9   4864177.90327       102.000
  23787924.403    -8860107.517 7  -6725218.46926        62.000
  25283491.093    -1711117.659 7  -1367622.74523        42.000
  21430633.641      175726.215 9   1065816.78029       114.000
  24032622.112    18051045.115 7  14439696.20625        44.000
  23025551.552   -10019026.050 8  -8424152.99727        78.000
 96  6  6 16 55 45.0030000  0  7G26G 2G 9G24G 7G27G 4
  24440399.993     3723042.666 7   3039322.46426        46.000
  22564034.254    11997820.409 9   4885725.49327       102.000
  23781987.283    -8891262.940 8  -6749495.40326        68.000
  25275291.800    -1754226.232 7  -1401213.82223        46.000
  21435959.634      203722.490 9   1087632.05729       114.000
  24045167.287    18117007.583 6  14491095.52025        40.000
  23019276.986   -10051998.542 8  -8449845.82027        80.000
 96  6  6 16 56  0.0030000  0  7G26G 2G 9G24G 7G27G 4
  24447269.917     3759114.902 7   3067430.69325        46.000
  22569304.875    12025527.083 9   4907315.10428       102.000
  23776073.817    -8922352.251 8  -6773720.81926        64.000
  25267081.354    -1797333.247 7  -1434803.65624        42.000
  21441302.865      231802.968 9   1109512.94329       114.000
  24057738.274    18183033.501 7  14542544.24825        46.000
  23013016.510   -10084896.890 8  -8475480.88127        78.000
 96  6  6 16 56 15.0030000  0  7G26G 2G 9G24G 7G27G 4
  24454143.109     3795268.562 7   3095602.33625        46.000
  22574583.231    12053285.737 9   4928945.22728       102.000
  23770176.659    -8953376.684 8  -6797895.71426        66.000
  25258880.471    -1840438.944 7  -1468392.47524        42.000
  21446660.696      259968.100 9   1131459.79229       116.000
  24070309.531    18249122.967 6  14594042.50025        38.000
  23006770.754   -10117717.618 8  -8501055.44027        80.000
 96  6  6 16 56 30.0030000  0  7G26G 2G 9G24G 7G27G 4
  24461038.605     3831504.042 7   3123837.72425        46.000
  22579876.397    12081095.765 9   4950615.37927       102.000
  23764279.472    -8984338.393 7  -6822021.71126        62.000
  25250671.644    -1883545.545 7  -1501982.03824        42.000
  21452037.653      288215.218 9   1153470.53829       116.000
  24082901.234    18315273.851 7  14645588.61625        44.000
  23000541.127   -10150460.248 8  -8526569.15627        78.000
 96  6  6 16 56 45.0030000  0  7G26G 2G 9G24G 7G27G 4
  24467941.896     3867828.430 7   3152142.43025        42.000
  22585181.674    12108962.290 9   4972329.54827       102.000
  23758406.358    -9015232.630 8  -6846095.14726        68.000
  25242472.200    -1926650.794 6  -1535570.58823        40.000
  21457427.532      316547.090 9   1175547.31829       118.000
  24095498.633    18381489.354 6  14697185.08625        36.000
  22994328.767   -10183120.350 8  -8552018.56527        80.000
 96  6  6 16 57  0.0030000  0  7G26G 2G 9G24G 7G27G 4
  24474876.276     3904240.443 7   3180515.39125        42.000
  22590492.767    12136886.054 9   4994088.31927       102.000
  23752533.423    -9046058.802 7  -6870115.54326        62.000
  25234267.330    -1969759.042 6  -1569161.33023        38.000
  21462837.827      344962.014 9   1197688.82529       120.000
  24108117.408    18447765.223 7  14748828.58225        42.000
  22988125.912   -10215695.909 8  -8577402.10727        78.000
 96  6  6 16 57 15.0030000  0  7G26G 2G 9G24G 7G27G 4
  24481825.315     3940743.074 7   3208958.99426        46.000
  22595820.289    12164871.999 9   5015895.52027       104.000
  23746680.035    -9076810.869 8  -6894078.14826        66.000
  25226063.929    -2012865.118 6  -1602750.52624        38.000
  21468261.072      373461.914 9   1219896.52329       122.000
  24120735.912    18514103.418 6  14800520.59125        38.000
  22981944.611   -10248179.791 8  -8602714.21727        78.000
 96  6  6 16 57 30.0030000  0  7G26G 2G 9G24G 7G27G 4
  24488787.215     3977338.921 7   3237475.22226        46.000
  22601159.983    12192917.028 9   5037748.79227       100.000
  23740847.273    -9107486.717 8  -6917981.36526        64.000
  25217867.604    -2055965.067 7  -1636334.84524        44.000
  21473698.978      402046.841 9   1242170.49629       120.000
  24133377.740    18580502.290 7  14852259.96225        46.000
  22975781.897   -10280569.176 8  -8627952.65927        80.000
 96  6  6 16 57 45.0030000  0  7G26G 2G 9G24G 7G27G 4
  24495775.408     4014033.671 7   3266068.51925        46.000
  22606505.372    12221026.980 9   5059652.64127       100.000
  23735021.856    -9138081.838 8  -6941821.70526        66.000
  25209667.380    -2099053.216 7  -1669910.01024        44.000
  21479157.029      430720.031 9   1264513.25129       122.000
  24146019.988    18646961.551 6  14904046.38425        40.000
  22969634.413   -10312861.639 8  -8653115.59227        78.000
 96  6  6 16 58  0.0030000  0  7G26G 2G 9G24G 7G27G 4
  24502768.876     4050820.197 7   3294733.27825        46.000
  22611866.081    12249198.659 9   5081604.59327       100.000
  23729215.176    -9168602.897 8  -6965604.39526        64.000
  25201470.575    -2142132.590 6  -1703478.35324        40.000
  21484627.792      459475.144 9   1286919.80829       126.000
  24158680.224    18713473.421 7  14955873.74925        42.000
  22963507.465   -10345061.745 8  -8678206.57427        80.000
 96  6  6 16 58 15.0030000  0  7G26G 2G 9G24G 7G27G 4
  24509790.285     4087698.627 7   3323469.67525        44.000
  22617239.021    12277433.384 9   5103605.68227       100.000
  23723418.419    -9199048.641 8  -6989328.34726        66.000
  25193273.769    -2185201.452 6  -1737038.53724        38.000
  21490112.525      488311.800 9   1309389.94129       126.000
  24171340.699    18780038.927 6  15007742.98125        40.000
  22957399.763   -10377169.110 8  -8703225.28327        80.000
 96  6  6 16 58 30.0030000  0  7G26G 2G 9G24G 7G27G 4
  24516828.243     4124668.716 7   3352277.51325        48.000
  22622622.514    12305733.856 9   5125657.98027        98.000
  23717641.209    -9229418.133 7  -7012992.87226        62.000
  25185077.803    -2228258.514 7  -1770589.49424        42.000
  21495619.682      517229.294 9   1331923.04429       128.000
  24184034.901    18846659.442 7  15059654.99725        42.000
  22951305.582   -10409183.425 8  -8728171.48627        78.000
 96  6  6 16 58 45.0030000  0  7G26G 2G 9G24G 7G27G 4
  24523881.340     4161733.285 7   3381159.04726        46.000
  22628027.652    12334104.103 9   5147764.66827       100.000
  23711880.217    -9259708.528 8  -7036595.73426        70.000
  25176894.818    -2271301.134 7  -1804129.19224        48.000
  21501137.003      546230.443 9   1354521.35229       130.000
  24196702.332    18913336.629 7  15111611.19025        42.000
  22945228.939   -10441104.912 8  -8753045.35227        78.000
 96  6  6 16 59  0.0030000  0  7G26G 2G 9G24G 7G27G 4
  24530948.678     4198897.653 7   3410118.25426        46.000
  22633436.538    12362551.694 9   5169931.60227        98.000
  23706131.067    -9289911.580 8  -7060130.57026        68.000
  25168703.139    -2314322.109 7  -1837651.96325        42.000
  21506674.559      575322.966 9   1377190.84829       130.000
  24209411.313    18980077.570 6  15163617.13225        38.000
  22939177.328   -10472926.420 8  -8777841.32127        76.000
 96  6  6 16 59 15.0030000  0  7G26G 2G 9G24G 7G27G 4
  24538044.945     4236153.784 7   3439148.98725        44.000
  22638865.420    12391072.796 9   5192155.83727       100.000
  23700399.725    -9320030.641 8  -7083599.92126        66.000
  25160512.779    -2357323.382 6  -1871159.42524        38.000
  21512224.227      604500.265 9   1399926.40229       130.000
  24222118.856    19046878.024 7  15215669.37525        44.000
  22933139.148   -10504654.371 8  -8802564.39027        78.000
 96  6  6 16 59 30.0030000  0  7G26G 2G 9G24G 7G27G 4
  24545151.585     4273503.553 7   3468252.63925        46.000
  22644306.982    12419668.523 9   5214438.20727        98.000
  23694680.524    -9350065.368 8  -7107003.63226        68.000
  25152341.037    -2400298.899 7  -1904646.82525        42.000
  21517794.131      633763.659 9   1422729.02729       130.000
  24234850.202    19113739.825 6  15267769.47025        38.000
  22927114.999   -10536286.830 8  -8827213.03427        78.000
 96  6  6 16 59 45.0030000  0  7G26G 2G 9G24G 7G27G 4
  24552280.410     4310939.313 7   3497423.32825        46.000
  22649761.856    12448333.885 9   5236774.85627        98.000
  23688979.341    -9380021.766 8  -7130346.27726        70.000
  25144168.874    -2443257.320 7  -1938120.89525        44.000
  21523377.796      663107.238 9   1445594.15529       130.000
  24247582.628    19180655.381 6  15319911.40325        40.000
  22921117.590   -10567833.869 8  -8851795.11027        76.000
 96  6  6 17  0  0.0030000  0  7G26G 2G 9G24G 7G27G 4
  24559418.348     4348461.110 7   3526661.09526        48.000
  22655231.600    12477075.245 9   5259170.72427        98.000
  23683294.167    -9409894.013 8  -7153623.34526        70.000
  25135994.433    -2486197.139 7  -1971580.50225        42.000
  21528977.589      692537.172 9   1468526.57429       130.000
  24260333.850    19247629.515 7  15372098.96925        44.000
  22915128.067   -10599291.664 8  -8876307.66927        78.000
 96  6  6 17  0 15.0030000  0  7G26G 2G 9G24G 7G27G 4
  24566566.240     4386062.704 7   3555961.02926        46.000
  22660710.157    12505885.562 9   5281620.32127        98.000
  23677629.408    -9439684.093 8  -7176836.38226        68.000
  25127829.436    -2529123.018 7  -2005029.20125        42.000
  21534595.040      722048.426 9   1491522.36029       128.000
  24273068.344    19314659.471 6  15424330.05525        38.000
  22909161.987   -10630662.121 8  -8900752.17027        78.000
 96  6  6 17  0 30.0030000  0  7G26G 2G 9G24G 7G27G 4
  24573743.631     4423747.747 7   3585325.99526        46.000
  22666209.849    12534763.764 9   5304122.79327        98.000
  23671978.590    -9469390.063 8  -7199983.87026        68.000
  25119658.232    -2572034.756 6  -2038466.89125        40.000
  21540223.554      751642.076 9   1514582.34929       130.000
  24285850.955    19381743.885 7  15476603.61225        48.000
  22903202.563   -10661945.306 8  -8925128.64727        78.000
 96  6  6 17  0 45.0030000  0  7G26G 2G 9G24G 7G27G 4
  24580926.868     4461514.165 7   3614754.35825        44.000
  22671714.369    12563706.804 9   5326675.78027        98.000
  23666335.657    -9499013.267 8  -7223066.86526        66.000
  25111499.770    -2614934.736 7  -2071895.44925        44.000
  21545873.412      781315.505 9   1537704.50829       128.000
  24298618.247    19448879.715 6  15528917.22125        36.000
  22897269.850   -10693141.858 8  -8949437.62927        78.000
 96  6  6 17  1  0.0030000  0  7G26G 2G 9G24G 7G27G 4
  24588132.710     4499366.952 7   3644249.96425        46.000
  22677239.064    12592716.387 9   5349280.65127       100.000
  23660715.088    -9528549.121 8  -7246081.78826        66.000
  25103335.433    -2657818.520 6  -2105311.29725        40.000
  21551533.434      811071.247 9   1560890.78729       128.000
  24311401.037    19516070.967 7  15581273.97125        48.000
  22891351.797   -10724244.802 8  -8973673.67327        80.000
 96  6  6 17  1 15.0030000  0  7G26G 2G 9G24G 7G27G 4
  24595352.672     4537302.986 7   3673810.42525        46.000
  22682765.918    12621790.659 9   5371935.92627       100.000
  23655113.945    -9557997.817 8  -7269028.82826        66.000
  25095183.116    -2700684.145 7  -2138713.05725        44.000
  21557212.882      840905.982 9   1584138.63129       126.000
  24324198.488    19583316.883 6  15633673.37225        36.000
  22885450.682   -10755254.683 8  -8997837.19627        78.000
 96  6  6 17  1 30.0030000  0  7G26G 2G 9G24G 7G27G 4
  24602581.897     4575316.155 7   3703431.12825        44.000
  22688313.967    12650921.391 9   5394635.19927       100.000
  23649520.987    -9587368.763 8  -7291915.29926        68.000
  25087028.312    -2743537.879 7  -2172105.57125        46.000
  21562901.624      870812.297 9   1607442.24829       126.000
  24337015.575    19650609.960 7  15686109.44025        50.000
  22879565.846   -10786177.834 8  -9021933.14527        76.000
 96  6  6 17  1 45.0030000  0  7G26G 2G 9G24G 7G27G 4
  24609838.943     4613413.351 7   3733117.23825        46.000
  22693865.104    12680113.304 9   5417382.12327       100.000
  23643953.841    -9616653.498 8  -7314734.55326        68.000
  25078869.910    -2786376.298 7  -2205486.18825        44.000
  21568609.193      900797.607 9   1630807.41329       124.000
  24349820.790    19717956.840 6  15738587.51025        36.000
  22873697.259   -10817007.584 8  -9045956.30027        78.000
 96  6  6 17  2  0.0030000  0  7G26G 2G 9G24G 7G27G 4
  24617107.831     4651592.347 7   3762867.10825        48.000
  22699434.828    12709367.302 9   5440177.46027       102.000
  23638392.242    -9645848.808 8  -7337484.11526        66.000
  25070724.219    -2829197.943 7  -2238853.67125        44.000
  21574327.884      930862.495 9   1654234.61729       122.000
  24362642.254    19785359.941 6  15791109.40925        40.000
  22867851.816   -10847743.494 8  -9069906.33727        78.000
 96  6  6 17  2 15.0030000  0  7G26G 2G 9G24G 7G27G 4
  24624386.582     4689845.380 7   3792674.60825        48.000
  22705011.777    12738676.873 9   5463016.05427       100.000
  23632854.685    -9674963.546 8  -7360170.90826        66.000
  25062579.637    -2872006.196 7  -2272210.75425        44.000
  21580065.492      960998.807 9   1677717.44129       122.000
  24375480.236    19852815.547 6  15843672.21625        38.000
  22862014.377   -10878387.915 8  -9093785.09027        80.000
 96  6  6 17  2 30.0030000  0  7G26G 2G 9G24G 7G27G 4
  24631668.960     4728175.755 7   3822542.39625        44.000
  22710601.947    12768044.457 9   5485899.85827        98.000
  23627332.838    -9703996.057 8  -7382793.62626        68.000
  25054433.407    -2914796.537 7  -2305553.87125        42.000
  21585812.183      991206.075 9   1701255.56929       122.000
  24388329.551    19920327.563 6  15896278.87225        40.000
  22856200.801   -10908939.677 8  -9117591.66027        80.000
 96  6  6 17  2 45.0030000  0  7G26G 2G 9G24G 7G27G 4
  24638977.931     4766574.879 7   3852463.72425        42.000
  22716196.494    12797464.972 9   5508824.92227       102.000
  23621816.477    -9732953.024 8  -7405357.51026        64.000
  25046294.791    -2957574.835 7  -2338887.57025        42.000
  21591574.404     1021479.270 9   1724845.06229       118.000
  24401186.630    19987891.255 6  15948925.88125        40.000
  22850407.702   -10939403.365 8  -9141329.57227        80.000
 96  6  6 17  3  0.0030000  0  7G26G 2G 9G24G 7G27G 4
  24646297.273     4805044.193 7   3882439.82325        42.000
  22721807.770    12826943.038 9   5531794.84527        98.000
  23616326.827    -9761830.517 8  -7427859.47126        66.000
  25038161.811    -3000336.307 7  -2372208.12925        42.000
  21597344.719     1051822.853 9   1748489.39829       116.000
  24414049.825    20055514.615 6  16001619.36625        36.000
  22844629.112   -10969772.764 8  -9164994.00227        80.000
 96  6  6 17  3 15.0030000  0  7G26G 2G 9G24G 7G27G 4
  24653631.876     4843585.693 7   3912472.15325        42.000
  22727427.859    12856485.534 9   5554814.95727        98.000
  23610846.381    -9790623.074 7  -7450295.20026        62.000
  25030025.774    -3043074.058 6  -2405510.19525        40.000
  21603134.641     1082242.967 9   1772193.36829       118.000
  24426945.248    20123202.998 6  16054363.48125        38.000
  22838869.560   -11000042.926 8  -9188581.14727        78.000
 96  6  6 17  3 30.0030000  0  7G26G 2G 9G24G 7G27G 4
  24660968.817     4882194.112 6   3942556.60325        40.000
  22733061.499    12886089.784 9   5577883.20127        98.000
  23605385.482    -9819333.271 8  -7472666.76026        64.000
  25021896.362    -3085792.048 7  -2438796.90425        46.000
  21608939.882     1112737.550 9   1795955.39129       118.000
  24439834.675    20190953.975 6  16107156.45125        38.000
  22833124.907   -11030216.710 8  -9212093.17227        80.000
 96  6  6 17  3 45.0030000  0  7G26G 2G 9G24G 7G27G 4
  24668340.383     4920864.154 7   3972689.10625        42.000
  22738711.418    12915747.640 9   5600993.21327        98.000
  23599935.794    -9847964.508 8  -7494976.79526        66.000
  25013767.129    -3128495.947 7  -2472072.64125        46.000
  21614755.046     1143299.890 9   1819770.19129       120.000
  24452744.008    20258761.365 6  16159993.34125        38.000
  22827404.207   -11060299.190 8  -9235534.03727        82.000
 96  6  6 17  4  0.0030000  0  7G26G 2G 9G24G 7G27G 4
  24675713.809     4959604.127 7   4002876.07525        46.000
  22744362.476    12945468.544 9   5624152.35327        98.000
  23594507.063    -9876508.382 8  -7517218.75026        66.000
  25005657.953    -3171176.028 7  -2505329.76925        48.000
  21620584.751     1173934.978 9   1843641.69929       120.000
  24465656.698    20326630.540 6  16212878.37025        36.000
  22821697.807   -11090281.279 8  -9258896.67727        80.000
 96  6  6 17  4 15.0030000  0  7G26G 2G 9G24G 7G27G 4
  24683088.373     4998370.634 6   4033083.68825        40.000
  22750021.778    12975208.654 9   5647326.43327        96.000
  23589078.781    -9905012.579 8  -7539429.80426        66.000
  24997523.175    -3213875.196 7  -2538601.86525        44.000
  21626418.322     1204596.804 9   1867534.00829       124.000
  24478580.631    20394515.388 6  16265775.60325        38.000
  22816000.492   -11120206.696 8  -9282215.18927        80.000
 96  6  6 17  4 30.0030000  0  7G26G 2G 9G24G 7G27G 4
  24690474.120     5037201.919 6   4063341.75125        40.000
  22755690.673    13005001.684 9   5670541.76527        98.000
  23583669.745    -9933439.781 8  -7561580.90626        70.000
  24989399.459    -3256559.676 6  -2571862.44325        40.000
  21632268.442     1235321.949 9   1891475.68529       124.000
  24491499.648    20462450.113 6  16318711.70225        36.000
  22810328.538   -11150040.105 8  -9305461.98527        82.000
 96  6  6 17  4 45.0030000  0  7G26G 2G 9G24G 7G27G 4
  24697878.395     5076102.367 6   4093653.86525        38.000
  22761371.740    13034849.787 9   5693800.02027        98.000
  23578277.768    -9961784.608 8  -7583667.77926        66.000
  24981280.270    -3299225.872 7  -2605108.76425        46.000
  21638125.637     1266114.500 9   1915469.87029       124.000
  24504428.167    20530433.745 6  16371685.87225        38.000
  22804666.328   -11179778.999 8  -9328635.13027        80.000
 96  6  6 17  5  0.0030000  0  7G26G 2G 9G24G 7G27G 4
  24705292.562     5115077.916 6   4124024.37325        36.000
  22767064.199    13064756.040 9   5717103.59127        98.000
  23572899.102    -9990043.942 8  -7605688.01726        68.000
  24973168.335    -3341869.487 7  -2638337.50125        48.000
  21643998.871     1296978.252 9   1939519.54929       122.000
  24517374.405    20598465.779 6  16424697.85225        34.000
  22799027.442   -11209420.228 8  -9351732.17027        82.000
 96  6  6 17  5 15.0030000  0  7G26G 2G 9G24G 7G27G 4
  24712734.580     5154135.358 7   4154458.74125        42.000
  22772764.633    13094724.088 9   5740455.32127        96.000
  23567536.474   -10018213.942 8  -7627638.65326        68.000
  24965055.382    -3384487.136 7  -2671545.99225        42.000
  21649887.665     1327914.957 9   1963626.06029       124.000
  24530337.401    20666545.651 6  16477747.08925        40.000
  22793403.605   -11238962.593 8  -9374752.17327        80.000
 96  6  6 17  5 30.0030000  0  7G26G 2G 9G24G 7G27G 4
  24720176.238     5193275.909 6   4184957.82025        40.000
  22778480.236    13124754.645 9   5763855.74727        94.000
  23562196.061   -10046295.383 8  -7649520.26526        68.000
  24956949.653    -3427079.814 7  -2704735.09025        44.000
  21655786.441     1358925.371 9   1987790.02629       122.000
  24543295.930    20734669.096 6  16530830.25425        40.000
  22787802.133   -11268407.758 8  -9397696.46127        80.000
 96  6  6 17  5 45.0030000  0  7G26G 2G 9G24G 7G27G 4
  24727636.993     5232504.175 6   4215525.23025        36.000
  22784208.491    13154849.019 9   5787305.89127        96.000
  23556868.060   -10074287.232 8  -7671332.08426        72.000
  24948856.066    -3469648.422 7  -2737905.36125        42.000
  21661701.616     1390010.564 9   2012012.25329       120.000
  24556268.309    20802835.273 6  16583946.72225        38.000
  22782214.571   -11297757.143 9  -9420566.09527        84.000
 96  6  6 17  6  0.0030000  0  7G26G 2G 9G24G 7G27G 4
  24735126.288     5271819.582 7   4246160.60725        42.000
  22789946.219    13185010.916 9   5810808.62427        94.000
  23551556.457   -10102191.414 8  -7693075.61326        72.000
  24940749.678    -3512194.198 7  -2771057.87125        42.000
  21667632.680     1421170.785 9   2036292.92929       120.000
  24569250.792    20871042.029 6  16637094.77925        38.000
  22776647.095   -11327010.205 9  -9443360.69227        84.000
 96  6  6 17  6 15.0030000  0  7G26G 2G 9G24G 7G27G 4
  24742617.742     5311210.079 6   4276854.46425        38.000
  22795699.056    13215234.885 9   5834359.78927        94.000
  23546260.503   -10130019.688 8  -7714759.99626        74.000
  24932652.704    -3554726.928 6  -2804200.19625        40.000
  21673573.427     1452399.539 9   2060627.04429       118.000
  24582247.304    20939279.577 6  16690266.82325        38.000
  22771100.335   -11356175.447 9  -9466086.80827        84.000
 96  6  6 17  6 30.0030000  0  7G26G 2G 9G24G 7G27G 4
  24750131.770     5350683.247 6   4307612.78125        40.000
  22801462.896    13245532.341 9   5857968.17027        94.000
  23540980.648   -10157762.093 8  -7736377.44726        76.000
  24924569.819    -3597236.166 7  -2837324.23125        44.000
  21679532.192     1483711.452 9   2085025.92529       118.000
  24595223.401    21007561.835 6  16743473.76725        36.000
  22765569.464   -11385241.535 9  -9488735.70827        84.000
 96  6  6 17  6 45.0030000  0  7G26G 2G 9G24G 7G27G 4
  24757653.803     5390225.155 6   4338424.63825        40.000
  22807240.046    13275892.769 9   5881625.64327        96.000
  23535719.111   -10185431.157 8  -7757937.73326        74.000
  24916485.226    -3639733.403 7  -2870438.93525        44.000
  21685507.835     1515092.949 9   2109479.03929       120.000
  24608224.830    21075875.420 6  16796705.10125        40.000
  22760052.324   -11414219.388 8  -9511315.84127        82.000
 96  6  6 17  7  0.0030000  0  7G26G 2G 9G24G 7G27G 4
  24765190.256     5429842.959 7   4369295.58625        42.000
  22813032.906    13306324.765 9   5905338.87627        98.000
  23530465.638   -10213024.016 8  -7779438.65926        72.000
  24908395.297    -3682210.723 7  -2903538.10825        44.000
  21691492.472     1546550.614 9   2133991.49029       120.000
  24621241.099    21144225.690 6  16849965.01225        38.000
  22754561.175   -11443101.279 9  -9533821.19527        86.000
 96  6  6 17  7 15.0030000  0  7G26G 2G 9G24G 7G27G 4
  24772746.225     5469533.660 6   4400223.38625        40.000
  22818837.488    13336828.261 9   5929107.83327        94.000
  23525228.653   -10240542.525 8  -7800881.62726        74.000
  24900318.228    -3724674.211 7  -2936626.50025        44.000
  21697490.180     1578081.890 9   2158561.32429       118.000
  24634256.709    21212611.066 6  16903252.24025        38.000
  22749080.130   -11471887.955 9  -9556252.34127        88.000
 96  6  6 17  7 30.0030000  0  7G26G 2G 9G24G 7G27G 4
  24780308.759     5509291.321 6   4431203.36825        40.000
  22824650.673    13367402.278 9   5952931.73527        92.000
  23520009.027   -10267989.733 8  -7822269.07926        76.000
  24892239.601    -3767127.095 7  -2969706.61825        42.000
  21703505.336     1609687.246 9   2183188.86929       114.000
  24647272.199    21281032.284 6  16956567.42325        38.000
  22743619.410   -11500578.657 9  -9578608.72127        86.000
 96  6  6 17  7 45.0030000  0  7G26G 2G 9G24G 7G27G 4
  24787898.095     5549118.736 7   4462237.72225        44.000
  22830486.163    13398048.705 9   5976812.03127        94.000
  23514797.554   -10295359.542 8  -7843596.20826        74.000
  24884165.561    -3809565.401 7  -3002775.33325        44.000
  21709534.492     1641369.183 9   2207876.09029       114.000
  24660296.952    21349494.969 6  17009914.89425        38.000
  22738178.027   -11529168.080 9  -9600886.18327        88.000
 96  6  6 17  8  0.0030000  0  7G26G 2G 9G24G 7G27G 4
  24795485.123     5589015.031 7   4493325.71025        44.000
  22836331.217    13428765.817 9   6000747.43027        92.000
  23509606.048   -10322648.225 8  -7864860.10826        76.000
  24876093.289    -3851985.301 7  -3035829.81825        42.000
  21715575.670     1673125.076 9   2232620.92329       114.000
  24673331.448    21418002.278 6  17063297.23825        40.000
  22732757.989   -11557652.118 9  -9623081.53627        86.000
 96  6  6 17  8 15.0030000  0  7G26G 2G 9G24G 7G27G 4
  24803097.903     5628983.311 6   4524469.81925        40.000
  22842185.864    13459556.059 9   6024739.84027        92.000
  23504432.230   -10349849.445 8  -7886055.82526        76.000
  24868016.311    -3894378.238 7  -3068863.16825        42.000
  21721637.353     1704958.131 9   2257425.90729       116.000
  24686377.696    21486560.595 6  17116719.27625        38.000
  22727361.155   -11586022.403 9  -9645188.23527        88.000
 96  6  6 17  8 30.0030000  0  7G26G 2G 9G24G 7G27G 4
  24810707.804     5669015.982 6   4555664.02725        40.000
  22848061.046    13490404.489 9   6048777.57127        92.000
  23499268.455   -10376970.167 8  -7907188.85726        78.000
  24859956.120    -3936753.660 7  -3101882.95225        42.000
  21727707.491     1736857.398 9   2282282.47329       112.000
  24699445.620    21555161.616 7  17170174.49125        44.000
  22721982.189   -11614290.026 9  -9667214.93927        86.000
 96  6  6 17  8 45.0030000  0  7G26G 2G 9G24G 7G27G 4
  24818330.837     5709122.413 6   4586915.74525        40.000
  22853943.034    13521313.446 9   6072862.47027        94.000
  23494127.704   -10404001.312 8  -7928252.05726        80.000
  24851905.944    -3979106.289 7  -3134884.91725        46.000
  21733789.441     1768827.068 9   2307193.91229       112.000
  24712497.954    21623810.407 6  17223667.04025        34.000
  22716624.358   -11642448.064 9  -9689156.24327        86.000
 96  6  6 17  9  0.0030000  0  7G26G 2G 9G24G 7G27G 4
  24825993.262     5749348.543 6   4618260.78225        40.000
  22859842.410    13552326.048 9   6097028.11727        92.000
  23489006.529   -10430892.460 8  -7949206.21526        76.000
  24843855.497    -4021390.794 7  -3167833.89625        48.000
  21739895.314     1800911.929 9   2332195.08829       114.000
  24725583.415    21692550.907 6  17277231.03725        36.000
  22711294.438   -11670453.845 9  -9710978.93727        84.000
 96  6  6 17  9 15.0030000  0  7G26G 2G 9G24G 7G27G 4
  24833664.622     5789643.079 6   4649659.12625        40.000
  22865751.530    13583390.391 9   6121234.08227        92.000
  23483911.496   -10457693.136 8  -7970089.87426        78.000
  24835813.054    -4063659.344 7  -3200770.34825        46.000
  21746011.080     1833061.209 9   2357246.45529       112.000
  24738663.150    21761332.956 7  17330827.37025        42.000
  22705987.032   -11698358.878 9  -9732723.10627        84.000
 96  6  6 17  9 30.0030000  0  7G26G 2G 9G24G 7G27G 4
  24841337.090     5830004.675 6   4681109.73925        36.000
  22871678.636    13614505.656 9   6145479.72227        94.000
  23478828.875   -10484398.536 8  -7990899.26626        78.000
  24827776.458    -4105908.069 7  -3233691.41825        46.000
  21752142.195     1865275.024 9   2382348.13029       116.000
  24751761.292    21830161.063 6  17384459.63025        34.000
  22700692.877   -11726163.605 9  -9754389.10527        90.000
 96  6  6 17  9 45.0030000  0  7G26G 2G 9G24G 7G27G 4
  24849036.270     5870441.899 6   4712619.23825        40.000
  22877609.131    13645676.026 9   6169768.31227        94.000
  23473762.742   -10511000.301 8  -8011627.88826        78.000
  24819746.217    -4148125.377 7  -3266587.96625        46.000
  21758285.752     1897557.969 9   2407503.67329       114.000
  24764871.876    21899043.236 6  17438133.98025        38.000
  22695422.286   -11753862.647 9  -9775972.74928        90.000
 96  6  6 17 10  0.0030000  0  7G26G 2G 9G24G 7G27G 4
  24856740.367     5910947.722 7   4744182.06925        42.000
  22883547.480    13676895.297 9   6194095.01627        94.000
  23468719.783   -10537503.408 8  -8032279.64626        76.000
  24811710.970    -4190315.717 7  -3299463.49125        46.000
  21764441.061     1929900.286 9   2432705.46329       114.000
  24777993.402    21967971.379 6  17491844.18525        38.000
  22690170.372   -11781464.014 9  -9797480.30228        90.000
 96  6  6 17 10 15.0030000  0  7G26G 2G 9G24G 7G27G 4
  24864471.624     5951520.476 6   4775797.19325        40.000
  22889497.700    13708167.057 9   6218462.62927        92.000
  23463693.943   -10563908.548 8  -8052855.04926        76.000
  24803681.359    -4232479.549 7  -3332318.37425        48.000
  21770605.244     1962306.004 9   2457956.69129       114.000
  24791114.029    22036946.300 6  17545590.81525        34.000
  22684935.126   -11808968.353 9  -9818912.22528        88.000
 96  6  6 17 10 30.0030000  0  7G26G 2G 9G24G 7G27G 4
  24872200.994     5992158.193 7   4807462.96425        42.000
  22895464.110    13739491.171 9   6242871.01227        94.000
  23458688.188   -10590218.943 8  -8073356.66326        76.000
  24795672.463    -4274620.628 7  -3365155.52325        46.000
  21776785.945     1994776.706 9   2483258.51429       116.000
  24804238.973    22105964.287 6  17599371.09525        36.000
  22679719.697   -11836379.688 9  -9840271.70028        90.000
 96  6  6 17 10 45.0030000  0  7G26G 2G 9G24G 7G27G 4
  24879943.014     6032866.901 6   4839184.06125        40.000
  22901432.678    13770878.126 9   6267328.39627        92.000
  23453702.999   -10616427.825 8  -8093779.13926        82.000
  24787649.297    -4316731.389 7  -3397969.07425        48.000
  21782982.205     2027320.935 9   2508617.66029       114.000
  24817399.052    22175030.863 6  17653189.14225        36.000
  22674524.054   -11863691.775 9  -9861553.81028        92.000
 96  6  6 17 11  0.0030000  0  7G26G 2G 9G24G 7G27G 4
  24887708.328     6073639.928 6   4870955.21125        40.000
  22907416.745    13802328.315 9   6291834.99727        92.000
  23448733.400   -10642538.619 8  -8114125.23826        80.000
  24779646.608    -4358813.125 7  -3430760.00125        48.000
  21789186.170     2059935.190 9   2534031.32929       114.000
  24830539.795    22244141.995 6  17707041.91125        36.000
  22669344.389   -11890906.821 9  -9882760.35827        92.000
 96  6  6 17 11 15.0030000  0  7G26G 2G 9G24G 7G27G 4
  24895472.293     6114475.139 7   4902774.76425        42.000
  22913413.194    13833841.717 9   6316390.87227        90.000
  23443784.126   -10668556.758 8  -8134399.10626        80.000
  24771646.406    -4400867.912 7  -3463529.90925        48.000
  21795403.536     2092616.019 9   2559496.92429       114.000
  24843704.072    22313292.848 6  17760925.62424        38.000
  22664183.852   -11918024.490 9  -9903890.98827        92.000
 96  6  6 17 11 30.0030000  0  7G26G 2G 9G24G 7G27G 4
  24903262.520     6155374.801 7   4934644.52625        44.000
  22919424.513    13865422.049 9   6340998.90327        90.000
  23438845.735   -10694480.381 8  -8154599.32126        76.000
  24763645.755    -4442891.502 7  -3496275.51625        48.000
  21801634.662     2125366.672 9   2585016.89329       116.000
  24856873.505    22382485.269 6  17814841.71224        36.000
  22659043.461   -11945039.591 9  -9924941.72028        94.000
 96  6  6 17 11 45.0030000  0  7G26G 2G 9G24G 7G27G 4
  24911055.715     6196332.684 7   4966559.78725        42.000
  22925444.705    13897067.957 9   6365658.05827        90.000
  23433934.175   -10720313.916 8  -8174729.31826        74.000
  24755655.236    -4484888.513 7  -3529000.42325        48.000
  21807882.037     2158184.982 9   2610589.60429       118.000
  24870045.336    22451713.311 6  17868785.62924        32.000
  22653920.247   -11971955.426 9  -9945915.05228        94.000
 96  6  6 17 12  0.0030000  0  7G26G 2G 9G24G 7G27G 4
  24918855.925     6237351.412 7   4998522.43225        44.000
  22931480.187    13928787.484 9   6390374.55227        90.000
  23429034.277   -10746053.635 8  -8194786.24126        76.000
  24747666.787    -4526857.168 7  -3561703.26325        48.000
  21814141.464     2191075.721 9   2636218.74329       120.000
  24883225.711    22520978.938 6  17922758.86024        36.000
  22648819.279   -11998763.819 9  -9966804.71728        94.000
 96  6  6 17 12 15.0030000  0  7G26G 2G 9G24G 7G27G 4
  24926672.564     6278431.556 6   5030532.91025        40.000
  22937534.285    13960586.228 9   6415152.79427        86.000
  23424155.065   -10771698.206 8  -8214769.02026        78.000
  24739689.369    -4568797.136 7  -3594383.69625        48.000
  21820414.741     2224046.125 9   2661909.96729       124.000
  24896417.629    22590283.043 6  17976761.93524        34.000
  22643738.576   -12025458.561 9  -9987605.80828        92.000
 96  6  6 17 12 30.0030000  0  7G26G 2G 9G24G 7G27G 4
  24934502.663     6319572.255 7   5062590.62625        42.000
  22943600.766    13992460.488 9   6439989.88527        88.000
  23419289.313   -10797252.941 8  -8234681.81726        78.000
  24731712.042    -4610711.178 7  -3627043.95625        48.000
  21826702.498     2257093.230 9   2687660.94529       120.000
  24909602.831    22659620.694 6  18030791.20624        34.000
  22638679.009   -12052041.471 9 -10008319.74428        92.000
 96  6  6 17 12 45.0030000  0  7G26G 2G 9G24G 7G27G 4
  24942346.223     6360772.875 7   5094694.99025        42.000
  22949678.458    14024409.732 9   6464885.38627        86.000
  23414447.845   -10822718.511 8  -8254525.10526        78.000
  24723744.668    -4652597.087 7  -3659682.27425        48.000
  21833006.504     2290213.035 9   2713468.58629       122.000
  24922795.108    22728989.634 6  18084844.85524        32.000
  22633644.834   -12078511.740 9 -10028945.89928        94.000
 96  6  6 17 13  0.0030000  0  7G26G 2G 9G24G 7G27G 4
  24950192.601     6402037.613 6   5126849.17425        40.000
  22955769.342    14056437.232 9   6489841.84127        88.000
  23409615.490   -10848092.535 8  -8274297.05727        76.000
  24715773.936    -4694453.049 7  -3692297.27825        44.000
  21839322.682     2323406.402 9   2739333.53129       124.000
  24936014.666    22798392.425 6  18138924.95424        32.000
  22628625.978   -12104866.317 9 -10049481.95228        94.000
 96  6  6 17 13 15.0030000  0  7G26G 2G 9G24G 7G27G 4
  24958051.930     6443363.958 7   5159051.49925        42.000
  22961883.489    14088538.412 9   6514855.73027        86.000
  23404803.612   -10873378.980 8  -8294000.77027        76.000
  24707822.750    -4736286.247 7  -3724894.51325        50.000
  21845652.290     2356668.763 9   2765252.25829       124.000
  24949225.591    22867824.022 6  18193027.41924        34.000
  22623636.352   -12131108.240 9 -10069930.17828        96.000
 96  6  6 17 13 30.0030000  0  7G26G 2G 9G24G 7G27G 4
  24965943.217     6484746.756 7   5191297.86425        44.000
  22968006.360    14120707.114 9   6539922.25327        86.000
  23400006.902   -10898583.101 8  -8313640.31127        74.000
  24699853.277    -4778100.105 7  -3757476.67025        46.000
  21851994.189     2389995.538 9   2791221.16629       126.000
  24962442.031    22937283.126 6  18247151.37924        34.000
  22618658.239   -12157245.482 9 -10090296.83028        96.000
 96  6  6 17 13 45.0030000  0  7G26G 2G 9G24G 7G27G 4
  24973826.440     6526190.478 6   5223591.66725        40.000
  22974139.214    14152949.948 9   6565046.52927        86.000
  23395229.949   -10923699.072 8  -8333211.20827        76.000
  24691910.906    -4819887.690 7  -3790038.39325        48.000
  21858347.541     2423392.489 9   2817244.75429       126.000
  24975668.814    23006780.992 6  18301305.52824        32.000
  22613708.276   -12183272.890 9 -10110577.93028       100.000
 96  6  6 17 14  0.0030000  0  7G26G 2G 9G24G 7G27G 4
  24981727.830     6567694.974 6   5255932.83425        40.000
  22980286.848    14185263.794 9   6590226.14027        86.000
  23390467.476   -10948728.072 8  -8352714.34227        76.000
  24683959.420    -4861649.280 7  -3822579.83525        48.000
  21864717.651     2456855.296 9   2843319.68329       128.000
  24988900.334    23076318.100 6  18355490.17323        36.000
  22608776.510   -12209191.737 9 -10130774.41228        98.000
 96  6  6 17 14 15.0030000  0  7G26G 2G 9G24G 7G27G 4
  24989638.783     6609272.660 7   5288330.97225        44.000
  22986452.290    14217653.884 9   6615465.16427        86.000
  23385723.171   -10973658.316 8  -8372140.48727        80.000
  24676021.995    -4903373.053 7  -3855091.81625        48.000
  21871097.834     2490392.336 9   2869452.43329       128.000
  25002145.465    23145905.693 6  18409714.21224        36.000
  22603867.468   -12234990.864 9 -10150877.61328        98.000
 96  6  6 17 14 30.0030000  0  7G26G 2G 9G24G 7G27G 4
  24997559.929     6650914.820 7   5320779.28525        42.000
  22992632.332    14250104.630 9   6640751.45527        84.000
  23380993.975   -10998501.653 8  -8391498.92127        76.000
  24668085.470    -4945068.372 7  -3887581.62225        48.000
  21877491.868     2523989.623 9   2895632.13829       130.000
  25015393.923    23215529.477 6  18463966.51424        36.000
  22598975.695   -12260687.168 9 -10170900.69928        98.000
 96  6  6 17 14 45.0030000  0  7G26G 2G 9G24G 7G27G 4
  25005492.228     6692621.344 6   5353277.87125        40.000
  22998814.652    14282613.814 9   6666083.24627        86.000
  23376283.486   -11023256.574 8  -8410788.45327        78.000
  24660157.368    -4986733.390 7  -3920047.80925        46.000
  21883897.263     2557644.012 9   2921856.32129       130.000
  25028643.611    23285192.817 6  18518249.60624        36.000
  22594104.547   -12286281.898 9 -10190844.62128        96.000
 96  6  6 17 15  0.0030000  0  7G26G 2G 9G24G 7G27G 4
  25013447.880     6734387.393 6   5385822.84625        40.000
  23005009.293    14315176.473 9   6691456.74527        84.000
  23371591.464   -11047925.151 8  -8430010.70627        78.000
  24652232.145    -5028373.177 7  -3952494.39125        48.000
  21890311.023     2591352.404 9   2948122.59929       130.000
  25041912.305    23354893.245 6  18572561.59024        36.000
  22589256.993   -12311778.676 9 -10210712.22828        98.000
 96  6  6 17 15 15.0030000  0  7G26G 2G 9G24G 7G27G 4
  25021406.321     6776217.386 6   5418417.66725        40.000
  23011217.276    14347794.638 9   6716873.49227        86.000
  23366909.395   -11072502.764 8  -8449162.08027        76.000
  24644312.557    -5069983.114 7  -3984917.64225        48.000
  21896736.535     2625120.745 9   2974435.58729       130.000
  25055180.849    23424636.354 6  18626906.73223        34.000
  22584421.310   -12337169.348 9 -10230497.15128        98.000
 96  6  6 17 15 30.0030000  0  7G26G 2G 9G24G 7G27G 4
  25029367.340     6818102.153 6   5451055.12325        38.000
  23017434.941    14380461.135 9   6742327.88727        86.000
  23362252.839   -11096993.975 8  -8468246.14927        80.000
  24636394.019    -5111564.372 7  -4017318.59525        46.000
  21903173.678     2658942.443 9   3000790.15629       128.000
  25068465.223    23494417.658 6  18681281.72823        40.000
  22579609.222   -12362459.913 9 -10250204.06728        94.000
 96  6  6 17 15 45.0030000  0  7G26G 2G 9G24G 7G27G 4
  25037344.937     6860033.043 6   5483728.43224        38.000
  23023656.115    14413168.622 9   6767814.24027        86.000
  23357612.441   -11121405.491 8  -8487268.12727        80.000
  24628497.636    -5153120.714 7  -4049700.10925        48.000
  21909617.897     2692810.541 9   3027180.87129       130.000
  25081743.091    23564228.834 6  18735680.01324        34.000
  22574814.701   -12387656.464 9 -10269837.73628        96.000
 96  6  6 17 16  0.0030000  0  7G26G 2G 9G24G 7G27G 4
  25045342.710     6902017.361 6   5516443.42924        38.000
  23029889.279    14445924.076 9   6793337.95727        86.000
  23352977.530   -11145725.777 8  -8506218.99127        78.000
  24620581.496    -5194645.437 7  -4082056.97525        42.000
  21916074.168     2726733.775 9   3053614.56429       130.000
  25095034.029    23634070.837 6  18790102.32624        32.000
  22570040.866   -12412749.574 9 -10289390.78828        96.000
 96  6  6 17 16 15.0030000  0  7G26G 2G 9G24G 7G27G 4
  25053344.471     6944055.226 6   5549200.19025        38.000
  23036132.247    14478726.411 9   6818898.21027        84.000
  23348373.258   -11169953.452 8  -8525097.67527        78.000
  24612697.614    -5236138.167 7  -4114388.94425        46.000
  21922539.132     2760713.058 9   3080091.92729       128.000
  25108336.061    23703939.404 6  18844545.35224        38.000
  22565281.691   -12437740.432 9 -10308864.16828        94.000
 96  6  6 17 16 30.0030000  0  7G26G 2G 9G24G 7G27G 4
  25061347.340     6986145.695 6   5581997.99625        36.000
  23042385.139    14511581.542 9   6844499.58227        84.000
  23343777.139   -11194088.250 8  -8543903.98627        78.000
  24604807.436    -5277598.341 7  -4146695.50525        50.000
  21929015.998     2794750.282 9   3106614.43529       128.000
  25121638.122    23773832.677 6  18899007.51924        34.000
  22560548.777   -12462628.486 9 -10328257.44828        94.000
 96  6  6 17 16 45.0030000  0  7G26G 2G 9G24G 7G27G 4
  25069368.228     7028291.111 6   5614838.57125        36.000
  23048648.013    14544498.423 9   6870149.07327        84.000
  23339204.555   -11218127.260 8  -8562635.69427        74.000
  24596920.466    -5319022.794 7  -4178974.26425        48.000
  21935506.805     2828849.874 9   3133185.52929       128.000
  25134942.551    23843755.878 6  18953493.04624        36.000
  22555831.992   -12487408.297 9 -10347566.37028        92.000
 96  6  6 17 17  0.0030000  0  7G26G 2G 9G24G 7G27G 4
  25077394.091     7070490.223 6   5647720.95325        34.000
  23054924.108    14577479.225 9   6895848.39627        86.000
  23334645.671   -11242069.300 8  -8581291.81927        74.000
  24589049.145    -5360410.456 7  -4211224.34925        46.000
  21942007.774     2863015.188 9   3159807.85829       126.000
  25148253.846    23913710.874 6  19008003.39924        34.000
  22551138.682   -12512073.883 9 -10366786.30128        92.000
 96  6  6 17 17 15.0030000  0  7G26G 2G 9G24G 7G27G 4
  25085446.367     7112739.842 6   5680642.60924        36.000
  23061212.705    14610526.416 9   6921599.45527        84.000
  23330108.612   -11265914.317 8  -8599872.36827        74.000
  24581187.298    -5401761.724 7  -4243446.05925        50.000
  21948521.365     2897246.434 9   3186481.55729       128.000
  25161562.563    23983691.849 6  19062533.99524        28.000
  22546465.337   -12536626.684 9 -10385918.35028        94.000
 96  6  6 17 17 30.0030000  0  7G26G 2G 9G24G 7G27G 4
  25093481.974     7155041.573 6   5713604.93924        32.000
  23067518.809    14643641.342 9   6947403.28027        84.000
  23325587.292   -11289659.616 8  -8618375.19427        74.000
  24573314.328    -5443074.882 7  -4275638.06525        48.000
  21955048.266     2931542.474 9   3213205.73729       126.000
  25174894.963    24053699.908 6  19117085.65524        32.000
  22541814.956   -12561067.302 9 -10404962.96128        94.000
 96  6  6 17 17 45.0030000  0  7G26G 2G 9G24G 7G27G 4
  25101551.368     7197391.594 6   5746605.00525        38.000
  23073828.991    14676823.019 9   6973259.12027        84.000
  23321087.617   -11313306.627 8  -8636801.41627        76.000
  24565456.708    -5484354.085 7  -4307803.66425        48.000
  21961585.421     2965900.193 9   3239977.97829       126.000
  25188216.001    24123729.757 6  19171654.25724        32.000
  22537184.242   -12585401.930 9 -10423925.00628        92.000
 96  6  6 17 18  0.0030000  0  7G26G 2G 9G24G 7G27G 4
  25109608.979     7239790.974 6   5779643.51125        34.000
  23080155.990    14710073.438 9   6999168.50627        84.000
  23316609.767   -11336853.895 8  -8655149.91827        74.000
  24557614.467    -5525601.929 7  -4339944.80625        52.000
  21968134.657     3000319.095 9   3266797.90329       124.000
  25201551.309    24193780.682 6  19226239.35624        34.000
  22532574.273   -12609626.770 9 -10442801.49828        92.000
 96  6  6 17 18 15.0030000  0  7G26G 2G 9G24G 7G27G 4
  25117703.286     7282243.812 6   5812723.64925        38.000
  23086497.620    14743396.422 8   7025134.44427        82.000
  23312146.937   -11360298.577 8  -8673418.49827        78.000
  24549770.967    -5566815.112 7  -4372058.93725        52.000
  21974697.084     3034799.412 9   3293665.68329       124.000
  25214881.671    24263858.083 6  19280845.12224        28.000
  22527986.370   -12633737.885 9 -10461589.37528        96.000
 96  6  6 17 18 30.0030000  0  7G26G 2G 9G24G 7G27G 4
  25125791.267     7324754.830 6   5845849.11424        38.000
  23092854.390    14776797.125 8   7051160.96027        82.000
  23307705.991   -11383638.709 8  -8691605.60827        78.000
  24541938.500    -5607989.624 7  -4404142.92925        50.000
  21981269.884     3069343.912 9   3320583.46429       124.000
  25228232.088    24333968.656 6  19335476.71024        32.000
  22523420.381   -12657728.282 9 -10480283.16228        94.000
 96  6  6 17 18 45.0030000  0  7G26G 2G 9G24G 7G27G 4
  25133889.800     7367320.102 6   5879017.09424        38.000
  23099224.440    14810269.625 9   7077243.42327        86.000
  23303282.403   -11406877.366 8  -8709713.68127        80.000
  24534103.274    -5649130.406 7  -4436200.66325        50.000
  21987853.386     3103948.053 9   3347547.72029       122.000
  25241574.052    24404109.047 6  19390131.48724        32.000
  22518877.685   -12681600.908 9 -10498885.18828        94.000
 96  6  6 17 19  0.0030000  0  7G26G 2G 9G24G 7G27G 4
  25141992.621     7409946.363 6   5912232.42024        40.000
  23105607.711    14843812.935 9   7103381.05427        84.000
  23298881.000   -11430007.817 8  -8727737.39727        80.000
  24526291.672    -5690230.043 7  -4468226.28825        52.000
  21994451.668     3138617.123 9   3374562.57529       120.000
  25254934.752    24474285.508 6  19444814.29524        30.000
  22514357.744   -12705351.283 9 -10517391.96228        98.000
 96  6  6 17 19 15.0030000  0  7G26G 2G 9G24G 7G27G 4
  25150115.947     7452630.440 6   5945492.76224        40.000
  23112003.183    14877423.654 9   7129571.22527        84.000
  23294503.311   -11453029.294 8  -8745676.19427        80.000
  24518473.204    -5731289.477 7  -4500220.64125        52.000
  22001060.683     3173347.697 9   3401625.36129       118.000
  25268286.399    24544494.423 6  19499522.47124        28.000
  22509859.988   -12728983.904 9 -10535806.97828        96.000
 96  6  6 17 19 30.0030000  0  7G26G 2G 9G24G 7G27G 4
  25158252.254     7495371.488 6   5978797.46125        40.000
  23118411.157    14911098.774 9   7155811.55927        84.000
  23290141.810   -11475943.135 9  -8763531.09927        84.000
  24510663.791    -5772312.348 7  -4532186.46825        52.000
  22007681.629     3208133.358 9   3428731.05729       114.000
  25281656.304    24614735.219 6  19554255.51624        28.000
  22505385.436   -12752503.312 9 -10554133.77228       100.000
 96  6  6 17 19 45.0030000  0  7G26G 2G 9G24G 7G27G 4
  25166395.847     7538182.031 6   6012156.35024        38.000
  23124831.962    14944848.110 9   7182109.72327        84.000
  23285802.824   -11498738.153 8  -8781293.45827        82.000
  24502871.555    -5813288.614 7  -4564115.98625        54.000
  22014309.920     3242984.063 9   3455887.45729       108.000
  25295024.349    24685021.119 6  19609023.79324        24.000
  22500931.989   -12775897.517 9 -10572363.01128       100.000
 96  6  6 17 20  0.0030000  0  7G26G 2G 9G24G 7G27G 4
  25174556.767     7581059.867 6   6045567.69824        36.000
  23131268.836    14978672.260 9   7208466.16427        84.000
  23281489.380   -11521418.116 8  -8798966.15627        82.000
  24495080.429    -5854217.607 7  -4596008.68725        56.000
  22020957.189     3277900.462 9   3483095.04429       106.000
  25308403.277    24755350.501 6  19663825.75623        26.000
  22496506.603   -12799166.373 9 -10590494.57828       102.000
 96  6  6 17 20 15.0030000  0  7G26G 2G 9G24G 7G27G 4
  25182725.482     7624005.260 6   6079031.86823        38.000
  23137720.879    15012566.614 9   7234877.34827        86.000
  23277191.676   -11543986.338 8  -8816551.80727        80.000
  24487303.572    -5895099.369 7  -4627864.54425        52.000
  22027611.382     3312881.100 9   3510352.66429       104.000
  25321813.084    24825720.964 6  19718659.76223        30.000
  22492103.940   -12822312.090 9 -10608530.18428       104.000
 96  6  6 17 20 30.0030000  0  7G26G 2G 9G24G 7G27G 4
  25190918.870     7667018.967 6   6112549.05923        38.000
  23144183.445    15046529.815 9   7261342.17627        86.000
  23272921.432   -11566446.347 8  -8834053.12227        82.000
  24479533.971    -5935934.825 7  -4659684.36325        54.000
  22034281.225     3347927.282 9   3537661.36329       104.000
  25335200.196    24896132.131 6  19773525.58223        24.000
  22487718.426   -12845338.513 9 -10626472.84228       104.000
 96  6  6 17 20 45.0030000  0  7G26G 2G 9G24G 7G27G 4
  25199112.557     7710091.843 6   6146112.37624        38.000
  23150654.975    15080557.195 9   7287856.99427        84.000
  23268661.831   -11588805.476 9  -8851475.77927        84.000
  24471763.531    -5976732.169 7  -4691474.41825        52.000
  22040963.119     3383035.143 9   3565018.13629       104.000
  25348606.885    24966575.932 6  19828416.82423        28.000
  22483358.845   -12868252.226 9 -10644327.66028       104.000
 96  6  6 17 21  0.0030000  0  7G26G 2G 9G24G 7G27G 4
  25207315.748     7753229.923 6   6179726.43424        36.000
  23157147.281    15114659.741 9   7314430.41227        84.000
  23264430.320   -11611055.703 9  -8868813.62427        86.000
  24464010.208    -6017480.962 7  -4723226.72625        52.000
  22047656.285     3418211.834 9   3592428.54129       102.000
  25362020.019    25037060.605 6  19883339.92523        28.000
  22479018.719   -12891046.903 9 -10662089.75428       102.000
 96  6  6 17 21 15.0030000  0  7G26G 2G 9G24G 7G27G 4
  25215540.614     7796424.948 6   6213384.88324        32.000
  23163652.537    15148835.368 9   7341060.75227        84.000
  23260218.146   -11633204.069 9  -8886072.06127        88.000
  24456263.421    -6058185.733 7  -4754944.69325        54.000
  22054358.925     3453451.209 9   3619887.79229       104.000
  25375432.943    25107579.802 6  19938289.79723        26.000
  22474707.314   -12913727.126 9 -10679762.64928       102.000
 96  6  6 17 21 30.0030000  0  7G26G 2G 9G24G 7G27G 4
  25223773.485     7839677.092 6   6247087.79923        36.000
  23170170.805    15183086.258 9   7367749.70427        86.000
  23256016.015   -11655250.603 9  -8903251.19927        86.000
  24448529.225    -6098846.092 7  -4786628.07325        54.000
  22061079.253     3488752.860 9   3647395.55729       106.000
  25388867.123    25178132.704 6  19993266.02923        24.000
  22470413.327   -12936290.907 9 -10697344.82328       104.000
 96  6  6 17 21 45.0030000  0  7G26G 2G 9G24G 7G27G 4
  25232012.261     7882988.072 6   6280836.43923        34.000
  23176698.725    15217414.287 9   7394498.81027        84.000
  23251845.812   -11677194.899 9  -8920350.65127        86.000
  24440799.227    -6139458.159 7  -4818273.77925        54.000
  22067811.332     3524119.568 9   3674954.03629       104.000
  25402294.497    25248719.397 6  20048268.62823        34.000
  22466139.605   -12958731.024 9 -10714830.59729       104.000
 96  6  6 17 22  0.0030000  0  7G26G 2G 9G24G 7G27G 4
  25240268.995     7926350.995 6   6314625.74323        36.000
  23183246.582    15251814.860 8   7421304.45627        82.000
  23247686.252   -11699042.167 9  -8937374.51327        88.000
  24433078.462    -6180023.258 7  -4849882.92025        54.000
  22074553.545     3559549.357 9   3702561.66229       106.000
  25415735.033    25319332.440 6  20103291.78823        26.000
  22461896.673   -12981050.219 9 -10732222.16329       106.000
 96  6  6 17 22 15.0030000  0  7G26G 2G 9G24G 7G27G 4
  25248523.451     7969766.415 6   6348455.98324        32.000
  23189804.033    15286289.064 8   7448167.46727        82.000
  23243545.728   -11720788.996 9  -8954320.06827        88.000
  24425368.010    -6220538.915 7  -4881453.51325        54.000
  22081306.879     3595043.356 9   3730219.32029       106.000
  25429181.174    25389971.962 6  20158335.49223        26.000
  22457672.297   -13003244.497 9 -10749516.39529       106.000
 96  6  6 17 22 30.0030000  0  7G26G 2G 9G24G 7G27G 4
  25256790.738     8013230.192 6   6382323.84824        32.000
  23196381.479    15320834.485 8   7475085.97627        82.000
  23239429.338   -11742435.206 9  -8971187.21727        88.000
  24417668.320    -6261008.899 7  -4912988.50725        54.000
  22088073.465     3630599.512 9   3757925.41429       106.000
  25442623.928    25460634.980 6  20213397.51422        32.000
  22453472.145   -13025316.212 9 -10766715.11429       108.000
 96  6  6 17 22 45.0030000  0  7G26G 2G 9G24G 7G27G 4
  25265074.693     8056737.383 6   6416225.58124        34.000
  23202970.618    15355451.801 8   7502060.48627        82.000
  23235329.976   -11763978.373 9  -8987974.09927        88.000
  24409971.149    -6301434.124 7  -4944488.67425        52.000
  22094848.924     3666217.919 9   3785679.99929       108.000
  25456078.823    25531320.611 6  20268477.12322        26.000
  22449296.515   -13047262.633 9 -10783816.23129       110.000
 96  6  6 17 23  0.0030000  0  7G26G 2G 9G24G 7G27G 4
  25273369.920     8100288.536 6   6450161.56723        36.000
  23209570.249    15390139.135 8   7529089.55327        80.000
  23231253.008   -11785411.762 9  -9004675.44527        88.000
  24402294.723    -6341808.571 7  -4975949.25225        56.000
  22101641.172     3701897.942 9   3813482.61429       110.000
  25469529.342    25602028.409 6  20323574.09622        26.000
  22445146.159   -13069082.292 9 -10800818.55529       110.000
 96  6  6 17 23 15.0030000  0  7G26G 2G 9G24G 7G27G 4
  25281659.331     8143880.759 6   6484129.79723        32.000
  23216183.551    15424887.654 8   7556166.30326        82.000
  23227193.219   -11806738.613 9  -9021293.77527        88.000
  24394619.736    -6382133.852 7  -5007371.50525        56.000
  22108440.735     3737633.439 9   3841328.44829       110.000
  25482988.044    25672753.597 6  20378684.59222        30.000
  22441015.978   -13090779.572 9 -10817725.51429       108.000
 96  6  6 17 23 30.0030000  0  7G26G 2G 9G24G 7G27G 4
  25289964.002     8187512.160 6   6518128.29223        34.000
  23222804.917    15459691.665 8   7583286.29226        78.000
  23223157.203   -11827959.854 9  -9037829.81227        90.000
  24386954.733    -6422414.323 7  -5038758.85025        54.000
  22115249.351     3773422.420 9   3869215.96229       112.000
  25496454.782    25743492.445 6  20433805.80622        32.000
  22436908.222   -13112355.824 9 -10834538.15629       108.000
 96  6  6 17 23 45.0030000  0  8G26G 2G 9G 5G24G 7G27G 4
  25298279.256     8231185.212 6   6552159.26924        36.000
  23229436.656    15494554.099 8   7610451.82527        80.000
  23219135.277   -11849072.806 9  -9054281.46027        86.000
  25885739.515    -1310988.596 6  -1141239.58623        40.000
  24379294.376    -6462648.160 7  -5070109.84025        52.000
  22122073.317     3809267.406 9   3897147.12429       110.000
  25509913.364    25814247.958 6  20488939.92422        28.000
  22432827.537   -13133808.627 9 -10851254.61029       108.000
 96  6  6 17 24  0.0030000  0  8G26G 2G 9G 5G24G 7G27G 4
  25306589.952     8274903.176 6   6586225.22824        34.000
  23236086.322    15529479.638 8   7637666.51627        80.000
  23215138.534   -11870073.315 9  -9070645.48227        88.000
  25880183.012    -1340171.791 5  -1163979.75423        18.000
  24371650.837    -6502834.294 7  -5101423.68425        54.000
  22128904.178     3845173.280 9   3925125.72429       112.000
  25523380.581    25885024.971 6  20544090.57722        32.000
  22428766.128   -13155137.463 9 -10867874.47729       108.000
 96  6  6 17 24 15.0030000  0  8G26G 2G 9G 5G24G 7G27G 4
  25314919.386     8318669.791 6   6620329.19723        34.000
  23242745.702    15564469.986 8   7664931.73027        78.000
  23211163.286   -11890959.329 9  -9086920.28127        88.000
  25874629.537    -1369359.440 6  -1186723.30323        26.000
  24364012.275    -6542972.453 7  -5132700.10025        54.000
  22135747.301     3881142.216 9   3953153.47029       114.000
  25536855.023    25955824.627 6  20599259.17622        30.000
  22424730.802   -13176345.547 9 -10884400.21629       108.000
 96  6  6 17 24 30.0030000  0  8G26G 2G 9G 5G24G 7G27G 4
  25323261.861     8362481.169 6   6654468.07723        34.000
  23249415.575    15599519.943 8   7692243.36627        76.000
  23207213.131   -11911737.152 9  -9103110.79327        88.000
  25869084.635    -1398557.582 6  -1209474.98423        32.000
  24356378.720    -6583069.894 7  -5163944.82625        52.000
  22142606.283     3917168.018 9   3981225.50829       114.000
  25550335.161    26026643.770 6  20654442.95622        24.000
  22420717.300   -13197439.199 9 -10900836.84029       108.000
 96  6  6 17 24 45.0030000  0  8G26G 2G 9G 5G24G 7G27G 4
  25331609.282     8406347.865 6   6688649.91523        34.000
  23256096.419    15634639.358 8   7719609.10327        76.000
  23203280.723   -11932397.862 9  -9119210.05627        88.000
  25863512.753    -1427756.622 6  -1232227.58523        28.000
  24348761.983    -6623115.937 7  -5195149.50725        54.000
  22149475.397     3953260.111 9   4009349.20329       116.000
  25563815.928    26097493.855 6  20709650.67822        28.000
  22416727.123   -13218410.224 9 -10917177.90529       106.000
 96  6  6 17 25  0.0030000  0  8G26G 2G 9G 5G24G 7G27G 4
  25339959.221     8450262.445 6   6722869.09424        34.000
  23262789.496    15669818.457 8   7747021.35826        78.000
  23199372.149   -11952951.817 9  -9135226.11927        90.000
  25857953.401    -1456968.111 6  -1254989.59322        28.000
  24341147.884    -6663121.658 7  -5226322.72725        54.000
  22156352.846     3989405.365 9   4037514.34229       116.000
  25577299.154    26168364.920 6  20764874.82522        28.000
  22412755.652   -13239266.838 9 -10933429.78929       106.000
 96  6  6 17 25 15.0030000  0  8G26G 2G 9G 5G24G 7G27G 4
  25348332.784     8494228.334 6   6757128.23324        32.000
  23269497.922    15705060.224 8   7774482.47226        78.000
  23195479.704   -11973400.631 9  -9151160.27327        88.000
  25852387.095    -1486190.006 6  -1277759.62722        22.000
  24333545.507    -6703086.020 7  -5257463.74525        54.000
  22163240.878     4025604.396 9   4065721.37929       118.000
  25590791.374    26239260.824 6  20820118.36322        32.000
  22408811.433   -13260007.287 9 -10949591.16629       108.000
 96  6  6 17 25 30.0030000  0  8G26G 2G 9G 5G24G 7G27G 4
  25356703.649     8538242.420 6   6791424.99724        36.000
  23276217.110    15740366.629 8   7801993.94426        78.000
  23191603.627   -11993748.586 9  -9167015.79227        86.000
  25846835.298    -1515424.823 7  -1300539.84822        42.000
  24325948.316    -6743015.432 7  -5288577.52525        54.000
  22170138.413     4061856.625 9   4093969.86329       116.000
  25604278.317    26310181.853 6  20875381.38622        24.000
  22404885.650   -13280630.377 9 -10965661.08929       108.000
 96  6  6 17 25 45.0030000  0  8G26G 2G 9G 5G24G 7G27G 4
  25365080.450     8582307.077 6   6825761.04424        30.000
  23282944.873    15775741.472 8   7829558.73526        78.000
  23187751.893   -12013992.383 9  -9182790.16627        86.000
  25841270.611    -1544667.244 6  -1323326.17222        32.000
  24318357.721    -6782909.476 7  -5319663.74425        54.000
  22177048.839     4098166.120 9   4122262.96029       120.000
  25617788.884    26381128.820 6  20930664.73422        28.000
  22400986.190   -13301134.495 9 -10981638.30829       108.000
 96  6  6 17 26  0.0030000  0  8G26G 2G 9G 5G24G 7G27G 4
  25373486.151     8626417.638 6   6860133.04323        34.000
  23289692.122    15811180.060 8   7857173.24726        80.000
  23183921.535   -12034137.177 9  -9198487.37927        88.000
  25835705.863    -1573919.899 6  -1346120.35423        32.000
  24310770.214    -6822773.038 7  -5350726.22225        52.000
  22183968.438     4134527.154 9   4150596.25829       114.000
  25631295.733    26452095.113 6  20985963.05723        30.000
  22397106.246   -13321525.157 9 -10997527.11729       102.000
 96  6  6 17 26 15.0030000  0  8G26G 2G 9G 5G24G 7G27G 4
  25381888.644     8670577.705 6   6894543.66623        34.000
  23296445.157    15846683.439 8   7884838.17426        76.000
  23180108.625   -12054179.356 9  -9214104.68727        86.000
  25830130.533    -1603179.367 6  -1368919.90523        24.000
  24303189.302    -6862601.123 7  -5381761.03225        52.000
  22190897.751     4170942.098 9   4178971.51829       118.000
  25644801.383    26523083.596 6  21041278.69223        28.000
  22393247.827   -13341797.766 9 -11013323.96329       104.000
 96  6  6 17 26 30.0030000  0  8G26G 2G 9G 5G24G 7G27G 4
  25390300.011     8714781.874 6   6928988.47923        36.000
  23303212.282    15882249.024 8   7912551.60126        76.000
  23176312.323   -12074122.894 9  -9229645.11727        88.000
  25824567.524    -1632452.094 6  -1391729.75823        26.000
  24295613.097    -6902396.965 7  -5412770.73625        52.000
  22197835.428     4207406.656 9   4207385.44429       118.000
  25658310.931    26594092.704 6  21096610.40123        24.000
  22389413.631   -13361950.755 9 -11029027.58829       108.000
 96  6  6 17 26 45.0030000  0  8G26G 2G 9G 5G24G 7G27G 4
  25398707.960     8758997.485 6   6963442.16724        34.000
  23309989.300    15917849.074 8   7940291.86126        78.000
  23172531.430   -12093996.887 9  -9245131.34127        88.000
  25818985.298    -1661768.068 6  -1414573.29723        34.000
  24288037.881    -6942189.545 7  -5443777.90625        48.000
  22204779.671     4243889.494 9   4235813.63229       114.000
  25671825.575    26665095.190 6  21151936.91723        32.000
  22385593.766   -13382011.874 9 -11044659.60429       110.000
 96  6  6 17 27  0.0030000  0  8G26G 2G 9G 5G24G 7G27G 4
  25407127.452     8803240.483 6   6997917.24124        36.000
  23316771.715    15953500.596 8   7968072.24826        80.000
  23168764.808   -12113782.514 9  -9260548.71127        90.000
  25813401.694    -1691111.344 6  -1437438.18623        40.000
  24280473.278    -6981961.235 7  -5474768.77925        50.000
  22211728.231     4280407.555 9   4264269.25429       114.000
  25685343.187    26736104.811 6  21207269.05623        28.000
  22381798.753   -13401965.628 9 -11060207.97629       110.000
 96  6  6 17 27 15.0040000  0  7G26G 2G 9G 5G24G 7G 4
  25415552.429     8847530.614 6   7032429.02923        32.000
  23323575.115    15989224.390 8   7995908.97726        80.000
  23165016.893   -12133463.516 9  -9275884.53728        90.000
  25807813.742    -1720464.500 6  -1460310.75923        36.000
  24272915.780    -7021691.953 7  -5505727.73325        50.000
  22218687.403     4316983.043 9   4292769.63629       114.000
  22378026.255   -13421794.707 9 -11075659.18229       110.000
 96  6  6 17 27 30.0040000  0  7G26G 2G 9G 5G24G 7G 4
  25423992.007     8891861.175 6   7066972.23323        34.000
  23330380.374    16025018.191 8   8023800.24726        78.000
  23161294.400   -12153035.225 9  -9291135.21328        90.000
  25802219.165    -1749819.509 6  -1483184.85322        24.000
  24265366.316    -7061370.125 7  -5536645.73125        50.000
  22225657.248     4353612.388 9   4321311.97129       116.000
  22374275.551   -13441495.537 9 -11091010.46029       112.000
 96  6  6 17 27 45.0040000  0  7G26G 2G 9G 5G24G 7G 4
  25432438.359     8936233.162 6   7101547.68823        36.000
  23337208.537    16060884.586 8   8051748.07826        76.000
  23157593.342   -12172498.283 9  -9306301.21428        90.000
  25796636.940    -1779178.386 6  -1506061.87222        28.000
  24257826.566    -7100997.691 7  -5567524.32125        52.000
  22232636.656     4390297.138 9   4349897.48129       116.000
  22370551.559   -13461073.176 9 -11106265.76329       110.000
 96  6  6 17 28  0.0040000  0  7G26G 2G 9G 5G24G 7G 4
  25440887.770     8980642.553 6   7136152.45623        32.000
  23344046.383    16096820.820 8   8079750.33826        78.000
  23153904.455   -12191857.272 9  -9321386.14328        90.000
  25791051.656    -1808545.677 6  -1528945.44222        28.000
  24250299.737    -7140573.980 7  -5598362.96725        54.000
  22239629.195     4427033.323 9   4378523.08129       116.000
  22366846.424   -13480533.013 9 -11121429.27129       108.000
 96  6  6 17 28 15.0040000  0  7G26G 2G 9G 5G24G 7G 4
  25449350.431     9025089.932 6   7170786.78324        36.000
  23350900.448    16132832.344 8   8107811.24426        78.000
  23150241.411   -12211108.657 9  -9336387.23628        88.000
  25785461.696    -1837920.415 6  -1551834.85623        34.000
  24242773.207    -7180092.612 7  -5629156.63925        54.000
  22246629.649     4463823.509 9   4407190.75829       116.000
  22363170.609   -13499870.346 9 -11136497.31529       106.000
 96  6  6 17 28 30.0040000  0  7G26G 2G 9G 5G24G 7G 4
  25457815.821     9069574.540 6   7205450.15324        36.000
  23357764.136    16168918.342 8   8135930.15826        76.000
  23146599.503   -12230253.647 9  -9351305.40328        92.000
  25779870.027    -1867307.017 6  -1574733.43823        32.000
  24235256.421    -7219553.056 7  -5659904.99425        54.000
  22253643.683     4500666.594 9   4435899.65729       116.000
  22359510.773   -13519085.828 9 -11151470.38329       108.000
 96  6  6 17 28 45.0040000  0  7G26G 2G 9G 5G24G 7G 4
  25466284.868     9114098.604 6   7240144.25324        32.000
  23364649.560    16205082.148 8   8164109.72426        76.000
  23142976.721   -12249287.931 9  -9366137.27928        90.000
  25774277.729    -1896701.022 6  -1597637.85622        24.000
  24227763.798    -7258952.037 7  -5690605.45825        56.000
  22260664.253     4537565.391 9   4464651.94729       118.000
  22355878.367   -13538178.666 9 -11166347.92129       106.000
 96  6  6 17 29  0.0040000  0  7G26G 2G 9G 5G24G 7G 4
  25474770.403     9158660.716 6   7274868.18923        38.000
  23371542.838    16241319.878 8   8192346.93626        76.000
  23139376.963   -12268212.466 9  -9380883.68228        88.000
  25768678.775    -1926102.703 6  -1620548.15322        26.000
  24220277.741    -7298289.160 7  -5721257.73925        56.000
  22267696.365     4574517.640 9   4493445.90429       122.000
  22352266.528   -13557152.773 9 -11181132.90929       108.000
 96  6  6 17 29 15.0040000  0  7G26G 2G 9G 5G24G 7G 4
  25483250.423     9203261.963 6   7309622.49323        38.000
  23378452.514    16277628.766 8   8220639.56826        78.000
  23135795.672   -12287028.395 9  -9395545.41828        94.000
  25763085.337    -1955508.592 6  -1643461.84622        22.000
  24212809.401    -7337562.966 7  -5751860.66525        58.000
  22274735.701     4611522.190 9   4522280.60729       118.000
  22348678.732   -13576005.316 9 -11195823.20829       106.000
 96  6  6 17 29 30.0040000  0  7G26G 2G 9G 5G24G 7G 4
  25491743.543     9247901.946 6   7344406.91424        34.000
  23385377.810    16314010.761 8   8248989.16426        80.000
  23132236.206   -12305736.312 9  -9410123.02128        96.000
  25757487.492    -1984915.733 6  -1666376.34722        28.000
  24205345.768    -7376776.683 7  -5782416.78025        56.000
  22281789.818     4648576.955 9   4551154.44629       120.000
  22345115.818   -13594732.531 9 -11210415.82129       108.000
 96  6  6 17 29 45.0040000  0  7G26G 2G 9G 5G24G 7G 4
  25500244.488     9292580.082 6   7379221.06124        34.000
  23392314.468    16350467.362 8   8277396.88926        78.000
  23128696.856   -12324332.820 9  -9424613.78728        90.000
  25751896.183    -2014323.644 6  -1689291.73522        30.000
  24197897.814    -7415934.561 7  -5812929.37425        58.000
  22288850.860     4685681.988 9   4580067.45929       122.000
  22341575.359   -13613334.377 9 -11224910.77329       106.000
 96  6  6 17 30  0.0040000  0  7G26G 2G 9G 5G24G 7G 4
  25508754.996     9337297.539 6   7414065.82224        34.000
  23399266.025    16386996.214 8   8305860.91126        80.000
  23125181.730   -12342816.046 9  -9439016.32728        92.000
  25746300.917    -2043732.157 6  -1712207.42422        24.000
  24190447.761    -7455038.407 7  -5843399.87125        56.000
  22295919.426     4722838.286 9   4609020.41529       122.000
  22338061.372   -13631809.215 9 -11239306.73529       108.000
 96  6  6 17 30 15.0040000  0  7G26G 2G 9G 5G24G 7G 4
  25517282.563     9382073.903 6   7448956.54024        36.000
  23406232.392    16423612.482 8   8334393.04326        78.000
  23121687.349   -12361164.369 9  -9453313.70828        92.000
  25740707.659    -2073122.404 6  -1735108.83022        36.000
  24183027.119    -7494070.918 7  -5873814.77725        58.000
  22303001.214     4760060.161 9   4638024.46329       120.000
  22334574.216   -13650135.269 9 -11253586.76529       106.000
 96  6  6 17 30 30.0040000  0  7G26G 2G 9G 5G24G 7G 4
  25525812.588     9426923.555 6   7483904.37723        38.000
  23413220.974    16460326.381 8   8363001.26326        76.000
  23118226.395   -12379363.229 9  -9467494.62128        96.000
  25735109.574    -2102478.499 6  -1757983.70022        24.000
  24175612.112    -7533021.106 7  -5904165.50825        56.000
  22310100.299     4797358.554 9   4667088.13929       120.000
  22331116.140   -13668296.765 9 -11267738.56829       106.000
 96  6  6 17 30 45.0040000  0  7G26G 2G 9G 5G24G 7G 4
  25534365.936     9471817.284 6   7518886.72223        36.000
  23420218.580    16497107.834 8   8391662.11726        78.000
  23114784.658   -12397441.077 9  -9481581.25528        94.000
  25729539.550    -2131826.028 6  -1780851.90323        32.000
  24168211.256    -7571918.298 7  -5934474.97925        58.000
  22317208.738     4834704.394 9   4696188.79329       120.000
  22327688.283   -13686322.553 9 -11281784.62729       104.000
 96  6  6 17 31  0.0040000  0  7G26G 2G 9G 5G24G 7G 4
  25542909.662     9516748.514 6   7553898.08223        34.000
  23427230.936    16533952.002 8   8420371.86526        76.000
  23111370.891   -12415403.170 9  -9495577.68328        94.000
  25723953.128    -2161166.669 6  -1803714.65622        34.000
  24160816.275    -7610765.781 7  -5964745.70125        56.000
  22324321.704     4872094.591 9   4725324.00529       116.000
  22324280.482   -13704216.619 9 -11295728.04729       104.000
 96  6  6 17 31 15.0040000  0  7G26G 2G 9G 5G24G 7G 4
  25551465.199     9561715.089 6   7588937.00223        32.000
  23434250.966    16570857.046 8   8449129.03026        74.000
  23107970.645   -12433249.928 9  -9509484.24828        96.000
  25718366.465    -2190501.248 6  -1826572.75022        28.000
  24153435.594    -7649566.097 7  -5994979.66525        56.000
  22331446.781     4909529.619 9   4754494.15829       116.000
  22320900.502   -13721978.647 9 -11309568.58029       104.000
 96  6  6 17 31 30.0040000  0  7G26G 2G 9G 5G24G 7G 4
  25560023.794     9606715.430 6   7624002.21123        30.000
  23441289.283    16607825.592 8   8477935.67626        78.000
  23104598.339   -12450979.419 9  -9523299.44428        96.000
  25712786.638    -2219830.559 6  -1849426.67722        26.000
  24146061.869    -7688318.868 7  -6025176.61425        58.000
  22338579.683     4947010.432 9   4783699.97829       114.000
  22317547.743   -13739608.404 9 -11323306.04429       106.000
 96  6  6 17 31 45.0040000  0  7G26G 2G 9G 5G24G 7G 4
  25568599.267     9651752.757 6   7659096.20223        32.000
  23448333.836    16644860.104 8   8506793.72126        76.000
  23101248.159   -12468586.594 9  -9537019.31528        94.000
  25707212.057    -2249155.546 6  -1872277.32522        32.000
  24138697.977    -7727018.546 7  -6055332.16825        58.000
  22345719.900     4984544.568 9   4812947.35229       112.000
  22314218.458   -13757103.915 9 -11336938.90329       106.000
 96  6  6 17 32  0.0040000  0  7G26G 2G 9G 5G24G 7G 4
  25577177.498     9696825.532 6   7694217.75923        34.000
  23455394.878    16681956.406 8   8535699.90326        78.000
  23097918.424   -12486072.184 9  -9550644.43328        94.000
  25701620.658    -2278482.123 6  -1895129.16922        26.000
  24131340.920    -7765662.752 7  -6085444.50525        58.000
  22352871.749     5022133.049 9   4842237.08029       112.000
  22310914.685   -13774467.572 9 -11350469.00729       106.000
 96  6  6 17 32 15.0040000  0  7G26G 2G 9G 5G24G 7G 4
  25585757.529     9741932.157 6   7729365.68423        28.000
  23462465.033    16719110.355 8   8564651.00926        78.000
  23094613.392   -12503440.430 9  -9564178.13928        94.000
  25696043.889    -2307815.979 6  -1917986.75022        26.000
  24123997.564    -7804252.803 7  -6115514.63525        58.000
  22360036.339     5059774.662 9   4871568.20329       112.000
  22307631.508   -13791699.738 9 -11363896.65829       104.000
 96  6  6 17 32 30.0040000  0  7G26G 2G 9G 5G24G 7G 4
  25594353.028     9787072.025 6   7764539.64123        34.000
  23469546.551    16756325.757 8   8593650.04126        76.000
  23091333.752   -12520692.952 9  -9577621.65328        96.000
  25690461.753    -2337156.707 6  -1940849.61023        28.000
  24116665.630    -7842786.180 7  -6145540.62225        58.000
  22367209.563     5097472.457 9   4900943.08429       110.000
  22304380.499   -13808799.412 9 -11377221.07929       108.000
 96  6  6 17 32 45.0040000  0  7G26G 2G 9G 5G24G 7G 4
  25602943.911     9832242.820 6   7799737.64723        28.000
  23476641.499    16793604.743 8   8622698.58626        76.000
  23088070.601   -12537835.536 9  -9590979.50528        94.000
  25684884.744    -2366508.150 6  -1963720.85123        28.000
  24109343.379    -7881262.392 7  -6175522.06225        56.000
  22374395.019     5135228.148 9   4930363.09829       108.000
  22301150.115   -13825770.609 9 -11390445.37529       108.000
 96  6  6 17 33  0.0040000  0  7G26G 2G 9G 5G24G 7G 4
  25611536.922     9877440.493 6   7834956.60824        26.000
  23483745.201    16830946.413 8   8651795.98226        76.000
  23084829.035   -12554871.352 9  -9604254.17328        94.000
  25679283.002    -2395875.103 6  -1986604.14023        28.000
  24102037.377    -7919682.290 7  -6205459.60626        58.000
  22381588.958     5173040.917 9   4959827.58129       106.000
  22297943.535   -13842617.028 9 -11403572.45729       108.000
 96  6  6 17 33 15.0040000  0  7G26G 2G 9G 5G24G 7G 4
  25620160.362     9922672.409 6   7870202.29624        34.000
  23490865.932    16868358.236 8   8680948.03026        78.000
  23081606.956   -12571793.428 9  -9617440.19028        94.000
  25673701.736    -2425253.795 6  -2009496.57123        30.000
  24094732.664    -7958040.960 7  -6235349.44626        56.000
  22388797.978     5210915.001 9   4989339.85229       104.000
  22294763.007   -13859334.186 9 -11416598.79829       106.000
 96  6  6 17 33 30.0040000  0  7G26G 2G 9G 5G24G 7G 4
  25628767.224     9967939.870 6   7905475.51924        28.000
  23497997.275    16905841.007 8   8710155.34526        78.000
  23078404.783   -12588602.160 9  -9630537.89828        94.000
  25668092.170    -2454645.577 6  -2032399.23123        26.000
  24087444.979    -7996339.962 7  -6265192.81426        58.000
  22396013.802     5248845.154 9   5018895.80529       106.000
  22291608.441   -13875921.268 9 -11429523.80929       106.000
 96  6  6 17 33 45.0040000  0  7G26G 2G 9G 5G24G 7G 4
  25637387.846    10013252.074 6   7940783.64923        26.000
  23505147.115    16943401.809 8   8739423.50226        76.000
  23075231.869   -12605293.455 9  -9643544.08528        94.000
  25662494.685    -2484045.211 6  -2055308.05123        26.000
  24080171.054    -8034571.159 7  -6294983.30726        60.000
  22403243.327     5286834.616 9   5048497.99229       102.000
  22288478.128   -13892371.651 9 -11442342.26529       106.000
 96  6  6 17 34  0.0040000  0  7G26G 2G 9G 5G24G 7G 4
  25646012.995    10058595.277 6   7976116.02024        30.000
  23512304.121    16981024.476 8   8768739.86426        78.000
  23072073.946   -12621882.537 9  -9656470.64428        94.000
  25656928.048    -2513467.392 6  -2078234.35823        30.000
  24072906.454    -8072751.286 7  -6324734.02426        60.000
  22410484.005     5324866.504 9   5078133.22329       102.000
  22285369.250   -13908700.355 9 -11455065.93229       106.000
 96  6  6 17 34 15.0040000  0  7G26G 2G 9G 5G24G 7G 4
  25654648.516    10103968.905 6   8011472.07624        24.000
  23519476.895    17018709.335 8   8798104.68526        76.000
  23068937.817   -12638370.123 9  -9669318.11128        96.000
  25651312.036    -2542908.752 6  -2101175.67223        28.000
  24065647.399    -8110884.320 7  -6354448.05626        60.000
  22417726.091     5362934.075 9   5107796.24529       100.000
  22282284.116   -13924909.811 9 -11467696.67129       106.000
 96  6  6 17 34 30.0040000  0  7G26G 2G 9G 5G24G 7G 4
  25663290.993    10149381.573 6   8046858.57224        32.000
  23526665.558    17056467.915 8   8827526.93426        76.000
  23065822.194   -12654746.967 9  -9682079.30628        94.000
  25645704.688    -2572354.608 6  -2124120.47123        34.000
  24058403.694    -8148959.674 7  -6384117.13126        60.000
  22424974.923     5401042.247 9   5137490.91529       100.000
  22279222.036   -13940990.416 9 -11480227.01429       104.000
 96  6  6 17 34 45.0040000  0  7G26G 2G 9G 5G24G 7G 4
  25671938.777    10194829.932 6   8082272.91424        26.000
  23533863.275    17094295.876 8   8857003.25426        76.000
  23062726.177   -12671015.949 9  -9694756.42328        96.000
  25640099.528    -2601804.776 6  -2147068.63323        40.000
  24051163.916    -8186979.410 7  -6413742.86726        60.000
  22432236.496     5439185.712 9   5167213.08629       100.000
  22276188.286   -13956948.597 9 -11492661.94829       104.000
 96  6  6 17 35  0.0040000  0  7G26G 2G 9G 5G24G 7G 4
  25680600.051    10240313.296 6   8117714.42824        30.000
  23541070.796    17132190.391 8   8886531.44526        74.000
  23059651.266   -12687172.630 9  -9707346.03128        96.000
  25634492.480    -2631258.527 6  -2170019.57024        30.000
  24043945.303    -8224945.324 7  -6443326.66926        62.000
  22439502.985     5477363.264 9   5196961.82129       100.000
  22273174.202   -13972783.801 9 -11505001.06229       106.000
 96  6  6 17 35 15.0040000  0  7G26G 2G 9G 5G24G 7G 4
  25689259.496    10285831.252 6   8153182.85524        30.000
  23548296.424    17170148.195 8   8916108.93026        74.000
  23056598.749   -12703213.678 9  -9719845.54028        98.000
  25628885.012    -2660715.175 6  -2192972.74024        24.000
  24036728.249    -8262860.365 7  -6472870.81126        62.000
  22446772.293     5515575.987 9   5226737.96329       100.000
  22270184.582   -13988493.899 9 -11517242.68729       106.000
 96  6  6 17 35 30.0040000  0  7G26G 2G 9G 5G24G 7G 4
  25697925.117    10331389.018 6   8188682.43824        28.000
  23555530.026    17208172.514 8   8945738.25026        74.000
  23053573.183   -12719132.635 9  -9732249.91028       100.000
  25623282.551    -2690170.713 6  -2215925.02524        26.000
  24029524.296    -8300721.621 7  -6502373.06026        62.000
  22454051.524     5553827.540 9   5256544.37229        98.000
  22267221.044   -14004071.591 9 -11529381.12929       106.000
 96  6  6 17 35 45.0040000  0  7G26G 2G 9G 5G24G 7G 4
  25706601.020    10376982.619 6   8224209.89324        30.000
  23562778.018    17246258.774 8   8975415.82726        74.000
  23050565.576   -12734932.266 9  -9744561.33128        98.000
  25617678.500    -2719629.742 6  -2238880.07024        36.000
  24022329.128    -8338530.680 7  -6531834.66426        62.000
  22461338.279     5592118.480 9   5286381.44929       100.000
  22264281.669   -14019515.702 9 -11541415.51029       106.000
 96  6  6 17 36  0.0040000  0  7G26G 2G 9G 5G24G 7G 4
  25715291.434    10422609.640 6   8259763.39524        32.000
  23570035.064    17284407.320 8   9005141.96426        72.000
  23047578.294   -12750611.377 9  -9756778.81628       100.000
  25612073.670    -2749093.145 6  -2261838.62923        38.000
  24015142.173    -8376287.459 8  -6561255.48726        64.000
  22468633.729     5630452.769 9   5316252.32929       104.000
  22261370.414   -14034826.310 9 -11553345.82829       104.000
 96  6  6 17 36 15.0040000  0  7G26G 2G 9G 5G24G 7G 4
  25723969.886    10468265.291 6   8295339.25524        30.000
  23577309.019    17322617.659 8   9034916.23726        72.000
  23044616.764   -12766168.870 9  -9768901.54328       100.000
  25606464.913    -2778562.204 6  -2284801.55523        36.000
  24007963.493    -8413991.799 7  -6590635.45626        62.000
  22475935.474     5668831.298 9   5346157.66229       102.000
  22258480.535   -14050003.546 9 -11565172.24829       104.000
 96  6  6 17 36 30.0040000  0  7G26G 2G 9G 5G24G 7G 4
  25732670.763    10513950.295 6   8330937.92124        32.000
  23584595.234    17360894.850 8   9064742.59226        72.000
  23041683.984   -12781605.070 9  -9780929.74028       100.000
  25600863.321    -2808035.021 6  -2307767.31123        32.000
  24000805.978    -8451638.594 7  -6619970.60026        62.000
  22483246.123     5707259.317 9   5376101.55629       100.000
  22255615.928   -14065042.998 9 -11576891.28529       106.000
 96  6  6 17 36 45.0040000  0  7G26G 2G 9G 5G24G 7G 4
  25741368.911    10559664.633 6   8366559.33524        32.000
  23591889.845    17399240.804 8   9094622.54626        74.000
  23038767.333   -12796919.068 9  -9792862.71328       100.000
  25595241.613    -2837514.361 6  -2330738.19524        28.000
  23993655.658    -8489226.099 8  -6649259.52826        64.000
  22490571.222     5745744.584 9   5406090.07329       104.000
  22252783.369   -14079942.108 9 -11588500.97829       106.000
 96  6  6 17 37  0.0040000  0  7G26G 2G 9G 5G24G 7G 4
  25750079.051    10605401.159 6   8402198.17924        32.000
  23599199.564    17437653.594 8   9124554.54726        72.000
  23035876.704   -12812113.132 9  -9804702.24628       100.000
  25589627.490    -2867009.479 6  -2353721.34324        30.000
  23986505.818    -8526759.734 8  -6678506.49026        64.000
  22497905.494     5784286.633 9   5436122.82029       104.000
  22249977.611   -14094702.702 9 -11600002.74329       106.000
 96  6  6 17 37 15.0040000  0  7G26G 2G 9G 5G24G 7G 4
  25758781.187    10651161.937 6   8437855.91824        36.000
  23606522.505    17476139.354 8   9154543.43426        72.000
  23033008.650   -12827183.842 9  -9816445.66428       100.000
  25584018.762    -2896518.714 6  -2376715.45824        36.000
  23979379.391    -8564234.463 8  -6707707.54826        64.000
  22505250.799     5822889.420 9   5466202.90129       104.000
  22247194.548   -14109319.650 9 -11611392.55129       104.000
 96  6  6 17 37 30.0040000  0  7G26G 2G 9G 5G24G 7G 4
  25767492.676    10696945.311 6   8473531.32125        32.000
  23613857.886    17514700.131 8   9184590.78726        70.000
  23030165.448   -12842135.902 9  -9828096.61728        98.000
  25578394.566    -2926042.322 6  -2399720.88224        36.000
  23972259.830    -8601647.740 7  -6736860.72526        62.000
  22512612.623     5861550.136 9   5496328.13029       106.000
  22244437.057   -14123795.171 9 -11622672.17029       102.000
 96  6  6 17 37 45.0040000  0  7G26G 2G 9G 5G24G 7G 4
  25776206.414    10742748.782 6   8509222.26724        38.000
  23621210.626    17553337.534 8   9214697.85026        72.000
  23027341.014   -12856970.284 9  -9839655.87928        98.000
  25572781.762    -2955577.888 6  -2422735.58924        40.000
  23965149.412    -8638996.482 7  -6765963.60226        60.000
  22519975.465     5900265.163 9   5526495.68329       104.000
  22241712.153   -14138130.964 9 -11633842.92029       102.000
 96  6  6 17 38  0.0040000  0  7G26G 2G 9G 5G24G 7G 4
  25784929.235    10788575.131 6   8544931.08424        32.000
  23628579.255    17592056.156 8   9244868.20026        72.000
  23024540.322   -12871684.909 9  -9851121.81828        98.000
  25567159.094    -2985118.779 6  -2445754.50824        30.000
  23958059.081    -8676273.825 7  -6795010.88226        60.000
  22527354.137     5939036.341 9   5556706.99129       106.000
  22239008.295   -14152328.015 9 -11644905.54329       106.000
 96  6  6 17 38 15.0040000  0  7G26G 2G 9G 5G24G 7G 4
  25793652.866    10834423.661 6   8580657.05024        32.000
  23635965.362    17630856.388 8   9275102.12926        76.000
  23021764.154   -12886280.229 9  -9862494.77228        98.000
  25561535.587    -3014661.876 6  -2468775.07824        28.000
  23950971.388    -8713478.716 7  -6824001.66326        60.000
  22534741.083     5977861.040 9   5586959.98029       106.000
  22236331.328   -14166389.751 9 -11655862.73729       106.000
 96  6  6 17 38 30.0040000  0  7G26G 2G 9G 5G24G 7G 4
  25802388.248    10880293.863 6   8616400.09824        34.000
  23643364.419    17669736.470 8   9305398.28026        74.000
  23019007.952   -12900756.471 9  -9873774.96228        98.000
  25555915.738    -3044206.391 6  -2491796.71724        34.000
  23943908.217    -8750610.114 7  -6852935.20026        60.000
  22542139.542     6016737.631 9   5617253.41629       106.000
  22233683.471   -14180317.880 9 -11666715.81629       106.000
 96  6  6 17 38 45.0040000  0  7G26G 2G 9G 5G24G 7G 4
  25811115.267    10926186.162 6   8652160.34825        30.000
  23650777.208    17708694.899 8   9335755.50426        74.000
  23016278.102   -12915112.727 9  -9884961.66228        98.000
  25550287.644    -3073751.420 7  -2514818.76424        42.000
  23936856.829    -8787669.295 7  -6881812.44226        62.000
  22549549.452     6055663.274 9   5647585.08429       108.000
  22231057.949   -14194113.478 9 -11677465.62429       104.000
 96  6  6 17 39  0.0040000  0  7G26G 2G 9G 5G24G 7G 4
  25819852.148    10972103.432 6   8687940.00325        34.000
  23658203.127    17747730.067 8   9366172.48826        72.000
  23013568.368   -12929344.293 9  -9896051.19128        98.000
  25544676.998    -3103294.789 6  -2537839.54425        34.000
  23929819.800    -8824654.755 7  -6910632.27726        60.000
  22556964.039     6094636.863 9   5677954.10829       108.000
  22228457.549   -14207775.477 9 -11688111.33329       104.000
 96  6  6 17 39 15.0040000  0  7G26G 2G 9G 5G24G 7G 4
  25828598.443    11018047.052 6   8723740.23624        32.000
  23665644.545    17786840.735 8   9396648.33326        74.000
  23010882.947   -12943450.413 9  -9907042.97228        98.000
  25539045.367    -3132832.888 6  -2560856.19024        28.000
  23922800.040    -8861563.946 8  -6939392.65026        64.000
  22564389.778     6133654.275 9   5708357.27529       110.000
  22225883.471   -14221304.646 9 -11698653.53229       106.000
 96  6  6 17 39 30.0040000  0  7G26G 2G 9G 5G24G 7G 4
  25837346.028    11064020.946 6   8759563.92324        32.000
  23673101.643    17826025.111 8   9427181.60726        72.000
  23008224.178   -12957431.556 9  -9917937.37828       100.000
  25533425.637    -3162360.516 6  -2583864.71824        32.000
  23915791.192    -8898395.508 8  -6968092.53226        64.000
  22571823.132     6172716.131 9   5738795.08129       112.000
  22223333.736   -14234702.247 9 -11709093.21729       108.000
 96  6  6 17 39 45.0040000  0  7G26G 2G 9G 5G24G 7G 4
  25846097.329    11110028.154 6   8795413.63824        30.000
  23680571.721    17865283.004 8   9457772.14326        74.000
  23005587.983   -12971283.378 9  -9928730.99028        98.000
  25527804.169    -3191877.351 6  -2606864.92624        34.000
  23908795.895    -8935151.603 8  -6996733.62626        66.000
  22579263.951     6211820.944 9   5769266.37029       112.000
  22220806.726   -14247965.047 9 -11719427.85229       108.000
 96  6  6 17 40  0.0040000  0  7G26G 2G 9G 5G24G 7G 4
  25854860.652    11156067.543 6   8831288.49725        32.000
  23688060.117    17904610.481 8   9488416.92426        76.000
  23002973.943   -12985006.446 9  -9939424.29228       100.000
  25522193.163    -3221387.776 6  -2629860.03024        28.000
  23901818.495    -8971835.153 8  -7025318.20826        66.000
  22586713.464     6250967.581 9   5799770.21029       112.000
  22218311.133   -14261094.766 9 -11729658.81429       106.000
 96  6  6 17 40 15.0040000  0  7G26G 2G 9G 5G24G 7G 4
  25863628.323    11202140.113 6   8867189.16625        32.000
  23695560.805    17944006.973 8   9519115.48626        76.000
  23000389.222   -12998601.150 9  -9950017.55628       100.000
  25516581.049    -3250893.030 6  -2652851.03724        28.000
  23894846.402    -9008448.819 8  -7053848.29226        66.000
  22594168.882     6290159.353 9   5830309.25429       114.000
  22215835.117   -14274090.370 9 -11739785.24229       106.000
 96  6  6 17 40 30.0040000  0  7G26G 2G 9G 5G24G 7G 4
  25872406.546    11248253.430 6   8903121.64825        28.000
  23703061.072    17983481.554 8   9549874.84026        72.000
  22997830.283   -13012058.081 9  -9960503.49428       100.000
  25510969.443    -3280386.666 6  -2675833.03424        38.000
  23887900.361    -9044986.147 8  -7082318.93626        68.000
  22601639.411     6329406.248 9   5860891.21829       114.000
  22213395.856   -14286939.855 9 -11749797.84929       110.000
 96  6  6 17 40 45.0040000  0  7G26G 2G 9G 5G24G 7G 4
  25881189.295    11294396.561 6   8939077.24924        38.000
  23710594.017    18023019.454 8   9580683.58326        74.000
  22995292.420   -13025392.142 9  -9970893.66328        98.000
  25505355.350    -3309883.411 6  -2698817.46724        38.000
  23880953.630    -9081463.472 8  -7110742.77926        68.000
  22609117.434     6368693.232 9   5891504.46929       114.000
  22210973.443   -14299655.557 9 -11759706.15129       106.000
 96  6  6 17 41  0.0040000  0  7G26G 2G 9G 5G24G 7G 4
  25889959.934    11340576.102 6   8975061.18324        28.000
  23718124.594    18062630.329 8   9611549.21126        74.000
  22992779.650   -13038595.214 9  -9981181.76728       100.000
  25499745.633    -3339375.796 6  -2721798.56724        34.000
  23874023.897    -9117872.636 8  -7139113.52426        66.000
  22616601.033     6408028.724 9   5922155.49229       114.000
  22208580.410   -14312229.048 9 -11769503.67129       106.000
 96  6  6 17 41 15.0040000  0  7G26G 2G 9G 5G24G 7G 4
  25898765.408    11386785.212 6   9011068.29024        34.000
  23725678.045    18102307.589 8   9642466.53726        74.000
  22990290.683   -13051676.055 9  -9991374.62028       102.000
  25494129.142    -3368871.991 6  -2744782.60724        30.000
  23867107.176    -9154220.596 8  -7167436.60626        68.000
  22624095.485     6447405.775 9   5952838.90729       114.000
  22206212.919   -14324667.009 9 -11779195.59029       108.000
 96  6  6 17 41 30.0040000  0  7G26G 2G 9G 5G24G 7G 4
  25907557.211    11433023.534 6   9047098.11124        26.000
  23733245.466    18142055.366 8   9673438.82726        72.000
  22987824.920   -13064630.852 9 -10001469.29228       100.000
  25488506.954    -3398368.649 6  -2767766.97023        30.000
  23860202.206    -9190505.975 8  -7195710.92026        68.000
  22631594.223     6486827.055 9   5983556.78329       112.000
  22203874.118   -14336966.213 9 -11788779.36929       110.000
 96  6  6 17 41 45.0040000  0  7G26G 2G 9G 5G24G 7G 4
  25916370.930    11479280.704 6   9083142.70824        36.000
  23740822.181    18181867.389 8   9704461.16926        74.000
  22985377.204   -13077465.526 9 -10011470.31028       100.000
  25482903.383    -3427876.011 6  -2790759.70723        28.000
  23853306.919    -9226735.836 8  -7223941.94626        66.000
  22639103.155     6526283.781 9   6014302.27629       114.000
  22201559.840   -14349131.276 9 -11798258.64429       110.000
 96  6  6 17 42  0.0040000  0  7G26G 2G 9G 5G24G 7G 4
  25925174.815    11525560.241 6   9119204.67024        32.000
  23748405.701    18221749.120 8   9735537.81926        70.000
  22982964.325   -13090175.245 9 -10021373.99928       102.000
  25477291.358    -3457389.380 6  -2813757.15123        34.000
  23846422.275    -9262902.424 8  -7252123.69126        68.000
  22646621.200     6565781.372 9   6045079.60029       114.000
  22199269.366   -14361155.973 9 -11807628.54529       110.000
 96  6  6 17 42 15.0040000  0  7G26G 2G 9G 5G24G 7G 4
  25933990.092    11571855.656 6   9155278.91823        34.000
  23756006.279    18261694.941 8   9766664.41926        72.000
  22980564.396   -13102768.317 9 -10031186.76128       102.000
  25471663.924    -3486913.147 6  -2836762.61124        38.000
  23839554.480    -9299009.381 8  -7280258.95526        68.000
  22654146.531     6605318.579 9   6075887.82429       112.000
  22197007.821   -14373047.313 9 -11816894.49529       110.000
 96  6  6 17 42 30.0040000  0  7G26G 2G 9G 5G24G 7G 4
  25942799.524    11618174.988 6   9191371.82823        30.000
  23763627.183    18301713.267 8   9797847.47926        72.000
  22978195.616   -13115237.072 9 -10040902.69828       102.000
  25466047.972    -3516437.990 6  -2859768.97423        34.000
  23832703.473    -9335049.363 8  -7308342.05526        70.000
  22661676.748     6644901.656 9   6106731.76029       112.000
  22194768.132   -14384796.402 9 -11826049.63729       110.000
 96  6  6 17 42 45.0040000  0  7G26G 2G 9G 5G24G 7G 4
  25951604.068    11664517.769 6   9227483.06523        24.000
  23771247.908    18341802.044 8   9829085.48826        70.000
  22975843.205   -13127581.301 9 -10050521.57528       102.000
  25460423.326    -3545965.294 6  -2882777.23523        26.000
  23825851.236    -9371019.187 8  -7336370.45526        68.000
  22669218.117     6684527.678 9   6137609.17229       112.000
  22192561.150   -14396403.765 9 -11835094.33429       112.000
 96  6  6 17 43  0.0040000  0  7G26G 2G 9G 5G24G 7G 4
  25960437.903    11710881.544 6   9263610.68924        26.000
  23778891.476    18381961.649 8   9860378.69326        68.000
  22973523.171   -13139797.666 9 -10060040.80128       100.000
  25454815.438    -3575492.868 6  -2905785.65723        30.000
  23819024.692    -9406914.943 8  -7364341.15926        70.000
  22676769.589     6724199.962 9   6168522.63229       112.000
  22190379.050   -14407868.062 9 -11844027.53629       114.000
 96  6  6 17 43 15.0040000  0  7G26G 2G 9G 5G24G 7G 4
  25969263.823    11757262.071 6   9299751.35723        22.000
  23786549.974    18422190.738 8   9891726.00426        68.000
  22971218.756   -13151885.383 9 -10069459.80828       102.000
  25449196.008    -3605023.145 6  -2928796.24823        40.000
  23812205.223    -9442737.772 8  -7392255.04926        70.000
  22684324.329     6763915.741 9   6199469.98229       112.000
  22188229.119   -14419190.743 9 -11852850.40329       114.000
 96  6  6 17 43 30.0040000  0  7G26G 2G 9G 5G24G 7G 4
  25978099.096    11803656.626 6   9335902.98423        26.000
  23794220.524    18462486.832 8   9923125.56026        68.000
  22968943.841   -13163845.814 9 -10078779.61928       102.000
  25443569.803    -3634555.482 6  -2951808.43423        36.000
  23805402.603    -9478487.503 8  -7420111.96226        68.000
  22691890.641     6803672.429 9   6230449.22029       112.000
  22186097.055   -14430371.801 9 -11861562.91229       114.000
 96  6  6 17 43 45.0040000  0  7G26G 2G 9G 5G24G 7G 4
  25986931.672    11850066.663 6   9372066.52323        22.000
  23801895.720    18502851.098 8   9954578.25826        66.000
  22966692.310   -13175680.362 9 -10088001.30328       104.000
  25437948.155    -3664088.743 6  -2974821.34523        30.000
  23798612.154    -9514163.504 8  -7447911.36326        70.000
  22699465.167     6843471.513 9   6261461.52829       110.000
  22184001.026   -14441410.195 9 -11870164.20329       112.000
 96  6  6 17 44  0.0040000  0  7G26G 2G 9G 5G24G 7G 4
  25995755.703    11896503.121 6   9408250.73823        26.000
  23809598.858    18543289.442 8   9986088.59526        70.000
  22964465.092   -13187385.765 9 -10097122.42128       104.000
  25432339.128    -3693614.762 6  -2997828.65023        34.000
  23791840.562    -9549757.860 8  -7475647.22926        68.000
  22707046.679     6883320.374 9   6292512.55529       110.000
  22181925.263   -14452298.439 9 -11878648.56629       112.000
 96  6  6 17 44 15.0040000  0  7G26G 2G 9G 5G24G 7G 4
  26004594.394    11942955.864 6   9444447.65823        22.000
  23817300.736    18583790.476 8  10017647.81126        66.000
  22962257.810   -13198975.518 9 -10106153.42128       104.000
  25426715.621    -3723143.236 6  -3020837.80223        36.000
  23785078.563    -9585283.295 8  -7503329.40026        68.000
  22714637.184     6923210.614 9   6323595.83429       108.000
  22179879.689   -14463049.226 9 -11887025.81229       114.000
 96  6  6 17 44 30.0040000  0  7G26G 2G 9G 5G24G 7G 4
  26013448.674    11989428.200 6   9480659.84123        32.000
  23825021.051    18624360.153 8  10049260.52826        68.000
  22960076.490   -13210442.909 9 -10115089.06028       106.000
  25421098.110    -3752670.173 6  -3043845.80823        34.000
  23778334.432    -9620735.497 8  -7530954.47226        68.000
  22722235.544     6963144.997 9   6354713.51329       108.000
  22177859.717   -14473656.238 9 -11895291.02929       112.000
 96  6  6 17 44 45.0040000  0  7G26G 2G 9G 5G24G 7G 4
  26022292.792    12035919.460 6   9516886.84923        24.000
  23832756.296    18665001.449 8  10080929.05426        66.000
  22957918.554   -13221784.796 9 -10123926.87628       106.000
  25415471.725    -3782193.082 6  -3066850.61823        34.000
  23771597.675    -9656110.368 8  -7558519.26626        66.000
  22729843.617     7003121.536 9   6385864.07229       106.000
  22175870.984   -14484117.096 9 -11903442.33029       112.000
 96  6  6 17 45  0.0040000  0  7G26G 2G 9G 5G24G 7G 4
  26031142.365    12082425.569 6   9553125.24323        32.000
  23840499.785    18705711.410 8  10112651.07426        66.000
  22955783.582   -13233003.840 9 -10132668.98828       104.000
  25409869.713    -3811714.983 6  -3089854.66323        36.000
  23764882.414    -9691409.477 8  -7586025.05326        68.000
  22737460.114     7043137.892 9   6417045.63129       106.000
  22173908.003   -14494433.364 9 -11911480.99029       112.000
